GFSMA_prec_cthk_000.txt.gz
RH
42 44 45 45 46 46 44 42 40 36 31 28 28 30 31 31 30 31 30 28 25 24 25 26 29 30 31 38 42 47 51 54 54 47 43 42 40 42 47 46 42 36 37
45 44 43 48 48 44 42 38 30 26 27 30 31 30 26 23 21 20 20 20 20 23 27 29 30 31 31 39 49 49 48 48 49 54 55 55 52 49 48 48 53 54 48
45 44 50 50 47 40 33 30 30 30 29 25 20 16 15 15 16 16 18 21 23 24 26 28 29 32 32 31 35 38 41 43 41 45 48 52 55 55 53 54 57 58 60
47 51 52 42 35 33 33 33 30 25 19 16 15 16 17 17 18 20 20 22 23 24 25 26 28 27 28 29 27 26 25 26 30 30 36 42 45 47 50 50 49 52 57
52 47 39 36 35 35 33 28 21 16 15 17 18 18 17 18 18 16 18 19 18 18 20 22 22 22 22 22 23 22 19 17 20 23 25 25 35 38 41 46 45 46 51
40 39 37 38 38 32 25 20 16 17 16 17 18 16 15 16 14 17 13 13 12 13 13 13 12 12 12 12 11 11 10 14 19 20 19 21 23 26 29 36 36 41 42
37 40 40 37 31 25 19 17 16 16 17 17 16 15 14 14 15 17 14 14 14 14 13 13 12 12 12 12 12 12 13 15 18 19 19 19 20 21 22 24 28 31 38
41 39 37 32 27 22 19 17 19 19 19 18 17 17 16 16 18 16 18 16 17 16 15 14 14 13 12 12 13 11 10 10 12 15 17 23 28 28 28 28 29 28 39
40 37 33 28 24 22 22 23 21 20 20 20 19 18 20 21 19 19 17 18 16 16 15 14 12 12 12 12 10 9 10 12 14 17 19 22 27 27 35 38 38 39 40
38 35 31 27 26 26 24 23 23 22 22 21 20 19 19 21 22 20 18 16 17 15 13 12 11 11 10 9 9 11 14 14 16 17 23 26 27 30 34 37 39 37 42
35 33 32 32 31 27 25 25 24 24 23 22 21 20 21 21 21 21 19 17 14 11 10 10 10 9 9 11 13 16 16 16 18 20 26 27 32 37 38 41 40 40 43
37 36 38 36 32 28 26 26 25 24 23 22 22 22 22 21 19 18 16 15 14 13 14 12 10 10 13 16 17 17 18 22 23 24 28 28 29 32 36 36 40 46 46
40 42 41 38 33 29 27 25 24 24 24 24 23 22 21 18 16 15 15 13 14 14 14 14 14 17 20 22 21 25 26 24 23 25 30 31 31 33 39 37 38 48 49
44 44 42 39 35 30 27 26 25 25 25 25 23 20 17 15 14 14 14 14 14 14 13 15 17 20 21 25 27 28 28 28 32 33 35 35 35 36 40 39 43 49 49
45 46 45 42 37 30 27 27 26 26 26 24 20 18 16 14 14 14 14 14 17 19 16 16 19 21 25 27 28 31 33 34 38 40 43 45 44 43 42 46 52 49 51
47 50 47 42 36 30 29 28 28 27 24 22 19 16 15 16 16 16 15 15 18 22 23 19 23 28 29 32 32 34 41 46 46 45 50 47 44 45 56 54 53 56 53
51 51 46 40 32 30 31 29 28 25 23 19 17 18 19 20 19 17 18 22 25 32 36 24 29 30 34 37 34 42 47 49 50 45 45 45 48 56 55 56 55 54 53
49 47 43 34 32 33 30 29 27 24 20 18 19 21 21 21 20 20 23 28 33 36 45 44 33 36 37 40 48 49 42 40 37 36 44 53 54 53 54 56 56 57 61
45 44 35 34 35 31 31 29 25 21 19 21 23 22 23 23 23 25 29 33 39 43 48 52 42 43 42 51 53 44 38 34 34 40 46 49 54 55 55 58 62 61 57
44 36 35 36 34 33 31 27 22 21 23 23 24 24 25 28 28 30 34 42 44 41 43 50 54 49 58 55 52 44 35 38 40 50 55 59 65 65 63 56 51 48 49
36 38 36 36 37 34 29 24 23 26 25 25 25 26 29 30 31 37 44 44 47 48 51 55 50 59 55 48 47 42 46 49 62 74 71 75 81 80 74 67 59 53 51
38 37 38 39 36 30 27 25 27 27 26 26 26 29 30 30 32 37 39 45 47 53 53 57 59 52 48 47 47 55 62 71 70 80 88 81 86 78 77 73 59 63 67
36 40 41 36 31 29 27 27 28 27 27 26 27 29 30 32 34 34 36 44 46 53 59 60 55 51 54 57 60 66 78 85 84 84 86 79 82 75 70 60 65 72 79
41 41 36 33 30 28 27 26 25 26 24 24 27 30 31 30 31 41 45 51 56 58 54 52 58 61 64 64 80 90 89 88 89 88 85 78 72 65 63 66 69 77 86
39 35 33 31 29 29 27 25 28 26 26 27 28 30 34 33 39 49 59 60 56 53 51 60 62 64 75 93 97 93 91 92 91 90 85 85 70 67 68 70 73 73 80
33 31 32 32 30 27 25 25 29 30 31 30 30 32 34 42 52 61 62 59 53 54 60 58 70 88 93 96 98 98 97 95 94 90 89 93 78 72 70 71 73 69 75

GFSMA_prec_cthk_003.txt.gz
RH
44 43 44 45 43 47 47 46 43 37 30 27 28 28 27 25 23 22 22 22 23 23 22 22 24 27 28 31 33 41 49 50 48 47 50 50 51 52 48 46 47 50 52
47 46 46 44 45 48 47 40 32 30 32 31 27 21 18 15 14 15 16 18 20 21 22 25 26 27 29 31 31 35 41 45 45 44 43 43 44 45 48 50 49 48 52
48 48 47 47 50 44 34 33 34 34 30 22 16 14 14 16 17 18 20 21 22 23 24 24 26 27 28 29 30 33 34 37 38 40 41 38 37 36 43 47 47 48 48
51 51 51 46 37 35 36 36 32 26 18 16 16 14 15 17 19 21 21 21 21 22 23 24 25 26 27 28 28 26 25 24 26 28 29 28 31 32 34 40 43 46 50
52 52 42 36 36 37 36 31 25 18 16 16 15 14 17 18 20 18 18 19 19 18 18 18 18 18 17 17 17 17 17 19 23 23 22 21 23 23 24 28 34 41 43
41 35 37 39 39 36 32 24 17 15 15 15 15 16 18 19 19 17 19 15 15 14 15 15 14 14 14 13 13 13 13 13 13 16 17 18 20 20 20 21 22 26 34
33 36 40 39 37 31 21 16 16 17 17 20 20 19 18 18 16 18 19 17 17 16 17 16 15 15 15 14 14 13 13 12 16 14 16 18 19 19 19 22 29 29 30
40 41 42 38 30 23 19 18 18 21 23 23 22 20 18 18 19 21 19 19 18 18 17 16 16 15 15 14 13 12 10 9 12 16 16 17 18 18 23 27 27 27 27
45 46 42 33 26 22 21 19 23 25 24 23 21 21 21 21 20 20 20 20 19 18 17 16 14 12 11 9 8 8 8 9 13 16 18 18 20 23 27 26 26 26 28
48 43 36 32 29 26 23 25 26 25 23 22 22 22 23 23 22 21 20 19 18 16 13 11 10 10 10 9 10 10 10 11 16 18 19 20 19 20 23 27 27 28 32
46 40 36 34 32 30 31 29 26 25 24 24 24 24 24 23 24 24 21 17 14 12 11 10 10 9 9 10 11 13 13 13 17 17 19 25 28 30 30 30 30 31 32
47 42 40 38 37 38 35 29 26 26 25 26 26 25 25 26 25 22 20 17 15 13 12 11 11 11 10 13 14 15 16 17 19 22 23 30 32 34 37 36 35 38 39
50 49 45 43 42 39 35 31 28 27 27 27 26 26 27 25 23 19 17 15 16 14 15 15 15 16 17 15 17 17 18 21 21 24 31 35 36 37 38 38 42 45 44
51 54 51 47 44 40 37 32 29 28 28 27 28 28 27 24 20 18 18 18 17 16 15 16 16 18 21 24 26 26 25 24 25 29 35 38 41 42 41 43 46 46 46
53 60 55 48 45 41 36 30 29 29 28 30 30 28 24 21 18 18 18 19 20 23 20 20 23 24 26 27 28 33 33 32 38 43 46 48 48 46 47 46 45 45 52
59 64 56 47 42 37 32 31 30 30 32 31 30 26 22 20 19 20 20 20 23 27 27 21 23 28 31 35 32 34 34 41 45 48 53 51 49 48 46 45 46 49 53
62 64 58 45 35 32 33 33 30 33 34 33 29 24 22 22 23 22 22 22 24 29 32 20 24 26 26 29 34 37 44 50 54 50 49 44 47 47 46 55 58 59 60
64 63 52 37 32 34 35 31 34 37 36 32 26 23 24 25 25 24 22 23 25 29 37 37 25 25 28 33 33 34 44 47 46 43 41 45 49 49 52 54 54 58 59
65 62 43 35 36 36 35 35 39 39 34 28 26 26 26 25 24 23 25 26 30 34 37 40 36 33 37 34 39 45 39 36 37 38 38 41 47 58 67 71 69 70 72
68 55 39 36 38 37 36 41 40 35 29 27 27 26 25 24 24 26 29 32 35 36 36 39 43 42 42 48 51 48 37 39 39 38 44 49 65 74 77 80 82 81 75
60 43 39 39 37 39 41 41 36 30 28 27 25 23 22 23 26 30 33 33 33 40 43 51 47 56 55 52 50 46 48 45 46 50 66 73 75 75 76 78 79 80 80
46 39 35 38 38 41 41 34 30 29 26 24 21 19 21 22 23 27 28 33 44 49 56 62 62 59 51 54 55 59 60 64 75 85 86 80 84 79 77 75 69 72 71
37 36 38 37 41 39 33 30 30 30 25 22 21 22 23 24 26 26 29 39 50 54 61 64 59 55 58 62 70 79 90 92 89 89 91 85 84 76 68 61 62 62 70
37 36 36 40 37 32 30 28 29 26 23 23 25 27 29 29 29 38 46 49 50 50 51 51 56 62 76 87 93 95 95 94 93 93 91 87 87 85 68 63 61 64 70
36 37 39 36 33 31 28 25 26 25 25 27 28 31 32 33 35 47 51 52 48 45 47 59 75 87 88 92 97 95 94 96 91 91 92 93 90 90 77 68 64 65 71
37 37 35 35 32 28 25 23 27 28 30 29 32 31 31 37 43 51 54 48 47 53 73 81 82 85 90 94 98 98 97 96 95 89 94 94 92 93 86 74 69 67 68

GFSMA_prec_cthk_006.txt.gz
RH
48 47 47 48 49 47 45 44 44 36 30 30 31 31 27 21 18 16 15 15 17 19 21 23 24 25 26 31 32 33 33 35 38 44 46 48 49 49 51 52 50 48 47
52 52 52 50 49 47 45 39 32 32 34 32 28 22 16 15 15 15 16 19 21 23 23 24 26 27 28 29 31 32 32 34 37 40 43 46 44 43 44 44 47 49 48
56 52 51 50 51 43 35 33 36 34 30 24 19 17 17 17 17 18 20 21 23 25 25 26 27 27 28 28 29 30 31 31 34 36 36 37 40 40 40 39 38 39 44
55 54 54 52 40 36 37 36 33 29 23 19 17 15 14 14 16 19 21 22 23 22 22 22 23 23 23 23 24 25 25 24 24 23 24 25 25 27 28 32 31 33 34
52 54 50 36 33 38 37 34 30 22 16 14 14 14 15 17 20 22 21 19 19 17 16 17 17 17 17 16 16 16 16 16 15 16 19 19 18 20 20 19 21 21 23
54 43 36 33 36 37 34 28 20 15 14 17 17 18 20 20 21 21 18 19 18 18 18 18 18 17 17 17 16 16 15 15 15 19 19 20 21 21 21 20 20 20 20
43 37 37 37 40 36 28 20 14 16 18 19 21 22 21 21 20 18 20 23 21 20 19 19 18 18 17 16 16 15 15 14 13 20 18 19 18 19 19 18 19 21 21
39 41 44 44 39 33 24 17 17 20 21 22 23 23 21 20 21 22 21 22 21 21 21 21 20 19 17 15 13 11 10 9 10 14 18 18 20 21 22 23 26 28 27
43 46 46 43 40 33 25 21 22 23 23 23 24 23 23 23 23 22 23 24 23 23 23 22 19 16 13 12 11 10 9 9 10 17 18 20 27 29 29 29 29 29 28
47 47 46 46 41 34 29 27 27 25 25 26 26 26 26 25 24 23 23 24 25 23 20 17 14 12 11 11 11 11 11 12 17 18 23 28 29 30 30 30 31 32 33
50 51 52 50 44 38 35 32 31 30 28 28 28 27 26 26 27 27 26 25 23 20 16 14 12 12 12 12 12 14 15 17 18 23 28 30 30 29 29 32 37 40 39
54 55 54 50 48 45 40 36 34 32 31 31 30 27 27 28 28 29 28 25 22 18 15 13 13 14 15 15 14 14 16 19 23 29 30 30 31 33 37 41 41 41 42
56 56 53 49 50 50 45 39 35 33 33 31 27 27 30 31 30 29 29 25 22 18 17 18 18 18 17 17 16 16 18 20 21 27 30 32 34 39 43 44 44 46 46
58 56 54 52 52 55 48 36 32 31 30 27 28 32 30 30 32 33 29 25 22 20 20 22 21 20 20 20 22 24 24 22 22 24 33 35 38 43 44 46 50 50 51
59 58 58 59 57 56 51 37 30 28 28 31 34 32 32 35 34 30 27 25 26 27 22 21 21 19 21 22 23 25 25 27 32 32 33 38 42 42 45 49 49 47 48
61 61 64 66 63 58 44 34 29 29 33 36 34 33 37 34 30 27 26 28 26 24 25 18 19 22 24 22 22 27 28 30 30 34 42 43 41 40 43 44 45 49 49
64 67 72 71 65 55 43 34 32 37 38 35 35 38 35 31 27 28 28 25 25 25 26 17 19 18 18 21 26 29 32 41 44 47 46 42 43 45 43 45 49 49 49
68 73 75 71 62 51 39 37 42 40 35 37 39 35 30 28 28 25 25 25 26 26 30 27 19 20 22 29 29 33 38 44 47 43 44 49 49 48 48 49 48 50 52
74 76 74 68 57 45 41 42 36 36 38 40 34 30 28 25 23 23 24 24 26 29 32 33 28 28 32 38 41 42 43 40 42 44 49 50 52 55 57 57 55 55 56
78 77 74 63 50 43 39 36 36 39 40 34 30 27 23 22 21 24 25 27 29 29 31 36 40 44 48 46 49 46 46 51 54 64 67 71 74 75 74 75 74 75 74
80 78 66 51 40 36 35 36 40 39 33 30 27 24 23 23 24 27 29 27 29 37 43 48 50 48 48 45 52 59 67 75 83 88 83 86 88 87 86 83 80 78 73
80 64 48 38 35 35 36 40 37 34 32 27 25 25 25 25 24 25 25 31 44 46 47 49 46 45 51 58 69 78 81 84 80 91 88 85 90 87 86 85 83 82 71
62 45 37 36 35 38 41 36 32 31 29 27 27 26 26 27 25 25 27 34 44 44 47 44 47 57 69 76 80 82 86 88 88 89 90 84 86 84 87 87 85 76 68
42 37 37 34 39 40 36 32 28 27 29 29 28 29 30 26 29 33 37 41 39 37 36 51 71 75 79 82 86 88 87 88 88 89 90 85 89 86 85 85 83 76 65
39 36 35 40 39 35 31 27 26 30 30 30 29 30 29 32 33 39 44 40 39 34 57 76 78 80 81 84 89 87 87 85 83 87 89 90 89 88 87 82 80 77 66
35 38 40 38 34 30 27 26 30 32 31 30 33 31 31 34 36 40 42 42 41 63 76 77 78 81 83 83 85 85 83 81 87 84 90 92 91 92 88 87 86 81 70

GFSMA_prec_cthk_009.txt.gz
RH
50 50 51 50 49 46 46 48 42 35 32 32 32 29 25 21 18 16 15 16 17 18 20 22 23 25 27 29 32 33 33 33 33 34 37 39 40 44 47 50 49 48 49
56 54 54 54 50 48 49 41 33 33 34 31 27 23 20 18 17 16 16 18 20 21 22 24 25 26 27 29 30 31 32 33 34 34 34 34 37 42 44 46 45 45 45
61 57 54 52 52 49 38 35 37 36 33 27 23 20 17 14 15 16 17 19 21 23 24 25 26 27 27 27 27 28 29 29 30 30 31 29 30 33 35 38 40 41 41
62 57 54 53 47 37 34 36 35 34 28 23 19 15 13 15 17 18 21 22 23 22 21 21 20 19 19 19 20 20 20 21 21 21 21 21 22 22 22 23 23 25 28
61 54 56 45 37 36 36 33 30 26 21 18 15 14 17 18 19 22 23 23 21 19 18 18 18 19 19 18 18 17 17 17 17 17 17 20 20 20 21 22 23 21 21
59 56 45 38 38 40 34 29 25 22 19 16 15 18 20 19 21 24 25 22 20 22 22 20 20 19 19 18 18 18 18 17 17 16 19 24 23 24 24 24 23 23 23
59 45 40 41 44 41 36 31 26 23 17 16 18 21 21 21 22 23 23 23 22 23 23 21 21 21 21 21 20 19 18 16 14 12 18 20 20 20 20 21 27 27 28
52 41 44 46 44 42 39 36 32 25 19 19 21 23 24 24 25 24 24 24 23 23 24 24 24 23 23 22 20 18 15 13 12 12 19 19 20 22 29 30 29 30 30
45 45 48 48 47 46 45 42 35 28 22 21 23 25 25 26 25 25 25 25 25 25 25 26 26 25 23 20 17 14 13 12 12 16 20 21 23 30 30 31 31 32 32
47 49 51 54 53 51 50 47 41 32 24 24 25 26 27 27 27 26 25 25 25 26 26 26 25 22 19 17 15 14 14 13 16 21 21 24 31 32 32 32 33 37 39
48 52 55 56 55 54 50 48 46 34 27 24 26 27 28 28 28 28 27 26 27 26 27 25 23 20 18 16 15 14 14 15 21 23 24 28 33 33 34 39 41 41 42
50 54 56 58 58 57 52 49 46 37 27 25 27 27 27 28 28 29 32 32 30 28 25 23 21 19 18 17 18 16 16 17 21 22 31 32 36 42 43 43 44 44 44
52 56 58 60 60 58 56 54 48 37 29 29 28 28 28 28 30 34 33 31 31 27 25 25 24 23 21 17 15 13 14 18 18 18 27 29 36 40 41 42 43 44 48
55 58 60 62 62 61 60 58 53 39 33 31 29 30 32 35 37 35 32 32 27 26 26 26 24 20 19 19 18 19 18 19 20 24 26 27 28 32 37 40 42 44 46
56 60 63 64 63 63 64 62 53 40 35 32 34 38 40 38 33 33 32 29 30 28 24 21 22 20 21 21 20 20 22 24 28 30 30 30 29 34 41 41 39 40 42
59 63 66 66 65 66 67 62 48 41 36 39 40 40 34 34 34 33 29 29 28 27 23 20 19 22 22 22 24 26 26 26 28 29 35 41 44 42 41 41 42 43 44
63 67 68 69 68 69 67 57 49 42 42 43 35 33 35 35 31 28 27 27 24 25 26 18 21 19 22 26 28 34 38 38 37 38 39 40 48 48 45 45 45 45 45
68 70 72 72 71 72 67 57 47 42 38 32 34 36 34 29 27 26 24 23 24 27 28 24 20 22 26 29 32 36 39 41 41 45 57 63 65 67 67 63 55 52 52
71 73 75 74 78 75 62 48 39 35 32 36 37 34 29 28 26 24 24 26 29 30 28 29 26 28 31 36 35 35 40 50 60 65 69 75 79 78 79 81 82 81 77
74 76 78 82 79 65 49 38 34 34 38 37 33 30 28 27 26 26 30 34 34 33 31 35 38 34 35 32 37 48 55 62 69 73 73 78 81 84 84 83 83 82 82
78 81 84 80 65 50 38 34 36 39 37 31 30 29 28 27 28 33 36 35 35 35 39 42 41 40 33 39 58 62 67 71 74 77 74 81 81 81 81 82 84 84 84
83 85 78 65 49 37 34 38 40 36 31 29 29 28 28 29 31 30 31 33 36 42 40 41 41 38 45 67 67 71 74 76 70 79 76 77 84 80 83 84 85 82 85
86 74 63 44 36 36 40 40 34 30 29 29 29 29 30 31 29 28 27 32 35 38 39 40 40 55 71 73 74 74 76 76 75 72 75 76 82 82 85 84 85 83 80
70 57 39 35 37 42 39 33 29 28 29 30 30 29 30 29 29 31 32 33 34 33 36 45 68 75 77 79 79 79 77 77 72 73 85 81 84 85 82 80 78 83 86
46 38 36 40 43 37 32 29 29 30 30 29 28 29 29 31 33 32 35 34 36 34 48 72 76 79 78 79 81 80 78 75 69 80 83 86 85 78 77 77 84 89 96
38 38 43 41 35 31 30 30 29 31 31 29 30 31 30 31 32 35 37 38 38 51 75 77 77 79 80 80 80 83 78 70 80 81 86 89 80 78 80 76 85 91 94

GFSMA_prec_cthk_012.txt.gz
RH
54 55 52 50 50 52 52 48 46 37 32 31 31 29 26 23 21 20 20 17 17 18 19 20 22 22 23 25 27 27 29 30 31 32 32 32 33 35 37 40 44 48 53
60 56 56 55 52 53 53 45 36 34 34 33 30 27 23 21 19 17 16 17 19 20 21 22 23 23 24 25 26 27 28 28 28 30 31 31 31 32 33 35 38 41 43
67 63 64 59 54 55 44 36 34 34 33 29 27 24 21 19 16 15 18 20 21 22 23 24 23 23 24 24 23 23 23 23 24 25 27 29 29 29 28 27 29 33 37
73 69 66 58 57 44 37 35 35 31 26 21 23 21 19 17 16 18 21 21 21 21 20 21 20 18 18 18 17 17 17 18 18 17 17 18 18 21 20 20 21 21 21
72 70 66 61 45 37 37 37 33 27 21 20 20 20 19 18 20 21 22 22 23 23 22 21 20 20 19 19 19 19 19 18 18 17 17 17 17 20 20 22 25 26 25
71 69 66 51 40 39 41 36 33 29 24 22 21 21 19 20 21 23 24 24 22 22 22 23 23 22 19 19 19 20 20 20 20 20 19 18 23 27 26 25 25 24 24
68 68 58 44 42 44 41 40 38 33 29 26 24 24 22 20 22 26 24 23 24 23 22 22 21 21 21 22 22 22 22 22 21 20 19 19 25 24 23 22 21 27 30
66 67 50 46 46 46 48 48 46 42 36 29 24 24 25 24 25 25 25 25 26 25 25 24 23 22 23 23 23 22 22 20 19 17 17 22 22 22 23 26 31 31 31
65 56 49 50 49 53 54 52 49 47 42 34 27 25 24 24 25 26 29 29 29 28 26 24 23 25 26 24 23 22 20 18 17 16 19 24 24 24 31 33 33 32 34
61 49 50 53 54 55 56 55 53 49 44 36 29 25 22 23 25 26 28 29 29 28 26 25 27 27 25 23 21 19 18 17 17 18 25 25 25 32 34 34 36 44 46
54 48 51 54 56 56 58 58 57 54 49 40 30 24 24 25 26 28 28 28 28 27 28 32 31 28 27 25 23 23 20 18 23 26 25 26 31 31 30 33 40 42 43
49 50 53 56 57 58 60 60 60 57 53 44 34 29 28 28 30 31 30 30 32 34 34 29 29 28 26 25 26 24 19 19 22 20 20 24 29 29 38 39 39 40 42
52 53 56 59 60 60 62 63 61 58 55 45 36 32 30 30 31 34 36 36 34 30 29 29 28 28 26 25 23 20 16 17 19 18 18 25 27 28 32 38 38 39 40
53 56 58 60 61 63 65 65 62 60 56 42 36 32 33 35 38 39 38 32 29 29 28 28 29 28 26 24 22 22 22 26 24 27 27 28 28 28 29 37 38 40 44
56 57 59 61 64 66 68 67 64 61 53 43 37 37 40 38 36 33 32 32 30 27 28 28 27 26 26 27 26 26 27 28 29 29 31 31 35 40 40 39 39 41 40
59 61 63 65 68 70 71 68 64 61 50 44 41 39 36 34 32 31 31 30 30 29 26 26 26 27 28 27 28 29 31 29 29 30 32 34 42 43 45 50 52 51 51
65 67 68 69 72 74 72 69 64 58 52 46 38 36 33 32 31 30 31 30 29 28 26 23 25 28 27 29 32 36 36 31 29 32 39 45 51 54 59 64 65 66 66
69 70 71 73 76 76 73 69 64 57 47 38 36 35 34 32 31 30 30 30 29 28 28 25 25 25 28 33 35 33 34 32 34 44 53 57 61 63 65 66 69 69 70
72 72 75 79 78 76 73 69 60 49 38 37 36 35 33 31 30 31 31 30 30 33 34 31 27 27 31 34 33 33 32 41 53 59 62 65 66 66 69 71 72 72 71
72 76 83 80 78 78 73 61 51 37 37 37 36 35 32 31 33 32 31 33 35 33 31 31 32 35 37 32 35 35 47 63 64 67 67 67 66 64 69 72 70 72 75
78 86 80 81 83 73 62 51 37 37 39 40 36 34 34 33 28 28 32 35 34 32 33 39 43 40 34 34 42 57 67 68 70 71 66 66 63 64 70 71 73 75 78
87 81 86 85 71 61 48 37 37 38 38 35 34 34 34 32 30 30 33 33 34 37 41 44 42 43 38 49 64 71 74 72 68 74 71 60 71 72 72 73 75 72 70
86 89 83 68 59 41 38 38 38 33 33 34 36 33 30 30 32 33 33 34 36 41 43 40 42 45 56 71 74 75 76 76 74 69 68 67 79 74 76 73 67 70 75
89 77 65 53 38 39 39 36 31 30 35 36 32 30 30 32 33 33 33 34 38 37 39 42 53 65 77 79 82 80 77 73 69 71 75 74 76 78 78 68 70 74 80
70 61 42 38 40 40 35 31 31 33 34 31 29 28 33 33 33 32 33 33 35 36 46 64 77 82 84 84 84 80 74 72 63 61 70 78 81 82 76 69 77 85 88
48 36 41 41 39 33 32 33 30 30 29 25 29 33 32 32 31 33 35 35 36 50 73 81 83 83 85 85 83 82 76 70 69 57 68 80 85 83 73 72 79 83 87

GFSMA_prec_cthk_015.txt.gz
RH
53 57 58 54 53 51 50 50 50 40 33 31 29 29 28 25 25 25 24 20 18 16 18 19 19 20 21 23 24 24 24 25 26 27 29 29 29 29 29 30 31 32 34
57 58 60 58 55 55 53 51 40 35 32 30 28 27 25 25 23 23 24 19 16 18 20 20 22 22 22 22 23 23 24 24 24 25 26 27 27 28 28 29 29 29 30
61 56 64 65 60 60 57 43 37 34 30 28 26 24 22 21 23 23 21 20 18 20 21 21 20 19 19 18 17 17 17 17 17 18 18 19 20 21 22 23 23 23 22
61 62 64 67 65 62 49 39 36 33 29 25 22 21 20 21 22 22 21 20 19 20 20 19 18 18 18 18 18 18 18 18 18 18 18 18 18 18 18 18 18 17 17
64 66 69 66 66 54 47 40 36 32 29 26 23 21 19 22 25 24 25 23 20 22 22 20 19 20 21 21 21 20 19 19 18 19 19 19 19 18 19 28 25 21 25
63 66 69 66 59 51 48 41 36 36 35 31 26 24 23 25 26 26 27 26 23 20 22 21 21 21 22 21 20 20 19 18 19 20 20 20 21 21 26 29 29 29 28
61 64 67 63 50 51 49 43 43 44 43 40 34 30 27 24 25 27 28 25 24 23 24 24 23 23 22 21 20 19 20 21 22 22 21 22 24 27 28 27 26 28 33
62 59 59 50 46 51 50 51 49 48 47 44 39 33 30 28 28 26 27 26 24 24 24 24 23 23 22 21 20 20 22 22 22 21 20 20 22 27 27 26 32 34 34
66 60 55 45 46 51 54 54 54 54 52 51 45 36 30 28 26 26 25 24 25 25 25 25 24 23 22 21 21 22 23 22 21 20 19 19 24 25 25 29 34 35 36
69 66 56 43 49 53 54 57 58 58 57 54 49 43 36 32 31 28 26 27 27 27 28 28 26 24 24 25 25 25 23 22 20 18 20 27 27 27 31 35 35 35 43
70 68 57 45 50 54 56 57 57 58 60 58 53 46 39 37 34 32 30 30 29 29 28 29 31 31 31 28 26 26 28 27 27 28 27 26 27 31 33 33 33 36 42
68 64 57 50 53 55 58 59 60 61 61 59 55 46 41 38 34 32 32 32 32 33 34 32 31 27 26 27 27 26 27 27 26 26 25 30 34 34 33 34 41 42 41
67 64 51 54 58 59 59 60 61 62 63 60 55 46 44 38 36 35 34 34 33 32 29 28 27 28 27 26 27 25 23 25 24 24 24 30 30 29 29 31 39 40 39
66 61 54 57 59 60 60 61 63 66 66 63 56 48 44 39 36 36 36 34 32 30 29 28 27 27 28 26 25 26 25 23 21 21 23 27 28 28 28 29 35 38 39
67 61 58 60 60 61 63 66 68 69 69 64 55 47 44 40 39 36 35 34 34 31 28 28 28 29 28 27 27 26 22 21 26 26 27 28 28 28 32 34 35 38 41
66 59 61 63 64 69 71 72 72 73 70 63 52 49 45 39 37 35 34 32 29 30 30 29 28 28 29 29 26 26 26 28 27 27 29 30 34 35 37 40 45 48 52
64 64 65 69 71 73 75 75 76 75 68 57 55 52 41 37 36 33 29 30 32 31 30 28 29 29 28 26 27 28 29 25 25 27 29 34 39 42 47 53 56 58 60
66 66 68 71 74 78 76 80 80 73 63 60 55 44 39 38 32 31 32 32 31 31 32 32 30 28 29 26 30 33 31 29 27 31 40 46 51 56 59 61 63 64 62
67 69 71 75 76 75 84 85 77 68 61 57 45 41 36 34 34 33 33 32 32 31 32 31 30 27 26 31 37 33 29 31 37 46 51 55 62 60 61 64 61 60 64
70 73 76 78 76 84 88 80 72 62 56 45 40 37 37 35 35 34 32 30 30 30 31 29 28 26 34 40 37 34 34 42 52 59 63 62 64 60 63 59 63 67 70
74 78 79 81 85 90 83 72 61 54 42 38 38 36 36 36 34 32 31 32 33 32 30 28 30 34 35 33 36 43 50 58 65 72 64 63 66 60 57 65 68 69 73
79 78 82 84 89 84 70 60 51 39 34 36 36 35 35 33 30 30 34 33 32 32 32 36 41 39 34 40 52 61 68 71 69 73 69 60 67 60 62 68 70 76 73
78 80 83 89 83 66 59 46 37 35 34 35 36 35 32 28 28 32 33 32 29 31 36 36 38 42 52 63 69 72 77 77 73 67 69 58 61 57 62 70 75 74 69
80 84 89 77 63 54 40 36 35 34 34 36 34 31 27 29 31 33 29 29 29 30 32 36 50 65 71 75 79 80 79 72 66 64 73 64 56 53 60 73 74 67 68
91 84 68 59 44 38 37 35 34 33 33 32 29 25 28 31 31 30 32 31 30 30 37 62 71 75 78 78 77 74 68 67 61 58 67 66 59 60 62 71 73 67 74
72 62 45 40 39 38 36 35 33 30 30 26 24 24 29 31 30 31 33 32 30 45 63 66 68 68 69 70 73 75 76 72 69 60 67 64 62 69 62 76 73 68 71

GFSMA_prec_cthk_018.txt.gz
RH
51 51 50 50 53 53 52 50 49 43 35 33 31 28 25 24 24 25 24 23 22 22 20 18 19 20 21 20 21 21 21 22 22 22 22 23 23 24 26 27 28 28 28
57 55 53 54 50 53 55 52 47 40 35 32 29 27 24 23 22 22 22 22 22 22 20 20 19 20 20 19 19 18 16 15 15 15 16 17 19 21 22 23 24 26 26
67 58 58 57 57 55 58 54 46 42 36 31 28 25 23 22 21 21 20 22 22 22 21 20 18 17 18 18 17 16 16 16 16 16 16 16 17 17 17 18 18 18 19
62 59 59 60 61 60 58 50 47 44 38 31 27 24 22 22 23 22 22 24 25 24 23 23 21 18 19 20 20 19 18 18 18 19 19 19 18 17 17 18 19 19 18
63 58 59 62 62 61 52 49 45 45 41 34 30 28 26 24 24 24 25 25 25 25 25 23 23 21 20 21 21 20 19 20 20 19 19 18 18 19 20 20 26 30 29
59 58 58 60 61 55 49 48 44 46 46 42 35 34 32 30 29 27 26 26 25 25 25 24 24 22 23 23 22 21 20 20 19 18 18 18 20 22 23 23 30 30 30
60 61 59 60 57 45 45 45 44 47 49 46 41 38 37 35 33 31 30 29 26 26 25 25 23 22 23 22 21 20 19 19 18 17 18 19 21 23 30 30 29 28 31
61 63 64 64 56 44 41 41 44 47 52 51 49 46 43 40 38 35 30 27 26 26 25 25 24 24 23 22 21 20 20 18 18 19 21 24 25 29 29 29 27 27 33
65 68 68 67 56 46 42 43 47 50 53 54 54 52 47 43 39 36 35 32 31 30 28 27 27 26 24 23 22 21 22 23 24 24 24 28 29 29 28 26 28 33 35
69 68 69 66 60 50 46 47 48 52 55 56 55 53 48 45 41 39 37 33 30 30 30 29 29 27 26 26 26 26 25 25 24 28 30 30 29 28 32 36 36 36 36
69 71 73 68 63 51 53 52 51 53 55 56 56 53 50 47 43 40 37 35 34 33 31 30 29 29 27 26 25 24 25 25 25 28 29 29 32 38 37 37 37 37 37
70 73 72 67 64 51 53 55 57 60 60 60 58 54 52 48 45 40 37 35 34 32 31 30 27 27 26 27 29 29 28 28 29 29 30 35 37 37 38 41 42 44 43
71 74 71 71 65 53 57 59 60 61 62 61 59 59 57 53 49 44 39 37 34 31 30 29 27 27 28 28 27 27 26 28 27 27 30 35 35 34 33 37 40 41 40
71 71 73 74 60 56 61 61 61 62 63 66 68 66 62 55 49 43 40 37 33 32 29 29 27 26 28 28 27 27 26 24 25 23 26 30 30 29 29 32 38 39 40
69 73 73 71 58 60 61 60 63 67 71 72 71 68 62 53 46 42 41 38 35 33 31 28 28 28 26 24 23 22 22 20 20 21 24 27 27 28 28 30 36 38 38
74 72 70 67 58 60 63 66 70 74 76 74 70 66 58 48 46 44 39 35 32 30 29 29 28 27 27 25 21 21 20 21 21 21 21 28 28 30 32 38 41 40 40
76 70 73 64 60 66 69 73 75 77 76 73 70 64 51 51 47 39 35 30 29 33 32 29 27 27 27 25 23 22 22 24 23 20 26 31 34 38 42 46 47 48 52
72 75 71 64 68 72 75 76 79 78 76 75 70 54 54 47 39 34 30 33 34 33 31 28 27 27 25 22 21 24 27 26 22 23 35 39 44 49 52 55 58 60 60
74 73 70 68 72 76 77 81 85 80 76 71 58 56 47 39 32 32 35 34 32 28 27 28 26 24 22 23 25 27 24 24 30 36 41 47 52 56 60 65 63 62 60
74 74 70 71 75 78 83 87 87 78 71 62 57 45 36 34 36 37 35 31 29 28 30 30 28 26 26 28 31 29 28 39 44 50 53 58 61 58 62 63 62 61 60
78 73 72 75 80 84 86 89 78 72 64 55 40 31 35 38 36 34 33 32 34 34 31 31 29 29 31 29 36 45 50 51 56 61 61 60 59 58 57 57 57 58 61
79 72 78 87 84 86 84 78 73 63 50 35 31 35 36 34 30 29 28 33 33 32 30 30 32 32 32 46 55 57 58 61 57 69 62 55 61 56 56 55 55 60 60
79 86 87 84 85 85 80 71 58 42 31 34 36 36 34 29 26 26 28 30 28 27 31 33 31 40 50 59 61 61 61 61 58 54 57 50 53 53 56 53 56 56 62
85 81 82 85 86 77 62 48 34 33 35 35 34 31 28 26 25 28 29 29 28 27 26 30 46 55 61 62 62 61 60 58 54 56 61 59 53 51 50 51 57 55 62
81 90 92 80 65 50 36 34 35 37 34 30 27 25 23 25 27 30 30 28 28 27 30 47 58 60 59 61 62 61 60 59 53 55 65 64 56 54 51 49 57 60 66
92 81 64 49 37 34 35 38 37 33 27 23 21 21 22 23 24 30 30 31 30 29 48 56 55 56 56 58 62 65 64 63 63 58 71 66 62 65 51 50 59 63 64

GFSMA_prec_cthk_021.txt.gz
RH
53 52 54 53 48 48 47 46 51 50 41 36 33 29 27 26 26 25 23 23 22 23 23 25 24 23 21 20 20 20 20 19 17 16 17 17 18 19 21 23 25 26 27
60 58 55 62 54 50 49 49 50 45 41 37 35 31 27 25 25 23 23 22 21 21 21 23 23 21 20 17 16 18 17 17 17 15 15 15 15 15 15 16 17 20 22
57 58 55 57 54 50 52 53 47 43 40 37 35 33 28 26 25 24 23 23 22 21 23 23 23 23 22 21 21 20 19 20 19 18 17 16 16 16 16 16 16 16 18
61 61 60 61 56 54 55 54 45 43 40 37 36 36 33 28 26 25 25 25 24 24 25 25 24 23 23 22 22 22 21 21 21 20 18 17 17 17 18 18 17 17 25
63 62 63 62 57 55 55 47 44 42 41 39 37 40 39 32 30 30 29 29 27 26 25 24 24 24 24 25 25 24 22 22 22 21 19 19 18 18 18 18 19 21 28
59 60 60 58 59 58 56 46 43 40 40 40 37 39 41 39 34 34 33 32 33 31 29 26 25 25 25 25 24 22 21 21 21 19 18 18 20 22 22 22 23 26 29
57 58 58 58 61 61 55 49 45 42 40 39 40 41 44 45 43 43 41 40 37 34 31 28 26 25 25 25 23 22 22 22 21 20 19 21 23 25 26 27 30 32 32
58 61 61 60 61 65 55 51 49 46 42 42 44 45 46 47 46 45 43 42 39 36 33 32 30 29 27 26 25 25 23 22 20 20 21 27 29 30 33 33 32 32 32
56 59 61 62 64 66 55 52 52 50 47 46 47 48 48 47 46 44 43 41 39 36 34 33 30 28 27 27 26 25 24 23 24 28 31 31 31 31 31 34 38 39 38
58 61 62 66 65 64 59 55 53 52 52 52 52 52 52 50 48 45 43 40 39 37 34 32 30 30 29 29 27 25 24 23 24 30 31 32 32 33 36 38 38 39 39
60 63 65 68 63 66 66 57 54 54 53 54 57 58 56 52 49 47 46 45 44 40 36 34 32 30 28 25 24 25 26 26 29 30 29 29 30 35 39 39 39 39 39
62 67 69 71 69 69 67 59 56 56 55 58 60 59 57 55 53 50 49 49 46 41 37 35 32 27 25 25 26 28 28 28 30 30 31 35 38 38 39 43 43 44 44
65 71 73 74 72 68 69 61 58 57 59 62 62 61 62 62 58 54 52 48 43 38 37 35 30 27 26 27 28 27 26 26 27 28 27 31 34 33 33 38 39 40 40
66 74 76 76 74 71 68 66 59 62 62 63 65 69 69 67 62 57 52 47 41 38 35 33 30 29 28 27 26 25 24 22 20 22 21 26 30 29 28 28 34 36 38
69 76 80 78 72 72 76 65 64 64 63 66 71 74 72 67 61 56 52 47 42 36 33 31 30 28 27 26 24 23 22 19 20 19 20 27 28 28 27 28 33 38 39
76 79 81 78 72 74 74 65 65 65 68 70 74 76 71 65 60 56 51 44 39 34 32 30 29 29 26 22 21 20 19 16 16 17 22 26 24 28 30 32 38 37 37
81 79 88 78 85 73 77 67 66 71 72 74 76 76 70 64 59 54 49 40 34 33 32 32 29 25 23 21 17 17 16 17 17 15 20 22 29 34 35 39 40 43 48
79 81 86 80 77 80 72 69 71 74 76 79 79 75 70 62 56 52 40 34 33 36 34 29 26 24 21 19 18 19 19 18 17 19 26 32 37 43 44 48 54 55 58
88 86 85 81 78 77 71 73 76 78 83 82 77 73 66 61 51 38 34 36 37 33 29 27 25 23 20 17 20 20 19 21 26 33 38 40 44 47 52 54 56 59 60
87 86 89 84 80 77 74 77 81 87 85 79 73 66 61 46 36 35 39 37 33 29 28 29 27 23 21 21 23 22 24 33 36 44 46 48 52 51 51 51 53 54 54
92 88 86 81 79 77 78 85 88 87 81 77 70 57 40 33 38 39 35 32 30 29 30 30 27 26 27 24 25 34 39 41 43 47 45 47 47 45 46 47 49 52 54
85 84 85 82 79 81 87 89 85 82 78 68 48 34 34 38 35 30 29 28 29 30 32 30 30 30 24 29 39 45 46 47 42 48 44 43 46 42 45 48 49 54 58
84 84 88 86 89 88 89 83 81 75 57 37 33 37 37 32 29 26 26 27 26 28 30 31 29 26 34 46 49 49 51 50 48 46 45 40 43 41 46 47 53 54 55
95 94 92 90 89 84 84 79 62 40 33 36 37 32 27 26 24 25 26 29 29 28 27 25 27 39 50 53 54 53 51 52 51 52 56 49 50 48 49 50 54 56 59
94 88 85 85 84 79 60 38 33 35 39 35 27 24 23 23 21 23 30 29 26 24 24 27 44 53 52 54 56 56 58 59 55 58 70 64 60 57 56 57 57 58 61
83 85 84 73 52 38 34 34 39 39 31 26 23 22 21 21 21 28 30 30 27 24 28 46 50 50 52 54 59 66 69 69 70 64 76 71 68 68 55 59 64 63 62

GFSMA_prec_cthk_024.txt.gz
RH
49 54 55 55 53 52 54 45 45 48 45 41 38 32 31 29 27 25 26 26 25 25 25 24 24 24 24 24 22 18 17 16 16 17 17 16 15 15 16 18 20 22 23
50 51 54 61 61 53 53 49 48 49 44 40 38 33 31 31 30 27 26 26 25 25 24 24 24 22 22 22 20 19 19 18 19 19 20 19 18 17 16 15 15 15 17
54 51 51 55 58 57 56 54 51 47 43 40 38 34 32 32 34 32 29 27 26 25 25 25 25 25 24 23 23 23 22 22 22 22 21 20 20 19 18 17 17 16 16
56 54 51 54 61 62 58 56 52 46 41 39 37 34 35 34 35 37 33 29 28 28 27 27 25 24 24 24 24 24 24 24 24 24 22 22 21 20 19 18 18 20 20
56 58 57 59 61 61 59 58 55 47 45 40 38 35 34 33 34 39 39 34 31 31 30 31 31 30 29 27 25 25 25 24 24 24 23 21 21 21 20 20 22 25 26
58 59 59 59 59 58 58 59 53 50 49 46 42 37 34 34 36 40 43 43 42 42 39 37 35 33 31 28 28 27 25 24 24 23 21 21 24 25 25 25 26 26 27
57 57 58 61 63 61 62 59 52 53 51 48 46 41 38 37 39 42 44 45 46 46 43 40 38 34 32 30 30 29 28 27 25 27 24 26 30 29 29 28 28 29 28
60 58 55 59 61 61 62 61 54 53 52 51 49 46 44 42 41 42 42 44 44 44 42 40 37 35 33 31 30 29 27 25 24 25 29 31 32 31 31 31 32 36 37
63 62 62 58 60 64 64 62 53 54 55 54 52 50 48 47 48 48 47 46 45 43 42 40 37 34 31 30 28 27 26 26 25 28 32 31 30 30 31 34 37 40 40
66 62 59 59 61 63 64 63 58 58 57 56 54 55 54 53 52 50 49 47 45 45 44 42 40 37 34 32 31 28 27 26 27 29 29 31 32 34 38 40 39 39 39
66 68 68 65 66 66 63 61 64 60 58 57 56 58 58 59 58 55 52 51 50 49 48 45 42 38 33 31 28 27 26 25 28 31 32 32 33 36 39 38 38 38 38
61 68 69 68 72 72 69 67 68 63 60 57 58 58 60 61 58 56 57 57 56 56 52 50 44 37 33 30 27 26 26 27 27 29 31 30 32 35 39 38 37 37 35
59 66 68 71 74 78 75 71 69 66 63 59 60 61 62 60 60 60 59 55 53 50 51 51 44 36 30 27 28 28 28 26 25 25 29 29 31 31 33 33 32 32 37
60 68 74 76 80 82 78 73 74 65 69 63 62 64 62 63 64 63 61 56 52 49 50 49 41 33 32 31 29 27 25 24 22 24 25 24 23 25 31 30 29 28 32
70 75 78 75 80 81 80 78 70 68 80 65 65 64 66 67 67 65 62 60 56 51 45 42 36 33 31 30 29 27 25 22 19 19 20 21 20 25 28 28 28 29 31
77 76 75 76 82 80 79 84 73 79 80 70 67 67 70 72 71 68 65 63 58 51 43 35 33 32 31 30 27 24 21 18 17 16 17 19 19 23 28 29 30 30 33
77 78 77 77 83 85 85 76 76 81 72 72 70 72 74 76 74 73 69 64 55 47 38 34 33 33 30 25 21 18 16 16 15 13 18 20 22 29 30 32 36 39 41
78 75 76 85 87 82 94 82 92 71 74 73 75 79 79 79 80 75 68 57 48 38 35 35 36 30 26 22 20 18 16 13 13 15 18 26 29 32 35 38 41 47 47
73 76 85 86 84 84 88 80 79 74 77 76 78 79 85 82 77 68 60 46 37 36 39 36 31 27 24 20 19 16 15 14 17 22 27 31 34 36 42 44 46 45 45
79 86 82 83 97 84 82 79 78 80 77 80 81 87 82 77 67 55 41 35 39 40 34 29 27 25 22 19 18 19 17 21 26 33 35 35 36 38 40 38 37 37 37
81 82 84 99 86 88 86 88 80 82 80 86 87 82 74 64 47 35 37 41 37 31 27 27 27 24 22 21 20 21 27 32 34 36 36 37 37 36 37 37 38 39 39
84 91 96 86 87 82 81 91 85 83 88 85 78 71 56 35 33 39 37 32 29 28 28 29 29 27 24 22 23 32 39 39 35 40 39 37 41 39 41 43 43 43 43
97 92 94 96 90 89 90 94 90 87 79 74 61 38 32 37 37 30 27 24 24 23 26 31 29 26 24 26 39 41 41 43 41 42 47 42 50 46 51 51 53 53 51
93 93 97 97 98 98 95 87 80 73 57 38 32 36 38 31 26 23 22 22 22 24 26 25 24 23 31 44 47 47 46 45 45 52 62 49 54 53 55 57 62 64 61
98 97 98 99 94 87 84 69 51 36 32 36 39 33 28 23 20 22 23 28 26 24 22 22 23 37 46 47 49 49 50 54 53 57 72 63 60 60 60 60 69 73 70
98 96 91 87 79 59 39 35 32 36 39 34 29 24 20 18 22 25 31 31 26 22 22 24 40 44 46 50 53 57 62 65 68 61 76 71 68 74 59 63 70 74 73

GFSMA_prec_cthk_027.txt.gz
RH
47 49 50 52 55 54 57 56 50 48 46 42 39 36 33 31 28 28 29 27 26 27 27 26 26 26 24 24 22 21 21 21 19 17 16 16 17 18 17 17 17 18 20
47 52 54 53 52 54 60 58 51 51 51 42 38 36 33 31 30 29 31 31 29 28 28 27 26 25 24 24 22 22 22 21 21 21 20 20 20 20 20 19 18 17 16
48 53 56 54 55 56 60 60 55 57 52 43 39 36 33 31 30 31 31 33 33 32 29 27 27 26 24 24 24 24 24 24 24 24 24 24 23 22 21 21 20 20 18
54 60 59 56 60 58 60 62 60 60 52 46 44 40 38 35 32 30 31 32 35 36 33 29 29 29 30 30 30 30 30 28 26 25 25 25 25 24 24 23 22 22 21
60 63 62 59 59 62 65 62 59 58 51 48 47 45 43 39 35 33 33 34 36 39 40 40 37 36 37 36 35 34 31 29 28 28 26 23 23 23 24 23 22 24 25
55 58 61 61 63 64 63 61 60 59 51 50 50 47 44 42 40 39 38 37 38 41 43 42 41 40 39 38 36 34 32 31 30 31 30 28 26 29 30 30 29 29 29
56 58 61 59 60 62 63 62 61 58 50 51 50 48 47 46 44 44 45 43 42 42 41 41 40 40 39 37 35 33 30 29 29 30 33 33 33 35 34 32 32 32 31
50 53 57 58 60 60 59 58 58 55 51 49 48 48 48 48 47 48 48 47 48 48 46 44 42 41 39 38 35 33 31 28 26 27 30 31 31 31 31 33 33 34 34
59 57 58 60 65 65 63 58 60 58 52 50 50 50 51 50 50 52 51 50 51 49 47 46 44 43 42 40 39 37 34 31 29 31 33 33 32 33 35 36 38 40 41
67 68 66 66 70 67 66 63 61 59 55 53 54 54 53 53 55 54 54 54 53 51 50 50 49 47 44 41 39 36 33 30 28 33 33 33 34 37 39 42 41 41 40
70 70 72 73 73 73 71 74 66 60 61 59 58 56 55 54 56 58 57 57 55 55 56 55 51 46 42 41 39 34 30 27 26 26 31 33 33 34 36 40 41 41 41
65 65 68 66 72 76 75 81 74 65 62 66 63 59 57 56 58 59 61 60 59 60 60 57 52 49 46 43 39 33 29 27 26 27 31 34 33 33 37 38 37 38 37
64 62 63 66 67 78 76 80 82 73 70 70 67 65 61 58 59 60 62 61 61 62 64 65 61 55 50 44 38 31 28 28 27 26 28 33 32 30 28 29 33 35 35
58 63 65 70 72 78 81 80 90 81 75 72 72 67 67 65 62 62 63 63 62 61 62 66 63 57 50 42 36 32 29 28 26 24 22 22 25 27 25 28 32 32 30
68 63 68 71 74 79 83 86 91 80 75 78 75 71 77 77 68 66 66 66 64 62 61 64 60 54 46 39 34 31 30 29 26 22 20 19 23 23 21 23 26 29 29
64 66 65 74 81 83 87 86 82 89 79 79 79 76 81 81 75 70 70 70 71 67 61 58 54 47 38 35 32 31 29 25 22 19 17 14 20 21 22 26 29 30 30
56 65 73 80 84 86 85 78 76 81 81 94 90 82 80 75 76 74 75 75 72 66 61 55 47 39 35 33 31 27 23 20 16 14 13 15 21 22 26 29 33 36 37
63 72 82 86 87 81 80 80 83 82 88 90 87 94 85 82 81 79 76 74 70 64 58 46 39 35 37 32 28 24 19 15 13 13 14 18 25 28 31 32 36 38 40
75 87 89 85 82 84 79 80 86 96 88 88 86 84 79 81 81 80 76 72 66 58 44 38 39 38 32 26 22 19 16 13 14 17 20 24 27 30 35 36 38 38 37
81 90 90 89 84 80 76 84 94 95 89 92 86 85 84 83 81 76 72 63 50 39 38 40 34 30 27 21 20 19 16 15 19 22 26 29 31 33 35 34 32 31 31
86 97 87 86 78 80 85 87 92 93 91 93 88 88 85 79 78 70 55 42 37 41 36 31 29 25 22 22 22 19 19 22 25 29 30 31 33 34 35 36 38 38 38
84 97 89 88 77 87 94 97 98 98 92 86 91 87 80 72 62 45 35 38 38 32 30 28 26 26 25 22 21 21 28 33 31 34 35 32 38 38 42 44 46 47 48
86 88 93 82 89 96 96 99 95 94 97 88 84 75 63 45 34 35 36 30 26 24 26 27 26 25 23 19 24 32 38 37 39 39 42 37 47 46 51 53 58 58 57
97 95 91 92 99 98 98 98 98 92 84 73 61 46 33 36 36 30 26 27 27 25 25 23 22 19 21 28 39 39 40 41 42 47 58 47 51 51 54 55 61 64 69
96 96 98 98 98 97 99 96 83 71 59 39 33 36 38 30 25 23 29 29 27 23 22 19 18 21 34 38 40 43 45 47 46 50 61 63 58 57 58 55 60 68 75
99 98 98 99 97 90 76 64 47 36 34 37 37 30 25 23 24 29 29 28 25 21 19 18 21 33 36 41 46 49 52 53 58 55 63 64 64 71 58 58 63 71 75

GFSMA_prec_cthk_030.txt.gz
RH
46 48 51 53 53 50 51 53 54 56 53 50 45 38 34 30 28 27 27 28 29 32 30 27 26 27 27 25 24 23 22 22 21 21 22 20 18 17 17 18 18 18 19
45 45 49 53 55 52 50 53 55 55 52 52 48 40 37 33 30 28 27 27 27 29 32 30 28 29 28 26 25 24 24 25 25 25 24 23 23 23 21 20 19 19 20
46 44 47 52 54 53 53 57 58 57 57 56 48 42 40 37 36 34 32 29 28 29 30 32 32 32 29 28 28 29 29 29 29 29 28 27 25 25 26 27 25 23 21
43 44 47 52 56 57 56 59 59 59 60 56 47 44 42 41 40 37 35 33 31 31 32 32 35 37 38 36 35 36 37 36 35 33 31 28 27 27 25 24 24 24 24
46 47 50 57 61 59 60 63 63 61 60 54 47 46 44 44 41 38 37 36 36 36 35 34 35 37 39 40 40 39 38 37 36 35 33 31 30 30 31 33 33 30 29
52 52 57 61 60 59 62 65 65 60 59 54 48 45 45 43 40 41 41 41 40 40 41 40 37 37 37 37 37 36 35 34 33 32 30 29 28 31 36 37 37 36 35
57 56 58 66 62 62 62 64 64 60 57 52 48 46 44 42 41 41 42 44 45 45 44 43 42 41 40 40 39 37 35 34 33 32 31 31 31 32 33 32 33 34 34
66 65 60 57 62 62 62 61 62 60 56 50 48 47 44 44 44 44 44 47 48 49 48 47 47 45 45 44 44 42 40 39 37 33 33 34 36 35 35 34 35 34 36
68 68 65 60 57 59 61 63 67 67 62 53 48 46 46 46 47 48 47 48 50 50 51 50 49 48 49 49 45 42 39 38 36 34 35 37 35 34 35 39 41 43 43
61 68 70 70 71 67 69 70 71 71 65 59 52 51 50 50 50 52 50 50 51 51 51 51 51 51 51 50 46 44 42 39 35 32 33 35 34 33 34 38 42 43 42
58 71 81 82 81 82 82 80 80 76 74 67 64 58 55 55 56 56 53 54 54 54 55 54 53 53 52 50 48 46 44 40 35 31 28 31 34 34 35 38 42 44 44
57 63 65 74 77 79 81 84 86 83 79 80 70 70 65 61 61 60 58 57 58 58 58 58 57 56 54 53 52 48 44 42 37 32 30 30 36 36 35 36 36 37 36
61 67 67 69 70 72 76 79 82 83 84 79 79 76 76 70 68 66 65 62 62 62 63 62 61 59 58 58 54 48 46 40 35 31 29 28 33 35 34 32 31 32 38
53 62 68 75 74 70 71 78 80 85 87 83 86 88 84 75 69 70 67 71 71 68 67 68 68 67 64 61 55 50 44 37 34 31 28 26 24 25 29 29 27 27 31
56 58 63 74 80 70 72 77 80 87 89 86 86 91 85 75 72 74 75 80 78 69 67 75 72 71 66 60 55 46 40 35 32 28 26 24 22 21 24 24 23 25 26
47 56 60 67 77 97 77 82 83 85 87 86 83 88 81 89 86 83 87 84 76 74 71 71 72 69 62 57 48 40 34 30 28 25 22 18 18 23 22 22 25 27 29
38 48 54 61 75 85 88 83 86 86 84 87 82 83 82 88 83 92 83 81 80 76 73 71 66 62 55 45 37 33 29 27 23 18 15 14 17 23 24 25 26 30 32
42 46 56 64 70 78 84 84 84 86 84 92 79 87 93 93 89 92 89 89 85 76 70 65 62 54 42 37 32 30 27 21 17 15 16 18 19 20 23 26 29 30 32
53 49 55 62 67 73 77 81 86 89 88 83 97 79 97 94 89 87 85 85 78 75 67 60 50 41 35 33 31 25 22 17 16 16 18 20 21 23 25 28 32 32 32
61 62 62 67 76 78 82 84 84 85 96 88 87 97 95 95 95 94 90 87 78 69 59 49 38 35 35 29 26 23 21 18 18 18 21 24 25 26 28 29 30 31 32
66 67 71 74 77 82 85 87 92 96 90 86 87 97 95 95 98 90 78 69 62 53 43 36 35 35 30 26 24 23 21 20 20 23 23 24 26 29 33 36 39 42 43
76 75 79 79 82 81 90 88 95 92 88 90 97 98 98 94 84 74 65 56 46 36 35 35 32 30 27 25 25 23 24 27 27 26 26 29 34 35 39 42 47 49 53
79 77 85 83 82 87 91 93 96 95 93 98 98 95 87 77 67 56 44 36 33 30 29 31 30 28 28 25 24 26 29 30 31 33 34 31 38 39 44 46 50 54 57
93 84 85 84 83 88 98 98 97 92 97 95 84 77 66 55 45 36 33 30 30 28 28 28 26 26 25 25 28 31 31 34 36 38 42 38 43 41 42 44 51 55 60
90 93 96 91 87 94 98 94 95 93 82 69 60 51 38 37 34 26 30 32 30 29 28 27 24 23 22 25 30 33 37 39 38 40 49 51 49 47 45 44 48 51 56
95 95 98 98 98 96 96 86 73 58 44 35 36 36 29 25 24 27 30 30 30 26 23 20 18 19 27 32 38 42 44 46 46 47 57 62 60 63 56 59 56 59 60

GFSMA_prec_cthk_033.txt.gz
RH
49 49 46 45 47 48 48 47 48 51 51 53 52 45 39 34 30 28 28 27 28 27 25 25 27 26 26 24 25 25 24 24 24 24 24 23 23 23 20 19 18 18 18
48 49 48 45 47 48 49 49 49 51 52 52 53 47 42 37 34 32 32 31 30 28 28 27 28 28 29 28 26 28 27 26 26 26 27 28 27 27 26 24 23 25 22
47 48 47 45 46 48 49 51 52 53 54 54 55 49 43 39 37 36 35 33 33 32 31 30 29 30 30 33 34 34 34 34 34 34 34 33 31 29 27 26 26 26 25
47 47 46 45 46 49 50 53 55 56 56 56 55 48 42 40 39 38 36 34 34 34 32 32 32 31 32 33 35 38 39 40 39 38 37 36 35 34 33 31 29 27 26
51 46 45 45 48 52 54 55 56 57 58 60 56 47 43 41 39 38 35 33 33 34 34 35 35 36 35 35 35 35 36 36 37 36 35 34 32 31 32 33 32 32 33
58 54 48 50 51 55 60 59 57 58 61 61 55 48 44 41 40 38 35 35 35 36 37 38 40 40 39 39 38 37 37 36 35 34 33 32 31 29 31 34 34 32 32
59 60 58 58 57 62 67 61 60 62 62 59 55 48 44 41 39 38 36 36 39 40 39 41 42 43 43 43 42 41 40 38 38 36 35 35 35 37 36 35 34 33 33
58 63 65 65 66 70 66 67 65 64 63 60 56 50 43 43 41 39 39 39 41 43 43 43 43 44 44 43 42 42 43 41 40 38 36 36 38 39 36 34 33 35 38
55 61 64 71 74 75 69 65 63 62 63 63 61 56 49 44 43 43 43 43 44 46 46 46 47 47 47 47 45 44 44 44 43 42 40 39 41 40 36 35 34 36 40
51 59 60 66 75 80 76 68 67 63 65 67 66 62 56 54 51 50 49 48 48 50 50 50 50 50 50 50 48 47 46 46 45 44 41 39 40 40 37 36 37 41 43
49 56 61 62 65 73 79 78 78 79 83 79 76 73 67 64 63 60 58 57 55 55 54 53 52 53 53 52 50 49 49 49 48 45 40 37 35 38 37 36 37 38 40
44 52 63 64 65 69 84 86 88 90 90 90 91 86 78 76 71 67 65 67 65 62 59 58 57 57 57 55 52 53 53 51 49 43 38 34 33 39 37 36 34 33 33
44 46 54 61 65 69 74 80 85 87 88 90 90 86 82 76 74 76 76 73 71 68 66 65 63 62 63 60 57 55 54 51 47 41 37 33 30 28 28 30 32 31 31
41 54 57 58 64 72 78 78 81 88 88 88 89 86 85 83 80 83 82 80 74 71 72 71 74 70 70 66 61 58 54 50 44 40 35 30 27 24 22 22 24 28 26
32 40 50 58 63 70 80 87 86 88 90 90 86 84 86 86 82 94 84 87 78 79 85 82 81 81 74 70 66 61 54 48 43 37 32 28 24 22 21 22 25 24 23
34 38 45 53 61 67 72 81 90 95 90 92 89 85 84 87 88 87 85 86 81 90 85 88 85 83 79 73 66 58 51 45 40 34 26 23 21 19 20 24 24 25 24
42 42 45 49 54 64 71 75 82 92 86 95 92 84 83 86 87 91 90 94 90 88 91 90 90 87 80 72 64 56 47 42 34 26 23 20 17 19 24 24 24 24 24
56 52 54 52 54 60 61 70 82 87 90 96 87 84 84 96 86 94 95 93 88 95 95 92 87 79 73 66 58 49 42 31 27 23 18 17 19 19 19 19 21 25 26
63 62 63 60 57 61 69 66 71 78 88 87 85 85 93 90 92 94 94 97 97 98 95 91 80 71 63 54 47 38 30 28 22 18 18 20 21 21 22 21 23 24 23
73 63 65 66 64 65 68 71 74 78 77 75 82 83 87 90 97 96 94 97 98 94 85 79 71 64 53 42 35 31 29 23 20 19 23 23 23 23 23 23 25 25 26
77 71 66 67 69 71 76 75 70 71 76 82 92 86 92 96 98 99 92 92 89 83 76 68 57 47 40 35 36 30 27 23 22 24 24 24 25 27 27 29 31 32 33
79 75 75 74 75 77 76 75 77 84 89 90 88 91 95 98 96 95 89 85 78 67 57 52 43 38 38 31 28 26 26 29 29 27 27 29 30 30 31 35 38 36 35
84 85 84 83 78 82 83 81 94 93 94 99 95 93 97 97 88 83 76 67 52 43 38 39 38 33 31 28 26 27 28 30 30 29 31 31 32 31 37 41 44 43 42
87 94 97 89 86 89 96 97 85 88 97 94 94 96 88 80 69 55 45 39 32 28 27 27 28 27 25 24 26 27 30 33 33 35 37 34 35 36 41 49 50 50 51
80 89 96 98 98 92 79 90 87 90 98 92 84 66 50 43 36 30 24 23 24 26 25 23 20 19 20 20 24 29 32 36 38 41 42 40 36 41 48 54 55 55 56
93 96 92 98 97 98 98 92 85 77 62 47 41 39 31 24 22 20 26 25 24 21 17 15 15 15 17 25 32 35 40 43 45 43 43 42 43 50 51 55 58 61 64

GFSMA_prec_cthk_036.txt.gz
RH
49 51 53 50 48 45 46 44 47 47 47 48 50 49 48 41 37 39 39 34 36 33 30 26 25 26 26 25 24 24 23 24 25 25 25 25 25 25 25 25 24 22 21
47 50 52 53 52 50 44 45 47 47 48 49 50 51 47 43 40 39 41 34 33 29 30 30 29 29 28 29 28 28 30 29 30 31 30 30 29 28 27 27 27 26 26
52 52 52 50 53 52 49 47 45 46 49 51 53 54 49 45 40 36 37 41 32 30 30 30 29 29 30 30 30 31 32 34 34 34 35 35 35 34 34 33 32 30 28
55 56 55 52 53 52 48 48 46 46 50 53 55 56 52 47 40 37 36 35 34 32 30 30 30 30 30 31 32 32 33 34 35 35 35 36 35 34 34 33 32 31 30
59 58 60 56 52 50 47 48 49 51 53 56 57 58 55 47 40 38 37 35 33 31 32 32 32 33 33 34 35 36 36 36 35 34 33 33 32 31 30 30 29 29 30
53 56 55 57 59 51 46 48 54 55 56 58 58 59 55 46 41 39 38 35 33 32 32 34 35 35 36 36 37 38 38 38 37 36 36 35 34 33 32 34 38 36 35
52 52 57 59 59 57 55 55 59 60 62 61 62 61 55 48 43 40 38 35 35 34 34 35 37 38 38 38 38 38 38 37 36 38 38 37 36 36 37 39 37 35 33
48 53 53 57 62 61 63 64 67 67 62 65 68 62 55 50 45 43 41 38 36 36 37 38 39 41 41 41 41 41 42 40 39 39 39 38 39 42 44 42 39 37 35
43 47 49 53 60 66 66 69 72 71 72 70 66 64 56 53 51 50 47 43 42 42 42 42 42 44 45 45 45 45 45 44 42 42 42 40 40 42 45 42 40 38 37
43 45 47 55 55 60 63 70 78 80 77 71 69 66 63 58 55 54 53 52 51 51 51 50 50 49 49 49 49 48 48 47 46 45 44 43 41 44 44 42 40 37 37
37 45 51 59 63 62 63 66 74 81 81 78 75 76 78 75 71 70 68 66 62 61 58 57 59 59 56 54 53 52 51 51 50 49 48 46 43 44 43 41 39 36 35
32 35 40 47 56 63 63 67 72 76 82 82 84 87 89 90 85 80 81 77 75 68 66 65 68 65 60 58 57 56 54 58 58 54 51 46 43 42 40 37 38 36 34
33 36 41 43 45 52 61 70 73 77 84 89 91 94 95 96 92 87 80 76 75 74 73 73 74 71 68 65 61 61 63 65 64 59 53 50 43 37 33 30 31 34 33
32 28 33 41 48 55 57 66 71 77 84 89 92 92 94 93 92 85 84 82 79 79 78 76 76 79 74 71 71 71 70 72 65 60 58 50 43 38 33 30 26 22 24
38 37 32 35 44 53 59 65 66 74 82 88 89 91 92 91 89 87 83 79 82 81 83 87 84 81 77 77 79 77 75 69 65 61 56 51 42 37 33 28 22 21 25
42 43 44 44 44 49 59 62 66 74 81 90 95 96 92 92 90 87 85 83 91 88 90 86 83 82 91 90 88 89 83 75 69 63 54 47 40 36 30 26 28 28 26
49 50 51 50 51 56 58 64 68 72 79 84 91 94 99 95 96 91 89 90 86 88 89 93 95 93 95 97 96 88 82 77 70 63 52 42 36 30 26 27 25 26 28
62 62 58 60 60 58 59 66 68 69 75 83 88 89 90 87 84 91 91 84 90 93 93 92 98 97 97 97 93 82 75 68 63 50 41 33 27 25 24 22 22 22 27
73 68 66 67 65 63 65 68 72 75 72 71 75 79 88 82 83 97 89 84 89 95 98 98 98 98 92 86 84 78 73 62 47 38 30 27 25 24 23 22 22 22 23
77 81 79 73 69 69 73 74 76 77 78 76 76 77 85 89 88 84 82 87 87 90 94 96 95 90 87 82 76 67 55 49 45 33 27 25 24 24 25 25 22 21 21
76 78 73 80 82 83 85 84 82 79 84 89 83 79 93 91 80 83 94 95 91 97 97 93 89 85 80 72 57 50 44 39 31 22 23 28 29 27 26 24 23 23 24
76 79 86 88 87 86 88 86 86 81 79 86 83 78 77 81 90 96 96 90 94 92 87 82 75 62 50 46 40 34 29 26 25 21 29 31 31 29 27 26 27 28 29
77 82 84 84 88 87 90 87 89 87 84 86 90 97 98 93 97 97 96 87 83 73 59 50 43 34 30 27 26 24 25 26 27 28 31 29 31 30 31 31 32 33 34
71 79 89 89 90 93 98 91 91 90 93 95 98 97 88 94 90 82 69 52 40 32 24 22 24 25 25 24 24 26 23 24 28 31 36 35 37 37 37 36 36 39 42
70 82 95 96 93 93 95 96 98 98 97 94 85 81 76 65 47 38 30 23 19 21 23 21 19 16 14 14 15 20 24 31 34 40 43 44 42 41 40 37 40 46 50
90 89 94 98 97 98 98 98 96 93 85 72 53 46 40 32 26 20 20 22 21 19 18 14 18 15 11 13 20 27 33 39 46 47 46 45 46 46 40 39 45 51 54

GFSMA_prec_cthk_039.txt.gz
RH
55 52 50 47 48 49 47 44 42 43 44 45 46 47 45 45 44 46 44 39 39 38 35 27 25 25 25 25 25 24 24 23 23 23 22 23 24 24 25 26 26 26 26
55 55 57 53 48 50 50 49 46 42 42 44 46 48 49 47 47 46 45 37 38 37 33 27 26 26 25 24 25 26 27 28 28 29 30 29 30 32 32 32 31 29 28
53 55 58 56 54 54 53 51 51 46 42 43 45 48 50 52 49 47 46 41 35 33 31 29 28 27 27 28 27 27 28 30 30 31 31 32 33 33 33 33 33 32 32
56 59 59 57 56 57 58 55 52 48 44 44 45 47 52 54 52 49 46 42 39 34 32 30 29 29 29 29 30 31 31 32 32 32 32 31 31 30 30 29 29 27 26
57 60 61 62 62 63 62 61 55 50 47 46 47 49 52 55 53 51 46 41 40 38 34 30 29 30 31 31 32 33 34 34 35 35 34 33 32 32 32 31 30 30 30
49 53 58 62 61 60 62 64 63 57 52 49 50 51 53 56 55 51 46 42 39 36 33 31 31 31 32 33 34 34 35 36 36 36 35 34 33 33 33 32 33 36 37
49 48 52 54 56 58 56 60 60 58 59 57 55 56 56 59 56 52 47 44 41 37 33 33 32 33 34 36 37 37 37 38 37 37 37 36 36 36 37 39 43 41 40
45 49 47 51 54 55 59 60 61 61 62 65 65 65 62 61 62 55 50 46 44 44 40 37 36 38 39 40 41 41 41 42 41 41 40 39 38 38 41 44 45 44 42
42 48 49 50 53 56 56 60 64 63 64 69 74 72 70 67 63 56 53 50 48 48 47 44 43 45 46 47 48 48 46 46 46 44 43 42 41 40 41 42 46 46 43
36 45 50 50 52 53 54 52 59 69 72 74 79 78 78 75 71 63 58 54 54 55 53 53 53 53 54 53 54 54 56 53 51 49 47 45 43 42 43 46 49 48 45
31 36 45 48 49 52 56 59 62 63 69 73 76 79 84 83 80 74 69 68 70 70 68 68 68 64 62 60 59 62 60 59 56 53 51 50 47 49 51 52 52 49 45
38 36 37 45 47 49 54 58 64 65 70 75 76 77 81 84 83 83 81 80 80 81 79 77 76 73 69 67 65 67 68 64 62 58 57 55 53 53 54 49 46 44 43
44 40 41 46 46 49 52 55 60 59 62 71 77 77 79 82 86 92 94 87 87 83 82 81 76 74 73 76 70 71 71 71 69 66 69 68 63 63 59 53 47 42 42
48 49 44 40 41 45 50 58 57 59 61 65 74 76 82 88 89 89 93 96 88 84 80 83 81 82 82 81 77 82 80 75 72 77 75 74 71 65 61 53 49 45 38
41 44 50 46 42 44 46 50 57 60 60 67 71 79 82 87 92 96 96 94 89 83 89 88 84 83 87 84 88 78 79 77 78 87 85 80 76 70 64 55 52 44 41
38 45 46 49 50 55 56 57 58 62 65 66 69 73 80 86 95 96 91 90 93 92 89 88 88 91 88 82 82 87 87 90 94 92 90 85 79 72 63 56 50 45 38
38 43 52 56 65 65 66 69 68 68 73 75 74 76 79 86 91 99 98 93 93 97 95 91 96 90 87 86 96 96 95 95 94 89 82 79 78 74 64 54 43 36 34
41 41 47 54 65 76 73 73 74 70 75 80 85 85 87 88 91 92 90 98 94 97 90 92 94 95 90 96 97 95 92 91 83 83 80 79 71 60 51 44 40 35 32
41 46 53 64 75 80 80 78 78 78 78 76 84 90 94 92 91 90 90 92 90 92 91 96 93 92 97 92 91 92 92 85 79 76 68 62 53 44 36 32 31 29 28
47 52 60 64 73 87 82 83 80 82 83 77 79 85 92 94 92 86 79 80 85 92 95 93 93 87 96 94 90 86 81 76 69 58 44 36 31 27 24 23 23 23 23
52 57 67 73 77 80 78 77 81 83 80 84 87 87 90 92 89 85 94 85 85 92 87 89 97 96 92 80 73 71 63 51 39 30 23 20 22 22 21 22 21 21 20
51 57 66 71 73 82 88 88 90 94 94 93 94 93 91 92 95 98 92 80 93 87 97 91 86 79 72 62 51 40 34 26 22 17 20 18 19 18 19 20 22 23 24
51 52 60 71 74 77 83 90 93 94 97 97 95 93 89 86 97 87 85 96 95 85 75 64 56 46 36 31 26 24 21 19 16 11 18 17 20 22 24 26 27 28 28
56 60 66 71 79 82 87 91 95 95 98 94 95 94 92 91 97 95 88 76 64 47 32 26 24 22 22 22 20 18 16 15 14 20 28 27 29 30 31 31 32 32 32
71 72 75 81 86 92 91 90 93 96 95 97 97 98 93 86 71 56 39 29 28 27 27 22 18 15 13 11 10 11 11 16 23 28 34 38 36 35 33 35 38 39 38
78 79 80 82 85 90 94 96 97 96 89 82 75 62 49 41 32 26 19 21 22 21 20 16 14 16 14 10 11 16 26 29 36 40 40 41 40 42 40 41 43 42 38

GFSMA_prec_cthk_042.txt.gz
RH
45 47 45 47 45 43 42 43 41 41 40 37 38 41 42 43 43 42 43 40 39 35 35 33 27 24 23 22 22 21 21 21 22 24 24 23 24 23 23 25 26 27 27
46 48 48 47 51 50 50 49 46 43 41 40 39 38 41 42 44 45 45 43 41 36 35 33 28 25 24 23 23 24 24 25 24 27 28 28 29 30 30 29 29 31 32
47 47 47 48 52 55 54 53 53 51 46 43 42 42 41 43 43 45 46 45 42 38 34 32 29 27 25 25 26 26 27 27 28 28 28 28 28 29 29 29 29 29 29
44 49 50 50 52 55 57 59 57 55 54 50 47 43 42 44 45 47 47 47 45 41 35 33 30 29 27 28 29 30 30 30 31 32 31 31 31 31 30 30 29 29 28
42 47 49 53 54 57 61 65 63 61 59 57 57 52 47 45 46 48 49 48 46 43 38 35 32 30 29 29 30 31 32 33 34 35 34 34 33 33 32 31 31 31 32
39 41 47 52 50 53 54 56 59 61 60 59 59 57 57 54 50 51 51 51 49 44 40 38 34 30 30 31 31 33 34 36 37 37 37 35 34 34 34 35 35 35 36
49 40 41 46 51 50 52 54 57 56 57 58 59 57 58 61 61 58 56 56 55 47 42 41 38 34 33 33 34 36 38 38 40 40 40 39 38 37 36 36 38 41 44
44 45 47 43 47 55 57 59 56 58 59 57 57 61 60 62 66 68 63 63 61 56 48 45 43 40 40 38 38 41 44 45 46 45 44 43 42 41 40 40 40 44 48
41 45 49 46 47 50 54 62 62 61 66 70 66 65 66 66 69 72 73 73 70 63 56 50 48 44 44 46 45 48 50 51 52 53 53 51 48 46 46 44 44 45 49
24 31 44 50 53 53 54 60 64 66 69 68 70 68 71 70 76 76 76 77 76 72 68 66 58 58 58 59 54 58 61 62 60 59 59 57 56 52 50 50 49 51 53
30 29 30 36 49 57 56 58 61 59 63 69 69 68 72 75 78 79 79 79 78 77 76 73 69 67 68 72 68 69 72 71 67 67 67 66 61 60 59 56 54 51 49
35 34 35 38 40 46 50 54 62 60 59 65 69 75 73 78 80 80 83 83 82 82 82 80 81 79 79 79 77 77 75 75 74 74 73 71 68 70 70 64 63 63 58
44 40 45 49 48 47 49 54 55 61 64 62 64 66 72 76 82 88 90 88 89 88 88 87 89 89 84 84 80 78 80 79 82 80 79 76 77 74 68 68 68 66 64
42 50 49 55 59 58 55 57 61 65 66 66 65 65 66 73 77 78 89 93 92 93 93 91 90 87 86 83 83 84 88 84 84 83 82 77 79 81 81 74 74 70 64
34 40 45 46 45 48 52 55 59 59 65 65 71 71 71 73 81 84 85 92 96 96 94 87 89 90 90 90 94 92 90 87 86 80 81 86 90 89 86 81 77 70 66
31 33 36 40 47 52 55 57 62 66 73 81 85 83 81 79 82 88 91 95 97 98 94 96 96 96 97 98 95 93 95 90 87 86 93 97 96 85 81 78 76 70 64
37 38 38 39 41 43 46 53 61 68 77 83 91 94 92 88 90 92 93 92 92 93 94 96 99 98 98 96 94 95 92 87 87 86 86 90 81 78 76 75 69 64 58
35 34 33 32 35 41 49 59 64 71 78 78 81 88 90 92 94 96 98 98 94 93 94 96 96 98 95 96 93 96 97 92 88 92 93 83 75 69 68 67 60 56 51
35 36 35 34 35 43 52 58 63 75 87 85 88 89 92 93 91 95 98 99 99 98 97 95 98 94 92 97 96 98 90 89 88 87 85 72 64 55 49 45 40 36 34
39 39 40 40 41 47 52 59 65 70 74 85 90 90 93 93 92 91 95 98 99 96 96 93 90 87 87 86 94 91 89 80 77 75 62 53 43 34 27 25 23 23 21
42 41 43 44 44 49 56 60 66 73 77 82 84 85 84 92 91 91 93 95 97 95 93 96 94 93 92 95 89 81 75 64 52 34 28 20 17 16 15 17 18 18 17
44 43 44 45 47 50 58 60 67 75 79 83 84 89 97 92 96 94 95 92 95 94 95 90 94 94 82 73 62 45 33 27 20 14 14 10 12 12 14 16 18 18 21
47 47 47 48 53 61 64 69 71 81 88 94 93 92 94 97 91 92 92 91 89 96 91 86 74 64 43 34 27 21 20 17 12 11 13 9 16 16 19 21 23 25 26
55 58 60 62 65 69 75 80 84 83 86 95 96 98 98 98 98 98 97 91 84 74 64 47 33 24 20 19 17 16 13 10 10 11 19 18 23 24 26 28 29 29 30
61 61 64 67 70 72 75 78 83 88 90 90 93 96 94 86 72 55 48 40 36 34 29 22 18 15 13 11 11 11 10 11 15 21 25 28 28 28 29 31 33 36 37
55 56 56 53 50 46 43 42 41 39 42 45 48 43 39 33 27 23 20 17 19 19 18 17 15 12 12 11 11 14 18 23 27 30 33 34 35 36 36 39 40 39 39

GFSMA_prec_cthk_045.txt.gz
RH
37 40 42 42 42 42 42 43 43 42 41 38 37 36 38 38 36 36 39 42 41 39 36 32 29 27 25 23 21 20 20 20 20 20 21 22 25 25 26 26 25 26 27
40 41 43 45 46 47 46 46 49 49 45 45 46 41 39 40 39 37 39 41 43 42 39 35 31 28 26 25 23 22 22 23 24 24 24 25 26 27 28 29 30 31 30
39 40 42 44 46 48 50 50 51 53 54 54 50 50 50 45 42 40 39 41 43 44 43 39 34 30 28 27 26 26 26 26 27 27 28 28 28 28 28 27 28 28 27
36 38 42 42 43 45 50 54 53 56 58 58 57 55 54 53 53 50 44 41 44 46 46 42 37 32 30 29 27 28 28 29 30 30 31 31 31 31 30 30 29 28 29
35 37 40 41 43 47 50 54 55 56 57 59 60 58 56 54 56 55 55 51 46 49 49 46 41 36 33 31 29 29 31 30 31 33 34 33 33 33 33 32 31 31 31
40 41 43 43 42 42 45 49 52 54 54 57 58 56 54 55 56 55 55 57 56 53 55 53 47 41 38 35 33 30 31 33 34 35 37 38 38 37 37 36 35 34 36
47 46 43 45 49 46 47 51 54 56 58 62 64 60 55 53 51 54 57 59 60 63 61 59 56 48 43 41 38 36 36 37 37 39 41 43 43 42 41 41 40 39 38
42 45 45 48 49 52 53 54 53 55 58 65 71 76 68 61 60 62 60 63 65 66 69 69 65 58 52 47 45 43 45 46 42 46 47 50 51 50 48 46 45 44 43
28 33 41 45 55 55 52 55 59 63 68 71 72 79 78 71 68 68 68 66 69 73 74 79 79 73 65 57 53 51 52 51 53 54 54 56 57 57 56 56 53 51 49
24 27 30 35 38 43 49 53 56 55 69 71 74 76 78 75 73 71 71 71 75 76 80 81 81 77 76 74 69 65 60 62 64 64 62 65 66 65 65 65 64 61 58
32 33 35 35 38 40 44 46 51 61 61 68 70 74 76 79 76 80 81 79 79 80 85 86 85 80 78 78 76 73 70 74 78 74 76 78 73 72 74 73 71 66 66
24 28 29 33 33 41 46 51 54 60 65 66 62 64 69 75 75 79 82 86 88 89 90 90 89 86 82 78 80 78 79 82 86 79 87 81 76 78 77 75 74 70 69
28 32 33 39 52 55 52 62 60 58 64 68 69 70 84 81 86 82 80 81 85 88 91 95 94 91 88 82 81 85 90 87 86 86 80 81 82 87 81 82 79 78 76
32 35 38 34 39 46 45 53 57 57 58 63 69 76 85 89 90 93 94 91 85 83 83 84 89 91 90 87 88 94 87 89 87 87 92 92 95 88 86 82 85 86 84
29 29 35 39 39 41 44 45 53 53 53 53 57 66 72 79 88 92 90 97 95 90 89 86 85 87 94 94 95 96 96 97 98 97 96 97 96 90 90 88 89 88 83
29 30 31 33 36 36 37 39 39 42 44 48 52 60 70 81 88 94 91 96 96 94 86 84 96 96 93 97 98 99 97 98 98 98 97 97 98 93 88 85 79 76 76
31 34 35 34 33 34 36 36 37 40 46 49 52 59 64 74 82 83 85 92 99 99 93 87 91 91 92 93 98 98 96 98 93 97 97 97 96 92 85 83 80 79 71
36 33 31 29 28 29 32 36 40 43 46 48 51 58 67 75 84 83 85 89 94 99 96 93 93 98 90 89 93 98 99 97 94 93 95 95 93 89 82 83 76 70 60
37 34 33 33 32 32 33 35 40 43 47 54 61 65 69 77 86 88 91 92 95 95 98 96 94 95 98 99 98 95 92 88 87 90 92 93 88 79 73 62 55 52 48
37 38 38 37 36 37 39 39 44 46 49 56 64 71 77 82 85 83 87 96 90 95 97 97 95 98 98 96 94 93 94 92 96 93 84 74 60 45 34 27 25 21 18
43 42 39 38 37 39 40 43 48 51 53 61 67 75 77 79 88 93 87 90 97 93 92 94 96 96 94 89 90 95 96 87 79 58 37 24 16 14 13 12 13 13 13
47 45 43 42 41 42 45 49 54 59 63 66 74 78 84 87 92 90 95 96 87 90 93 91 92 95 92 94 92 82 62 37 21 21 22 13 15 10 11 11 13 14 16
47 46 45 46 48 52 55 59 63 66 68 71 76 81 84 86 93 93 97 97 96 93 93 92 91 89 78 65 50 34 26 21 19 14 13 8 12 13 16 18 20 22 24
53 54 54 55 54 54 53 53 57 63 70 72 73 80 85 90 92 90 89 89 83 70 57 45 38 36 33 28 22 18 15 14 13 12 13 14 19 22 25 26 26 27 28
53 50 49 47 42 39 37 35 33 32 31 33 33 31 30 27 23 20 18 16 16 16 17 19 19 17 17 17 19 16 13 13 13 18 23 25 27 28 29 29 30 32 34
45 36 30 28 26 24 23 21 19 17 16 15 14 13 12 12 13 13 13 14 16 19 22 23 22 20 16 15 16 14 14 21 26 28 29 31 32 33 34 35 37 37 38

GFSMA_prec_cthk_048.txt.gz
RH
36 36 38 38 39 40 40 39 40 40 42 44 44 44 45 45 42 37 37 39 41 42 41 40 37 33 28 28 26 23 21 21 20 21 21 21 21 23 24 25 26 26 26
35 37 38 40 42 41 41 43 44 45 47 48 48 48 50 49 48 49 46 41 41 43 44 44 42 39 31 29 28 26 25 24 23 23 24 25 24 25 26 26 26 27 28
33 32 34 36 40 44 46 45 45 45 47 50 52 52 51 52 53 53 54 53 52 47 44 46 46 43 37 31 30 29 28 27 27 28 27 29 29 29 29 28 27 27 27
32 31 31 31 35 40 43 44 46 49 49 51 55 59 54 52 54 54 54 54 57 59 55 49 49 48 44 37 33 32 31 30 30 30 31 32 32 32 32 32 31 30 30
34 33 34 34 36 39 42 43 43 46 48 49 53 57 58 56 53 50 51 53 54 56 58 60 56 54 51 45 39 36 34 33 32 33 33 34 35 35 35 35 34 33 33
48 45 43 45 50 50 46 44 48 50 51 52 56 57 56 58 57 54 51 51 52 55 58 62 65 64 58 53 46 41 39 37 36 34 36 37 37 38 39 40 39 38 37
50 54 48 45 47 48 47 51 53 54 56 59 63 62 63 65 64 63 63 61 58 61 60 63 68 71 72 65 57 51 45 42 42 41 41 41 42 43 43 43 44 43 43
41 39 41 42 41 46 44 48 55 63 65 66 70 73 74 73 72 74 74 73 72 70 69 71 71 73 74 75 72 64 55 51 48 47 48 50 50 47 48 50 52 51 50
28 33 36 35 32 33 36 37 45 56 56 65 72 77 74 72 73 74 75 75 76 76 75 75 79 81 82 85 81 76 71 66 60 55 54 56 58 56 55 57 57 58 60
22 23 26 29 31 35 37 38 39 45 54 59 66 70 72 75 76 72 74 78 79 77 78 80 82 85 88 90 89 82 77 76 73 68 67 70 70 73 67 65 66 70 71
21 23 26 29 40 45 42 41 41 49 54 60 65 68 87 79 77 78 70 75 81 84 84 84 86 88 91 92 88 86 82 77 77 73 73 74 81 85 82 81 82 81 81
17 19 21 25 25 32 37 42 43 47 54 61 66 71 70 67 77 81 77 81 85 81 84 80 88 94 93 94 92 92 87 83 77 77 80 82 90 92 90 93 93 90 87
18 19 22 23 25 30 38 49 53 59 58 59 64 63 63 63 69 75 76 80 91 96 97 87 84 85 92 94 97 95 92 89 83 80 84 94 96 93 93 91 91 93 90
24 25 26 31 35 38 39 40 43 48 48 49 52 53 54 53 54 57 63 71 81 84 90 98 99 95 88 90 92 95 97 95 92 92 95 97 96 96 97 97 98 96 95
30 30 29 29 32 37 39 38 38 44 45 46 44 43 44 47 50 57 59 63 75 81 82 88 91 98 94 92 91 89 93 94 98 96 98 98 98 98 98 98 98 97 98
26 26 28 28 29 32 35 36 37 39 39 39 38 40 38 44 49 53 59 65 76 87 91 84 88 91 95 95 94 93 95 96 98 98 98 98 98 97 98 98 98 97 96
28 28 30 32 33 32 31 32 32 31 31 33 34 37 41 46 48 54 61 68 77 87 88 85 82 91 96 96 93 91 97 98 98 98 98 98 96 96 97 97 95 95 93
36 36 35 33 32 30 29 29 30 31 33 38 40 42 46 51 55 58 62 71 79 84 89 94 89 94 98 96 99 97 96 98 99 97 97 97 94 91 90 91 90 89 87
42 39 37 35 34 34 33 32 32 33 35 39 41 45 50 54 56 61 67 73 77 79 93 99 98 93 97 98 98 98 98 98 98 98 95 94 95 93 93 90 87 76 67
40 39 37 37 37 35 34 34 34 38 41 45 47 49 53 56 59 62 70 76 85 82 92 94 93 97 97 98 97 98 98 97 97 94 91 94 87 81 74 59 45 30 24
40 38 40 40 38 36 36 37 40 45 48 51 54 54 60 63 66 69 73 79 84 86 89 93 87 91 90 93 94 95 95 95 93 93 87 77 59 32 21 20 18 18 15
42 43 44 43 42 42 42 46 50 52 54 56 57 61 64 66 70 73 77 82 85 88 93 91 88 89 86 89 89 92 94 90 85 59 41 29 23 14 11 11 11 12 12
47 47 48 48 49 49 49 48 48 49 52 54 52 54 64 67 67 68 65 63 68 77 83 86 84 82 77 67 63 60 50 41 30 25 22 10 11 8 12 14 16 17 19
51 51 50 48 46 41 37 36 36 35 30 27 26 26 28 30 32 31 30 28 25 22 20 19 18 18 18 18 18 17 17 17 16 16 15 10 12 16 19 21 22 23 24
49 46 41 34 30 26 24 21 19 17 15 14 13 13 12 12 12 12 13 13 14 16 18 19 18 20 20 20 19 18 18 19 16 14 16 18 21 22 24 24 25 26 28
36 29 27 25 24 23 21 19 17 15 15 15 15 15 15 16 16 17 16 17 17 18 19 21 22 22 22 20 17 17 17 15 16 21 24 25 27 28 27 28 30 32 34

GFSMA_prec_cthk_051.txt.gz
RH
33 34 33 34 36 38 39 37 37 39 41 43 43 45 46 47 48 48 50 50 51 50 47 43 41 40 39 34 29 28 27 26 24 22 22 22 22 23 23 24 26 26 27
34 36 36 37 39 41 43 44 44 41 41 42 43 46 46 45 47 49 48 53 52 54 55 55 51 44 42 41 35 30 30 29 28 27 26 25 25 25 25 26 26 27 27
33 33 33 34 36 37 40 41 42 42 43 45 46 48 50 51 47 50 50 52 56 55 57 59 62 59 51 47 43 37 32 32 32 31 29 29 30 29 30 29 29 28 28
35 33 31 30 32 34 35 37 40 42 44 47 50 52 54 55 56 57 54 55 54 53 56 58 61 62 62 57 50 46 39 36 35 34 34 33 33 34 33 32 32 32 31
34 33 32 31 37 40 40 43 44 46 45 45 48 51 53 54 57 57 55 55 56 56 57 58 58 61 63 66 64 58 49 42 40 39 38 37 36 37 37 36 36 34 35
37 37 39 47 45 47 45 44 45 46 45 46 49 51 55 57 58 59 63 67 67 65 64 64 65 65 65 67 69 71 67 54 43 41 42 41 40 38 38 39 39 40 38
42 53 46 53 56 50 45 48 46 44 44 48 54 60 67 65 67 66 69 71 74 78 76 74 75 77 77 76 76 72 75 73 62 49 47 46 46 44 44 42 42 43 45
37 39 45 48 46 44 46 44 42 42 41 47 60 67 66 65 67 69 70 72 73 77 82 82 82 82 83 85 86 82 78 77 77 69 58 56 53 50 50 51 52 53 51
28 32 37 35 37 36 34 32 33 35 39 41 43 61 65 60 63 66 67 66 70 77 77 81 82 82 85 88 91 92 89 84 81 78 73 71 69 66 64 60 68 69 63
23 24 24 25 27 29 30 29 33 35 40 42 44 48 54 57 64 60 61 70 79 75 76 79 83 83 83 86 91 94 95 91 92 86 79 75 82 75 75 74 75 76 78
22 22 23 23 24 27 29 31 41 39 39 39 41 47 53 59 66 64 66 62 64 72 78 77 76 78 86 92 93 94 94 95 95 91 82 80 85 90 82 78 79 84 88
18 18 18 19 19 21 25 30 35 43 49 45 47 53 60 63 62 68 70 67 65 66 74 73 74 78 82 88 96 96 97 97 97 97 94 95 90 92 92 88 86 89 92
22 21 19 19 20 22 25 28 36 41 48 51 59 61 61 60 62 58 58 58 55 53 54 58 63 68 74 90 93 97 97 93 98 98 96 97 95 89 91 87 89 94 97
25 23 23 23 24 29 34 40 43 45 42 40 42 47 46 45 47 50 51 52 52 51 50 51 53 62 69 76 82 88 96 98 98 99 97 97 98 95 95 96 98 98 98
26 26 27 29 29 29 30 35 40 43 45 44 40 43 41 41 41 39 44 47 52 52 52 54 61 67 75 80 80 84 94 98 98 99 99 97 97 96 98 95 97 98 96
25 25 25 26 26 28 29 30 33 37 37 38 39 39 41 39 40 41 44 49 50 56 58 62 66 72 75 82 83 86 92 98 97 99 98 99 98 96 98 98 97 98 98
28 28 27 27 29 30 32 34 34 33 33 33 32 33 35 38 40 44 49 51 53 55 59 63 68 72 79 92 84 84 90 96 99 96 97 97 97 98 97 98 97 96 97
32 33 34 35 35 34 33 31 30 29 29 30 33 36 38 41 44 47 51 52 55 58 62 66 68 70 88 91 93 91 97 98 93 94 98 94 97 98 98 98 96 96 96
40 39 40 39 38 35 33 33 33 32 32 32 34 36 39 42 46 50 52 54 57 60 64 66 67 75 82 88 91 91 91 98 97 98 98 97 97 96 95 92 91 92 93
42 41 40 38 37 36 35 35 33 33 35 37 40 43 46 47 49 55 57 57 60 63 66 67 71 77 77 78 86 89 92 94 97 96 95 95 96 94 93 91 91 86 74
43 41 40 39 38 38 36 36 36 37 41 43 45 48 51 55 56 59 59 60 60 61 65 70 74 78 80 82 84 83 86 87 89 92 93 95 93 92 86 76 59 36 26
42 42 41 40 41 42 44 45 45 45 45 46 47 48 49 54 57 58 53 46 43 44 46 51 51 53 58 62 70 70 66 67 76 80 82 79 62 46 30 19 12 8 8
43 43 43 44 48 49 46 42 40 38 36 34 30 28 27 29 32 34 35 34 33 33 35 38 39 41 41 39 37 36 34 30 26 21 18 14 13 12 11 9 9 11 13
45 45 47 49 46 37 30 25 22 19 17 16 15 14 13 13 13 12 13 14 14 15 15 15 15 17 18 18 19 19 18 18 18 17 17 13 12 11 14 14 16 18 21
46 46 41 32 26 24 23 22 19 17 16 16 15 15 15 15 16 15 16 16 17 17 18 19 20 22 22 21 21 18 16 15 14 13 13 13 13 16 18 20 21 23 25
36 27 27 27 26 25 23 21 19 19 19 19 19 20 20 20 20 21 20 21 21 20 20 21 21 21 19 17 16 14 14 15 15 16 19 21 24 25 25 26 27 29 30

GFSMA_prec_cthk_057.txt.gz
RH
31 32 31 30 29 30 31 34 35 35 34 35 37 39 40 41 42 42 41 41 41 41 43 45 47 50 50 49 49 47 43 37 34 32 29 28 28 27 26 25 25 25 26
28 29 32 34 33 34 36 36 37 37 37 39 40 40 42 44 45 44 45 47 47 46 47 49 49 50 52 54 55 54 50 46 42 37 34 34 32 30 30 29 27 27 27
29 31 33 34 35 35 34 34 34 34 37 39 41 44 45 46 46 47 48 50 51 53 56 58 56 56 58 60 61 60 59 57 51 48 43 37 39 38 35 34 33 31 31
32 32 32 34 36 35 34 34 34 35 41 42 44 44 44 44 44 45 46 48 51 54 58 61 61 60 61 62 66 68 68 67 64 57 54 51 42 43 42 39 39 37 35
35 33 34 36 38 36 36 36 38 45 47 48 46 44 43 43 43 44 44 48 53 58 64 67 68 69 69 68 68 71 73 74 74 71 63 58 56 49 47 47 43 42 41
40 37 35 37 39 39 39 41 47 50 50 49 48 44 41 44 45 45 44 48 57 65 68 66 68 68 71 70 69 69 76 78 79 82 82 74 64 60 57 53 53 49 47
39 36 34 35 38 39 40 42 47 47 46 46 48 43 39 34 31 35 41 43 45 52 58 62 62 64 66 67 68 70 72 72 75 80 86 90 80 72 65 63 64 62 61
35 33 32 32 33 34 34 38 41 41 44 46 41 36 32 28 29 35 40 44 43 48 51 55 58 64 65 65 66 70 70 71 75 78 80 87 92 87 83 76 72 74 72
36 36 37 39 40 43 36 35 34 33 33 32 33 36 42 40 36 40 41 42 43 46 50 54 60 62 62 67 68 67 70 70 70 75 82 84 82 92 91 86 84 79 81
31 32 34 35 35 33 31 29 30 30 32 33 34 33 37 38 43 45 47 46 47 46 51 57 60 61 63 62 63 62 63 64 69 72 75 82 90 97 85 90 90 90 87
25 27 28 29 27 25 25 24 25 25 26 31 32 34 34 39 45 51 51 51 55 57 57 55 52 49 50 54 53 54 55 58 61 65 73 76 83 89 91 96 96 98 95
25 25 24 23 22 21 20 20 20 21 23 27 33 32 35 41 44 48 50 54 53 52 50 43 39 39 40 41 44 44 50 53 58 56 63 68 77 87 88 90 94 97 97
26 25 24 23 22 21 20 21 22 22 23 23 28 37 40 52 57 54 48 43 44 44 40 36 37 38 40 43 45 47 48 49 55 58 65 71 80 83 79 81 78 92 96
25 24 24 24 24 24 26 27 27 28 33 34 39 42 45 49 52 49 48 46 43 43 40 38 38 43 43 47 46 47 47 46 51 56 65 73 82 84 82 82 85 90 95
27 26 25 25 27 27 27 27 28 29 31 37 38 41 49 49 47 46 46 44 40 46 44 45 44 49 47 48 49 48 50 50 52 56 67 76 83 84 87 93 90 88 96
29 28 28 29 28 27 27 28 28 29 32 36 40 42 44 43 43 40 42 41 43 43 44 48 49 48 49 52 50 48 49 51 55 61 70 82 93 95 92 96 95 98 98
33 32 31 30 30 30 29 28 31 33 35 36 37 37 36 36 37 36 37 40 40 40 45 48 48 49 51 51 48 48 51 53 57 64 73 87 94 96 95 93 95 97 96
39 37 36 36 37 35 35 36 36 35 35 34 35 35 33 33 36 38 41 43 42 42 46 50 50 50 51 48 47 47 50 53 58 62 68 76 84 90 92 92 89 91 94
45 42 42 39 39 40 40 38 37 35 36 37 36 36 36 37 39 41 43 43 44 46 48 51 51 44 43 43 38 38 42 45 49 52 57 65 70 77 86 90 91 92 93
46 41 41 41 42 41 39 37 37 37 38 38 39 41 43 45 45 45 46 48 49 51 53 47 33 29 29 31 32 33 36 39 41 42 44 44 48 54 64 75 85 90 93
45 45 44 42 42 40 40 39 37 38 42 45 46 46 44 40 38 36 38 39 40 39 33 29 27 29 31 32 32 33 33 34 35 37 39 40 41 43 45 50 55 60 65
50 49 47 44 43 41 39 39 42 43 40 40 37 31 26 24 22 21 20 18 17 18 20 21 23 24 25 25 25 24 23 21 19 17 17 16 16 16 18 18 20 21 22
56 50 47 45 43 40 41 44 37 29 23 21 19 18 18 17 16 16 15 15 15 15 16 17 18 19 19 19 17 17 16 15 14 13 11 10 10 10 10 10 10 9 9
51 49 47 46 45 43 34 23 19 19 19 19 19 19 19 19 19 19 19 19 20 21 21 21 21 21 20 19 19 18 17 15 13 12 12 12 12 14 15 14 14 14 14
53 51 49 45 35 25 21 20 20 21 21 21 22 24 24 25 24 24 24 24 24 24 24 24 23 22 21 20 18 18 16 14 14 14 16 18 20 20 20 19 19 20 21
53 50 40 27 23 22 21 22 23 24 25 27 29 30 30 29 28 28 26 26 26 26 26 26 24 22 21 19 18 17 16 16 18 23 25 26 27 27 25 24 25 26 25

GFSMA_prec_cthk_060.txt.gz
RH
32 31 31 28 28 27 27 29 31 33 33 32 32 34 36 37 39 38 38 38 39 39 40 44 44 46 50 50 51 52 52 48 45 42 40 38 34 31 31 31 30 28 26
31 30 31 32 31 30 31 33 36 36 35 34 35 38 38 39 40 40 40 42 44 46 44 44 46 51 53 54 53 53 55 56 53 49 45 43 43 41 36 35 36 34 32
31 30 31 33 34 33 32 33 34 33 33 34 38 41 41 41 40 41 41 42 42 44 46 48 50 53 56 56 59 60 59 58 60 57 53 49 48 48 46 43 41 40 38
36 35 34 34 34 33 33 34 34 34 34 37 42 44 44 41 41 40 39 39 41 43 43 47 54 61 62 63 63 62 63 64 64 64 64 59 56 54 53 53 50 48 48
40 39 39 37 36 35 36 35 34 35 38 43 47 47 46 46 44 43 42 43 42 43 47 50 53 58 59 61 63 64 65 65 67 70 69 67 62 59 59 58 57 55 52
44 42 40 40 40 39 37 38 38 41 42 46 52 48 48 47 46 44 42 39 37 39 44 48 51 55 58 59 58 61 63 64 66 69 73 70 72 68 64 63 63 62 62
44 42 39 39 38 37 37 39 41 45 49 49 51 45 44 44 41 30 30 32 34 37 40 44 48 52 54 56 57 61 61 62 64 68 70 72 73 73 76 72 67 72 73
41 40 38 36 34 34 34 36 39 43 43 41 44 42 37 33 34 31 38 37 37 40 41 44 47 50 52 53 57 60 59 60 64 68 69 69 70 74 77 77 75 72 77
38 38 37 36 36 37 39 43 45 45 44 39 37 39 43 39 42 39 36 36 38 40 42 44 45 49 51 56 60 60 60 59 62 65 66 68 71 71 71 74 78 81 81
34 33 32 32 33 35 35 37 36 35 35 34 34 34 37 41 40 43 39 35 41 44 45 49 54 55 56 56 55 57 56 55 55 55 57 66 67 76 77 76 75 77 85
31 29 27 25 25 25 27 29 28 26 26 26 27 31 33 38 39 40 40 42 49 47 51 54 54 51 50 45 43 43 46 51 51 52 50 56 67 76 81 84 79 78 81
29 28 26 25 24 24 25 24 22 21 20 20 23 27 32 39 38 40 45 52 55 51 45 45 44 40 39 37 37 39 42 43 44 49 48 51 59 64 78 83 89 89 98
30 29 29 28 27 26 24 23 22 23 23 24 26 26 28 40 43 47 48 54 55 52 47 42 41 38 37 38 39 42 44 45 46 45 45 48 55 61 69 82 89 91 85
30 29 29 28 27 26 25 25 25 27 29 32 35 38 38 38 42 48 53 55 57 53 46 41 37 40 39 42 43 45 47 47 44 42 43 45 48 54 68 87 94 92 81
35 32 31 30 28 27 26 27 27 28 29 33 34 38 39 44 49 51 55 53 50 51 45 39 42 43 46 46 44 48 47 46 44 43 44 47 50 59 72 82 89 82 83
38 35 33 30 28 28 29 27 28 28 31 35 35 40 45 46 47 48 46 45 43 43 44 46 44 47 49 48 47 50 49 45 42 42 44 48 54 63 73 87 89 87 93
41 39 35 33 32 32 31 30 30 32 34 34 39 40 40 39 39 39 39 38 39 42 44 47 47 48 50 48 51 52 47 44 44 45 48 51 54 61 71 81 89 91 92
45 43 42 38 36 37 37 37 37 35 35 35 36 34 34 36 35 35 37 39 41 44 45 46 46 48 51 50 50 45 37 37 40 43 44 45 47 49 58 69 79 86 87
48 48 48 45 43 44 44 43 39 39 37 35 35 35 34 35 35 36 38 41 43 45 46 47 50 52 42 33 30 32 32 33 37 39 40 40 40 41 45 50 55 67 80
51 52 52 50 49 47 44 40 39 37 37 36 36 37 37 38 40 41 42 45 45 46 48 48 43 35 30 29 29 30 31 32 32 33 34 36 37 38 39 41 44 48 51
52 53 54 54 50 45 43 40 39 38 38 40 42 41 39 36 30 29 28 28 29 27 27 28 27 26 26 27 29 28 28 28 27 27 28 29 29 30 31 34 36 38 40
53 53 54 51 50 47 44 42 41 42 44 42 36 29 22 19 18 17 17 18 17 17 19 20 21 24 24 24 22 21 19 18 20 16 14 13 11 10 10 10 11 13 15
64 63 61 57 56 51 48 44 44 44 33 23 18 17 16 17 17 17 17 17 17 17 18 19 20 22 22 21 21 21 20 19 19 17 14 12 11 11 11 11 11 11 11
70 68 65 60 55 50 49 45 31 22 18 17 18 18 19 20 21 22 23 23 22 22 22 22 23 23 23 23 23 22 21 19 18 18 14 15 16 16 17 17 17 17 16
70 63 56 55 55 48 35 26 21 19 19 21 22 23 24 25 25 26 26 27 27 26 25 24 24 24 25 24 23 22 21 20 20 20 18 20 22 22 23 23 24 24 22
65 65 62 54 42 31 26 22 22 23 25 26 27 28 30 31 31 32 33 32 30 29 29 28 28 28 27 27 24 23 22 21 22 24 24 25 27 28 29 30 30 30 28

GFSMA_prec_cthk_063.txt.gz
RH
38 34 34 31 31 31 31 31 32 33 35 35 35 33 34 37 37 36 35 35 36 36 38 37 40 40 41 43 46 49 50 51 50 48 46 44 43 41 40 38 38 34 33
41 36 36 34 32 30 32 33 34 37 38 37 35 34 35 38 38 38 38 38 37 38 40 39 38 37 42 44 48 49 50 50 51 52 49 49 49 46 45 46 45 44 40
41 38 36 35 35 34 33 34 35 36 37 36 35 35 38 39 42 41 38 37 37 37 40 40 41 41 43 47 55 58 56 55 53 55 56 54 51 51 51 51 52 50 49
40 40 41 41 40 38 36 36 37 37 35 34 35 37 41 44 46 45 44 43 42 41 40 40 41 41 44 46 52 56 57 58 58 60 59 61 60 54 51 51 52 55 56
44 41 44 44 43 42 41 39 39 37 36 37 39 42 45 45 49 50 47 47 45 42 38 40 38 41 45 46 49 52 55 58 59 63 62 62 64 66 59 54 52 53 57
51 48 47 46 45 43 43 43 42 42 43 42 46 51 52 49 47 46 45 43 38 33 33 33 37 38 42 47 48 50 53 56 64 66 64 64 65 67 67 66 62 58 55
54 51 49 47 46 44 43 42 42 41 42 46 50 46 44 43 44 37 31 31 35 37 38 36 38 42 45 44 46 49 52 53 59 64 66 69 67 67 67 68 68 64 63
50 49 47 45 44 44 42 42 42 44 45 49 50 51 50 43 40 40 36 35 34 39 36 37 40 41 43 46 47 47 50 53 60 62 66 74 74 71 69 68 67 68 68
48 45 44 43 43 44 42 41 40 42 46 46 49 50 47 44 41 39 40 36 35 36 36 40 44 44 46 46 48 51 54 56 55 56 59 62 64 68 71 71 72 70 67
46 43 40 37 35 34 33 34 34 35 38 39 40 39 39 40 40 40 39 38 37 37 40 47 48 50 51 53 52 52 52 48 49 50 49 54 57 62 67 73 75 74 69
40 37 36 34 32 30 29 27 26 25 27 30 31 33 31 32 33 36 45 42 46 45 47 53 48 45 43 43 41 40 41 41 42 42 47 48 49 56 63 72 75 80 71
39 38 35 32 30 28 27 26 25 25 25 24 23 26 30 31 31 34 43 44 47 50 53 58 50 45 41 38 36 38 37 36 37 40 42 45 48 49 50 58 68 82 76
45 41 37 35 31 29 28 28 27 26 26 25 26 31 33 36 41 41 48 52 55 48 54 59 53 45 38 36 36 36 38 41 43 42 44 45 42 41 41 49 51 66 91
44 41 39 37 34 30 28 28 28 29 28 33 34 34 36 41 44 44 44 48 51 59 55 54 47 41 38 40 42 42 42 40 42 44 44 41 38 40 41 45 51 61 70
44 41 39 37 36 33 31 31 30 29 33 32 32 34 36 42 42 46 51 51 53 56 56 44 43 40 42 43 45 45 43 41 43 42 41 38 39 42 45 50 52 63 74
46 45 43 43 42 39 35 33 30 32 34 34 36 38 42 44 48 47 54 55 54 51 47 42 41 44 44 43 46 45 43 44 45 42 38 36 38 41 44 48 53 62 72
46 46 45 45 44 42 40 35 33 34 35 38 40 41 43 42 41 44 44 42 42 40 39 39 43 45 46 45 46 45 47 47 43 39 38 38 42 41 41 43 48 57 68
46 46 46 46 47 47 45 42 41 37 39 41 43 43 39 38 36 35 36 35 37 37 39 41 41 44 45 47 40 40 39 32 28 32 35 35 37 37 40 40 43 48 54
46 46 47 47 48 49 50 51 49 47 48 47 45 39 36 36 36 35 36 36 37 39 43 45 46 47 48 40 34 28 26 27 28 30 30 32 34 38 38 38 39 42 45
48 49 50 50 50 50 51 50 52 51 49 45 40 38 39 38 39 40 39 39 38 36 36 38 39 35 30 26 26 26 27 29 30 32 32 31 30 31 33 34 35 35 36
49 50 51 52 52 52 51 51 51 51 47 41 39 41 45 46 40 34 28 25 26 26 26 26 28 27 24 24 24 25 26 25 25 22 24 25 26 27 27 28 28 28 31
58 58 58 58 56 55 53 51 50 46 43 42 47 49 41 24 19 17 16 18 18 18 18 20 22 27 27 25 25 22 21 19 22 21 19 17 16 14 13 12 11 11 12
61 61 63 64 66 63 58 53 49 46 48 53 40 26 17 17 17 18 18 18 19 20 20 20 21 23 25 23 23 22 23 22 23 23 19 17 16 15 14 13 12 12 12
63 67 66 69 70 67 63 60 57 55 46 33 24 19 18 20 22 22 23 24 24 24 25 24 24 24 24 24 24 24 24 24 23 26 20 18 19 19 19 19 19 19 19
66 69 71 72 69 65 62 56 44 34 28 25 23 22 24 26 26 27 27 29 31 31 29 28 27 26 26 27 27 26 26 26 25 27 24 25 25 23 23 24 24 26 27
70 69 69 70 68 65 57 45 37 31 26 25 26 28 30 30 30 31 32 33 34 34 31 29 29 29 29 31 31 31 30 29 29 32 33 32 31 30 31 34 33 34 34

GFSMA_prec_cthk_066.txt.gz
RH
42 39 35 32 31 30 29 29 30 29 31 33 34 33 31 29 31 33 35 37 36 35 35 34 33 35 35 36 36 37 41 45 47 47 46 45 44 42 43 45 42 43 43
46 40 40 34 31 30 29 29 30 33 34 34 35 33 32 30 32 34 36 38 39 38 36 37 38 38 36 37 38 41 44 48 48 47 49 48 47 44 44 44 47 47 48
47 42 39 37 34 33 33 32 32 32 33 34 33 32 32 32 33 36 39 40 40 39 40 40 39 40 39 38 37 40 42 48 51 52 50 51 51 48 47 48 47 46 46
43 42 42 38 39 40 38 38 36 34 34 34 33 34 35 38 41 43 44 45 43 40 38 38 36 38 39 40 41 42 44 45 51 55 56 54 55 54 52 50 50 48 47
45 45 45 44 44 44 43 40 40 40 41 40 43 48 47 51 52 51 48 47 46 45 40 33 31 34 37 40 43 44 47 51 52 57 58 59 60 57 58 58 56 53 52
49 51 50 50 49 49 48 45 44 45 46 45 45 46 48 50 50 46 43 40 39 38 36 37 37 38 37 39 43 45 46 45 52 60 62 63 63 62 63 63 63 61 56
54 56 55 54 53 50 49 48 49 48 47 47 48 47 52 49 50 50 45 43 39 39 36 36 39 38 39 39 42 46 47 47 48 55 63 70 71 71 70 70 68 65 63
59 58 56 54 54 50 47 45 46 47 48 47 46 46 50 46 44 40 39 37 38 39 39 36 36 39 43 44 46 45 46 48 50 53 60 64 68 72 72 70 67 65 63
62 56 53 52 51 49 47 45 44 43 45 43 42 47 53 48 44 42 41 41 40 39 40 38 40 42 49 48 50 51 53 50 53 54 54 53 53 63 66 73 69 65 67
59 53 51 49 46 43 40 37 37 38 38 38 39 38 40 44 45 43 37 39 40 39 42 41 46 49 51 48 45 46 45 43 41 45 44 42 45 47 52 62 67 68 68
58 53 49 45 42 39 37 35 33 30 30 31 31 32 34 34 35 40 41 36 36 41 46 49 48 49 52 51 46 40 40 38 38 38 39 38 41 44 45 49 63 67 82
54 51 49 47 45 42 38 36 33 31 31 31 31 28 31 32 34 35 39 41 42 46 49 56 50 48 55 51 43 38 35 36 36 38 38 37 40 40 42 43 48 54 61
54 48 47 45 45 45 44 42 39 37 32 31 31 32 34 36 37 41 44 50 45 49 60 56 53 56 51 44 39 35 37 38 39 40 40 42 42 43 43 40 42 43 48
53 50 48 45 44 44 43 41 38 36 32 31 35 35 36 40 42 47 46 48 49 57 53 60 59 54 47 41 37 39 41 42 41 40 39 40 42 43 37 36 38 40 44
56 53 50 47 44 44 43 41 40 39 37 35 34 33 35 39 40 40 51 47 55 58 61 55 51 47 42 41 42 43 45 43 42 40 41 41 41 36 35 38 41 42 44
60 57 53 51 49 48 47 45 44 43 40 38 38 38 40 41 46 45 48 53 59 61 61 53 46 44 41 42 42 40 43 43 42 43 44 44 36 35 37 39 40 41 43
61 55 51 49 46 46 46 45 45 45 44 42 42 42 41 44 47 50 50 48 47 47 45 44 42 40 39 40 42 43 44 43 44 40 34 34 34 35 35 35 35 38 41
57 54 50 48 47 46 46 45 45 47 48 46 47 48 47 48 49 47 42 40 40 39 40 39 40 39 40 43 44 46 33 29 28 26 25 29 33 34 34 35 37 38 38
50 47 47 47 47 47 47 47 47 48 48 50 51 51 51 51 46 42 37 38 38 38 38 39 41 43 43 43 41 33 26 23 24 26 28 29 29 30 32 35 36 36 34
50 50 50 49 48 48 49 49 48 50 52 54 53 52 49 47 44 41 41 41 41 38 34 32 31 34 31 27 25 23 23 25 25 27 28 28 29 31 32 34 34 33 33
49 50 51 53 52 53 53 52 51 52 52 54 54 54 50 44 44 47 45 37 30 26 25 26 24 25 23 20 20 21 23 23 22 21 20 20 21 23 24 25 26 27 28
50 52 54 52 53 56 59 59 58 58 53 52 50 49 48 52 48 33 24 20 19 19 20 22 22 21 23 23 21 21 21 20 21 20 19 20 20 19 18 16 15 14 14
54 56 57 58 60 63 64 64 63 64 62 56 51 51 48 37 26 23 22 19 20 20 21 22 23 24 25 23 23 22 22 22 22 22 21 21 20 20 18 17 17 17 16
62 60 60 62 65 68 69 67 67 66 64 62 53 45 38 32 27 24 25 25 24 25 26 28 28 27 26 25 25 23 24 24 26 25 25 24 24 24 24 24 24 24 23
65 65 67 68 70 72 73 72 70 63 56 46 41 37 32 29 27 28 29 29 28 30 32 32 30 28 27 26 26 27 27 27 28 30 30 31 30 29 30 30 31 31 31
69 73 71 72 75 75 75 70 61 53 45 42 40 35 33 31 31 33 33 33 32 33 34 35 32 32 31 30 29 29 29 30 31 33 35 35 35 37 37 37 39 41 41

GFSMA_prec_cthk_069.txt.gz
RH
39 39 37 34 30 27 26 26 26 26 26 29 30 31 30 30 29 29 30 32 36 39 40 40 37 36 36 35 35 36 37 39 41 45 46 43 42 41 40 40 40 40 40
40 40 40 36 32 29 28 27 28 28 29 30 31 32 30 29 29 30 31 35 39 42 43 42 41 40 40 39 35 33 35 40 44 45 46 46 46 43 43 42 42 41 42
39 41 41 37 36 33 32 33 34 35 34 34 33 34 32 32 33 37 43 44 46 46 47 46 43 40 37 35 38 44 44 41 42 47 49 50 50 50 48 45 44 43 43
39 42 39 40 41 39 38 39 38 36 36 37 37 38 39 45 45 48 52 50 47 48 45 43 41 35 33 38 41 41 49 56 56 54 53 55 55 54 56 51 47 45 46
44 41 41 43 45 45 44 43 42 42 42 42 43 44 42 43 45 49 51 51 52 57 50 43 41 36 37 39 39 38 42 48 57 59 60 61 61 59 60 59 57 53 52
45 44 45 48 51 50 49 50 49 49 47 46 46 44 44 44 43 47 47 46 47 46 43 40 40 38 38 38 38 41 43 44 47 54 63 66 67 67 68 67 66 66 66
51 49 52 54 56 56 55 53 51 50 49 46 46 43 41 40 39 39 42 39 45 51 40 40 42 39 39 37 39 43 45 46 49 48 59 67 72 72 73 73 73 72 68
63 61 62 61 59 59 57 53 50 48 50 47 46 44 42 39 40 44 40 37 42 44 43 41 40 40 39 40 46 47 46 48 48 49 50 57 69 73 73 73 72 71 72
68 70 70 69 65 60 55 53 51 51 51 44 45 46 48 46 46 45 45 43 45 45 46 42 40 41 41 46 51 48 44 43 43 44 46 50 53 56 60 69 73 80 77
69 67 66 62 63 62 58 52 47 45 44 39 37 38 41 46 47 48 41 38 39 39 41 40 38 45 48 48 49 49 50 45 42 43 41 42 44 43 41 43 56 66 72
64 62 62 65 62 58 52 48 46 45 41 37 35 33 34 36 40 43 42 34 38 39 43 43 42 46 48 47 46 50 50 41 38 37 36 36 38 39 39 42 43 53 68
64 62 61 60 57 53 50 47 45 42 42 42 41 39 36 34 34 38 42 42 39 40 48 50 50 53 52 47 50 47 42 37 34 36 36 37 39 39 38 39 41 45 48
68 65 65 63 60 56 54 48 44 42 41 41 40 40 38 37 38 42 41 43 44 48 53 50 56 57 54 59 50 46 38 36 38 40 40 41 38 41 41 41 43 43 41
70 73 71 68 65 61 54 49 44 43 42 41 41 41 42 42 41 47 45 47 50 49 51 54 62 58 58 52 49 40 38 40 40 40 40 40 38 37 40 42 39 34 35
74 74 73 68 64 60 56 50 48 47 45 45 45 45 44 44 42 40 43 47 50 55 54 53 61 61 55 47 43 42 41 41 39 41 41 40 39 42 42 39 36 36 38
74 73 69 67 66 61 57 52 49 47 45 45 44 44 45 46 42 42 44 47 56 57 58 60 60 58 49 42 44 42 40 40 39 42 41 40 41 43 39 36 38 38 38
73 72 71 69 67 63 54 51 48 47 45 44 43 43 48 48 45 48 53 53 61 62 59 58 55 50 42 41 40 38 39 41 40 40 35 27 31 32 33 34 35 34 35
72 68 67 67 61 53 50 51 50 48 47 46 44 44 48 49 49 50 52 52 52 52 52 48 44 42 39 43 41 41 41 42 29 26 23 22 24 27 30 33 35 37 37
70 68 62 58 56 55 53 52 52 50 50 50 49 48 50 51 51 51 51 48 44 47 44 42 44 41 41 42 41 38 33 28 24 24 25 24 25 26 26 28 30 35 36
54 55 51 50 51 50 52 54 55 55 55 54 55 54 53 52 53 51 49 47 47 46 45 44 38 35 34 34 31 28 25 25 26 26 26 25 25 26 27 27 31 33 32
48 46 47 47 47 49 50 53 55 56 56 58 57 56 56 55 52 49 46 48 49 48 41 31 30 29 25 23 21 23 24 24 24 22 21 20 19 18 19 20 24 27 28
50 50 51 50 49 51 53 56 57 57 59 63 64 62 60 55 50 50 52 46 39 31 26 26 27 24 23 24 25 23 22 22 21 20 21 22 20 19 20 20 19 18 17
53 55 55 56 55 55 57 58 60 64 66 68 68 68 66 62 52 41 32 28 24 24 25 24 27 26 26 27 28 26 23 23 22 22 21 22 22 22 22 22 22 22 21
59 62 62 62 60 61 63 64 67 69 71 72 71 68 63 52 41 39 36 32 31 27 30 30 29 30 31 30 29 28 25 24 25 24 25 25 25 26 27 28 28 28 28
65 64 62 61 63 66 68 72 73 75 76 75 70 56 43 41 40 41 37 34 30 34 34 33 33 33 33 32 31 30 29 28 28 28 30 30 30 31 31 31 33 34 35
70 69 67 67 68 71 74 74 74 75 71 63 52 47 43 43 45 41 38 35 35 38 36 35 34 36 36 36 36 35 34 32 31 32 34 35 35 36 37 38 40 40 40

GFSMA_prec_cthk_072.txt.gz
RH
36 35 35 35 32 29 26 26 26 25 26 27 29 29 30 31 29 28 28 30 33 38 40 42 41 40 40 45 41 37 37 36 37 39 39 42 42 39 40 38 39 37 39
39 38 38 40 36 33 30 29 29 29 29 30 29 30 30 30 29 30 33 38 44 47 49 48 47 43 41 41 35 37 43 46 45 43 42 43 44 44 42 42 41 41 40
45 40 38 42 39 37 36 34 33 33 35 34 34 34 33 35 36 39 41 44 48 48 47 52 49 46 41 33 37 49 49 48 57 57 54 53 51 50 49 47 45 44 42
48 44 40 40 41 42 43 42 41 41 40 40 40 40 40 39 42 42 43 46 51 48 50 52 50 45 37 36 34 38 45 58 62 63 60 58 57 57 57 56 53 52 49
52 48 45 40 42 45 48 49 48 48 47 47 45 45 45 45 44 43 43 44 47 48 47 47 45 43 41 38 36 36 35 39 55 60 62 62 62 64 63 61 62 61 58
56 53 48 42 45 47 51 52 52 54 54 52 50 48 47 44 42 39 38 40 43 46 46 45 42 40 41 39 39 37 38 40 43 46 56 67 68 68 71 72 71 69 69
63 63 56 48 49 51 53 57 57 57 55 55 52 49 47 43 42 41 41 40 41 43 44 48 43 39 41 38 39 39 40 46 46 52 63 60 67 74 75 76 75 73 74
64 66 68 64 60 58 58 61 62 62 59 54 54 52 46 42 39 38 40 42 41 44 44 50 50 46 41 41 42 39 44 43 42 43 47 49 50 62 74 77 80 76 72
66 69 69 67 67 68 71 69 64 62 62 59 55 55 53 50 45 44 46 44 45 48 48 50 49 42 38 44 46 45 47 45 47 47 42 41 43 47 52 61 71 74 72
73 72 66 66 68 69 68 65 63 62 57 52 50 52 48 49 47 47 45 42 46 47 46 48 46 43 43 49 49 48 48 43 45 45 41 40 41 42 46 48 48 49 59
84 81 78 72 69 65 64 63 58 52 50 48 45 43 42 41 43 47 44 42 40 41 46 46 45 44 47 53 51 51 49 44 45 38 35 34 33 35 38 40 41 43 45
81 80 78 73 67 64 61 58 55 54 54 50 47 44 42 41 40 40 43 43 40 39 45 46 51 49 51 51 60 55 55 47 41 34 32 34 34 37 38 39 39 38 41
82 81 81 80 74 68 69 72 66 62 59 53 48 44 42 41 42 42 45 45 46 46 46 51 51 53 50 60 61 56 55 46 37 35 38 36 33 34 36 38 40 41 43
80 80 80 75 70 70 75 71 69 66 59 54 49 46 43 46 46 48 49 49 52 48 54 53 54 54 58 63 61 56 51 40 37 39 37 37 36 34 35 37 41 41 40
81 81 79 80 76 72 71 66 65 64 60 54 50 49 45 45 47 47 51 51 53 54 49 56 58 58 62 63 63 59 45 38 39 38 37 38 39 38 40 42 43 41 36
83 82 79 76 71 71 72 71 69 67 61 53 50 48 46 47 47 48 49 50 54 52 58 55 58 59 64 64 56 54 43 42 41 39 40 41 39 37 40 41 38 36 37
82 74 76 77 76 72 70 68 66 62 55 53 50 49 49 48 50 50 49 53 57 59 60 62 64 67 68 63 55 47 40 40 40 41 38 35 26 28 31 32 33 34 35
76 73 76 78 78 73 69 66 63 59 56 53 54 53 52 51 53 53 52 53 58 60 65 62 62 61 60 56 45 43 42 42 43 37 28 27 26 25 25 28 31 32 32
55 63 70 73 68 66 62 57 52 53 55 56 56 58 57 56 56 57 56 57 56 57 57 57 58 57 54 48 45 44 42 39 33 26 24 24 26 27 27 29 29 31 33
48 50 52 54 54 55 50 48 48 49 50 51 54 54 56 56 57 58 58 59 57 54 53 55 56 56 52 43 37 34 31 27 25 27 27 26 25 26 26 27 28 31 31
49 49 49 48 45 45 45 44 45 46 49 52 54 57 59 60 61 60 59 57 54 50 50 54 57 52 42 33 27 26 27 26 27 25 25 22 21 20 19 20 23 25 28
53 52 52 50 50 50 49 48 49 48 51 54 55 59 61 61 62 65 62 59 56 57 57 48 39 36 31 27 25 28 25 24 24 22 23 22 22 21 19 19 20 20 19
57 57 55 53 52 52 53 53 53 56 58 60 61 64 66 66 66 64 60 56 44 35 32 31 30 29 32 30 34 28 28 29 27 24 23 23 23 22 22 22 22 22 22
56 55 55 55 57 58 57 56 58 60 62 66 69 71 71 71 67 59 48 41 39 37 34 31 35 35 35 37 34 33 33 32 29 27 26 26 26 27 27 28 28 27 26
61 61 63 65 65 64 62 62 64 67 68 71 75 77 75 66 58 49 43 40 42 50 46 41 35 40 41 36 35 36 35 34 32 32 32 31 31 32 32 32 32 31 32
69 70 70 69 67 67 70 72 75 75 76 78 79 71 61 55 50 46 44 46 52 43 42 39 41 45 40 38 38 39 38 38 39 36 36 37 37 37 36 37 37 38 38

GFSMA_prec_cthk_075.txt.gz
RH
37 37 36 36 36 31 30 28 29 29 29 29 30 30 30 31 32 31 30 33 37 42 48 49 47 47 44 44 41 37 36 39 41 42 40 39 41 40 39 39 38 37 37
39 37 36 37 40 38 34 33 32 32 33 34 34 34 35 34 34 35 38 41 44 47 51 50 50 50 49 43 38 37 43 49 49 50 51 50 49 46 46 43 41 39 37
47 44 42 40 39 42 38 37 36 35 36 37 38 38 39 39 40 40 41 42 44 47 51 51 50 52 49 40 36 36 44 49 56 57 56 57 57 54 53 50 49 45 44
53 50 47 43 42 41 42 41 42 40 42 42 42 43 44 44 44 45 44 43 43 45 47 50 50 49 47 43 38 33 38 45 46 54 58 59 61 60 59 58 57 53 51
59 55 51 48 47 43 42 46 48 48 47 49 48 48 48 48 48 45 45 43 43 44 47 47 51 47 49 45 37 33 35 36 37 40 53 61 61 61 62 65 63 61 61
66 62 56 55 52 47 44 48 51 51 51 53 55 55 52 50 47 45 44 44 43 44 45 46 48 48 51 46 42 36 36 39 40 44 47 50 59 67 70 69 71 71 69
70 66 63 62 60 54 50 52 54 56 59 59 57 58 52 48 47 43 42 40 41 45 44 45 45 50 60 51 42 41 41 40 40 44 44 47 56 60 75 77 77 76 75
65 61 60 64 64 67 65 62 57 59 63 63 61 60 57 51 48 45 42 40 44 45 44 44 47 54 56 52 48 45 45 43 46 45 43 43 44 46 48 71 79 78 75
69 63 63 64 68 71 73 70 72 71 72 69 64 64 62 56 51 50 52 49 48 45 46 48 50 49 46 50 47 52 50 48 48 45 46 46 43 40 42 45 56 64 77
76 66 70 72 75 75 75 74 74 73 69 65 62 60 58 55 54 47 46 46 46 46 48 49 48 46 48 49 49 54 54 51 51 48 44 45 44 40 40 42 49 52 54
92 89 88 88 90 87 83 81 71 68 68 65 60 59 56 51 48 47 45 41 43 42 45 47 46 44 46 51 54 61 60 54 53 53 44 36 33 30 32 34 39 40 44
94 96 94 90 87 87 86 84 77 72 70 68 66 64 60 55 50 47 47 46 44 45 48 50 49 48 48 53 55 59 63 61 58 53 43 33 32 32 33 33 35 37 37
87 95 92 87 84 84 84 79 75 72 70 68 64 64 63 59 54 53 52 50 50 50 52 54 53 53 53 52 56 57 65 63 56 50 39 36 34 34 31 32 34 38 39
84 84 91 85 84 84 82 79 76 76 74 68 64 63 62 58 55 53 54 54 55 56 54 59 56 57 55 54 55 64 66 63 53 42 35 38 34 33 33 33 34 40 41
78 83 83 84 83 77 79 74 71 69 70 69 67 66 64 60 54 53 54 52 56 56 56 59 63 60 62 66 61 67 67 62 56 43 39 36 36 36 39 39 40 43 43
75 81 80 80 80 81 78 75 71 70 70 69 68 65 60 56 55 53 51 51 54 58 56 57 63 63 64 66 68 66 70 55 54 41 38 37 38 36 35 38 42 41 39
74 77 80 83 83 83 75 75 73 73 72 69 64 59 56 55 56 58 58 58 56 59 61 58 62 66 66 74 73 69 67 59 50 41 40 40 31 26 27 29 33 35 34
76 78 78 78 76 73 72 75 77 75 70 64 61 57 60 61 61 62 61 60 60 62 63 67 66 68 72 68 68 64 62 56 50 47 44 35 26 25 22 24 28 31 32
53 57 57 56 52 51 56 62 61 57 57 56 52 53 52 54 56 58 60 61 64 64 62 63 63 67 63 62 61 65 59 56 50 46 38 31 27 25 23 24 26 27 29
45 45 44 44 45 47 47 47 46 45 46 47 47 48 50 51 53 55 57 60 62 64 65 63 60 59 58 58 58 61 53 43 35 31 30 27 25 26 25 26 29 30 30
43 43 45 46 47 48 47 46 45 44 44 46 46 49 50 53 56 56 59 62 64 64 66 64 60 58 56 59 61 46 35 37 35 32 32 26 24 23 22 22 24 26 28
47 50 51 52 51 51 51 51 50 50 49 51 53 54 56 57 60 59 61 62 63 63 67 66 63 65 62 49 38 32 35 35 31 32 26 25 25 24 23 22 21 20 20
54 55 52 52 52 52 53 53 53 53 52 54 57 60 62 63 64 67 67 65 63 63 63 60 53 45 38 37 39 36 34 33 35 31 30 30 27 25 24 23 23 23 22
55 53 53 53 52 52 54 55 57 58 59 62 63 65 66 68 70 71 67 61 55 48 44 40 38 41 40 38 38 38 38 40 38 34 33 31 30 28 28 28 28 28 28
57 56 56 56 56 57 59 61 62 62 64 67 70 72 73 75 74 68 61 54 50 48 46 42 42 42 40 42 39 44 43 40 38 38 36 36 36 35 34 33 33 33 32
62 62 63 63 64 65 65 65 63 64 67 71 75 79 79 74 61 56 54 53 52 51 49 51 54 50 47 41 47 46 43 43 42 42 41 41 42 41 40 40 39 39 38

GFSMA_prec_cthk_078.txt.gz
RH
38 38 38 37 36 35 32 29 28 29 30 30 31 33 33 33 33 33 34 37 40 42 44 47 47 45 49 49 45 40 40 40 43 44 46 45 44 43 40 39 38 37 36
42 41 39 38 37 37 39 35 34 32 32 33 35 36 36 36 36 37 39 40 42 45 47 48 47 44 48 50 44 45 44 45 45 46 50 52 51 50 48 47 43 41 41
45 45 43 41 41 41 41 40 39 38 37 38 39 40 40 40 41 42 43 43 44 44 44 45 48 51 50 45 44 50 47 44 53 54 52 52 54 54 53 52 50 48 47
55 54 51 49 46 45 44 42 43 43 44 44 44 45 46 46 46 44 46 45 43 44 44 44 51 54 54 47 45 41 41 40 38 43 51 53 58 58 56 57 58 57 52
61 61 57 54 52 51 50 47 45 48 50 50 50 51 52 50 49 48 45 46 44 44 44 46 47 52 50 47 45 45 43 42 41 41 42 48 58 59 57 60 62 63 61
68 69 67 60 55 52 54 51 48 50 53 54 54 56 53 53 50 47 45 44 44 43 45 47 47 48 51 47 53 53 44 42 44 41 44 45 50 54 63 66 67 68 69
74 71 73 71 64 58 58 58 55 53 58 55 56 56 56 54 51 50 48 46 44 41 44 49 47 46 48 51 59 50 47 39 41 43 43 44 45 45 53 66 71 72 77
81 82 80 72 66 63 65 67 67 66 60 58 58 57 56 55 53 51 49 49 46 47 51 50 49 48 49 51 53 50 47 42 45 48 47 46 48 45 43 49 53 68 81
78 80 74 81 77 77 73 73 72 68 65 65 67 68 68 64 61 59 56 54 51 49 48 50 46 51 53 51 50 49 51 48 50 51 52 53 47 46 46 43 44 48 62
85 83 88 90 85 84 83 82 80 75 75 71 69 73 76 73 69 61 57 56 52 49 48 48 52 52 51 50 48 54 53 53 58 58 58 50 46 42 43 43 44 46 45
88 94 95 93 94 96 94 90 84 83 81 77 74 73 68 64 62 60 55 50 50 48 47 48 52 53 52 52 53 51 54 56 57 61 59 53 45 34 31 29 30 36 38
84 89 91 97 98 97 91 91 91 88 86 83 77 73 68 67 65 62 60 55 54 52 50 49 54 58 58 57 59 59 62 60 57 63 60 55 43 33 30 30 31 31 31
89 88 88 86 91 90 90 90 84 83 84 79 77 74 69 68 66 63 59 56 56 54 55 54 54 57 59 60 62 61 58 56 66 63 58 53 36 35 32 31 31 31 32
92 91 95 92 85 84 85 88 85 81 77 75 73 68 67 67 64 63 61 60 57 58 58 59 56 56 62 60 69 68 63 62 67 63 60 54 40 38 37 36 36 36 37
91 91 89 86 84 83 81 80 83 77 78 72 67 66 69 71 67 64 61 58 59 56 58 58 59 60 61 67 66 68 73 69 71 70 64 54 43 43 42 41 42 41 41
80 76 76 76 77 78 82 79 75 80 77 73 72 73 72 69 64 60 58 59 60 61 62 60 62 59 64 67 67 69 73 75 70 74 66 52 47 42 40 37 39 43 42
69 68 69 72 73 75 77 78 79 78 74 74 75 72 71 66 62 60 60 63 64 66 69 65 64 67 65 67 72 70 75 74 74 72 61 53 51 48 34 30 35 37 39
54 55 60 62 69 71 72 71 68 66 63 61 62 61 60 60 57 56 56 60 61 62 67 67 71 72 72 70 74 73 69 72 68 62 56 58 56 42 28 27 28 31 31
47 48 50 54 55 55 55 51 47 45 47 48 49 48 47 46 47 50 52 54 56 59 63 63 65 68 71 73 72 74 66 65 62 64 64 60 51 33 28 31 26 27 27
39 44 45 46 47 47 44 42 42 43 43 42 41 41 42 43 46 49 50 52 54 57 60 61 64 66 68 69 66 62 61 59 60 53 45 40 34 28 33 27 27 28 28
39 41 42 43 43 42 43 43 44 45 44 44 45 47 49 50 51 53 54 55 58 60 61 62 64 65 66 69 65 64 65 61 45 43 42 38 37 35 30 25 26 28 29
43 44 42 43 44 45 45 45 44 44 46 46 47 51 52 53 55 56 58 61 63 64 65 68 68 67 66 67 69 71 56 41 39 39 39 41 34 32 26 26 25 23 23
47 48 48 49 49 48 47 47 45 46 46 49 51 53 55 58 59 61 63 64 62 65 67 70 71 70 67 63 54 47 40 39 46 39 37 35 38 33 31 29 26 25 24
53 54 53 52 50 50 49 48 48 48 51 52 54 56 59 60 64 66 68 66 61 58 56 53 50 49 45 48 49 45 42 42 40 39 42 44 39 37 34 32 30 30 31
57 57 56 54 54 53 52 51 52 54 56 57 58 60 60 64 71 74 70 63 59 55 52 48 47 43 45 49 49 46 43 43 47 47 45 44 43 42 40 39 38 38 37
60 60 60 58 58 58 57 56 59 60 62 63 64 63 65 69 72 63 58 55 54 50 48 50 56 56 57 55 53 52 48 53 53 47 47 49 48 48 47 47 45 45 45

GFSMA_prec_cthk_081.txt.gz
RH
37 36 35 35 35 35 34 31 29 28 28 30 30 31 32 32 33 34 35 36 37 39 41 43 43 43 43 48 49 44 44 44 45 46 46 48 48 46 44 42 40 37 35
41 40 39 39 37 36 36 36 33 33 32 32 33 35 36 37 37 38 40 41 42 42 43 43 44 44 46 47 48 45 51 49 44 49 51 54 52 51 49 49 46 43 40
43 43 43 42 40 40 40 40 40 38 38 38 39 39 40 40 42 43 43 43 42 42 41 41 42 42 44 49 51 55 51 50 46 44 50 53 52 51 52 52 48 48 45
46 45 46 46 45 45 45 44 44 42 42 44 45 44 46 47 47 46 44 43 43 43 43 44 42 44 49 52 47 46 50 41 38 43 40 46 55 58 57 54 53 53 52
53 54 56 55 54 51 50 49 48 45 45 48 50 49 49 47 47 46 47 45 43 43 43 43 44 46 47 51 50 46 49 48 40 42 42 42 48 55 62 61 60 61 61
65 66 66 67 63 58 55 54 55 55 53 50 52 52 49 49 48 48 47 47 45 44 41 42 46 48 48 49 48 48 52 49 44 42 43 41 44 49 60 62 72 69 66
78 77 76 74 72 66 62 59 59 62 62 56 54 49 51 49 46 48 46 44 42 40 41 42 48 49 48 47 48 48 50 45 44 42 44 45 46 46 49 52 65 73 75
85 84 82 83 77 74 71 67 66 68 68 66 60 55 53 48 46 50 52 51 46 47 47 49 50 48 50 50 52 52 53 45 44 44 45 48 49 51 54 54 47 49 61
90 94 95 93 93 90 86 79 73 70 73 71 72 67 60 61 62 65 66 64 62 62 56 51 50 46 48 53 59 57 54 47 49 49 49 50 52 53 48 45 48 46 46
94 98 95 89 84 91 98 94 94 90 90 84 74 69 67 67 70 70 66 63 62 59 57 52 50 51 53 57 57 58 56 52 54 55 54 53 53 54 53 46 41 47 50
94 91 90 90 95 94 98 98 98 96 91 87 82 77 74 75 74 70 67 64 61 58 57 53 52 52 54 57 59 61 60 60 60 56 59 56 62 58 52 42 35 35 38
95 97 92 90 87 92 94 98 95 92 89 89 87 87 85 79 75 69 64 64 62 60 56 53 50 52 54 59 60 59 60 62 64 61 66 62 61 56 43 36 34 33 33
85 91 90 92 87 88 90 90 89 89 87 84 80 81 83 81 74 66 64 65 64 59 58 56 52 54 55 57 62 63 62 66 63 68 62 66 63 54 45 38 36 35 38
85 88 87 89 88 94 93 91 89 88 86 83 76 73 68 66 65 67 66 64 64 61 58 58 54 56 57 60 64 64 67 65 68 71 68 69 67 59 47 44 49 47 45
75 81 87 90 89 90 88 86 86 84 77 76 76 77 70 65 65 66 68 64 61 59 54 56 58 60 59 62 63 67 70 69 71 76 75 76 74 62 49 51 54 53 49
62 66 74 84 82 81 78 74 73 75 75 73 73 70 67 69 70 67 65 64 60 61 58 57 58 65 67 66 68 67 67 69 73 74 76 78 76 63 50 49 53 47 47
51 58 67 73 72 76 77 70 70 69 71 70 68 65 60 60 62 61 56 55 54 55 57 58 62 61 65 66 71 70 72 76 75 76 75 76 71 62 55 56 46 40 45
44 50 55 62 66 65 65 64 64 66 64 60 54 49 44 44 44 44 45 45 45 48 49 50 53 55 60 64 67 70 71 76 77 76 79 76 62 66 64 54 42 38 38
38 41 47 51 54 54 53 55 58 54 52 46 41 39 39 37 37 37 39 41 44 45 47 50 52 54 56 58 62 65 69 73 76 67 65 61 66 68 66 48 39 35 31
35 37 40 45 48 48 50 51 48 48 43 40 38 37 37 38 39 42 47 48 48 49 51 53 56 57 60 61 63 65 68 67 65 65 64 61 56 54 48 42 40 32 36
34 34 35 38 39 42 44 46 45 40 39 39 39 39 39 40 43 46 47 50 52 54 56 58 60 62 62 65 68 69 68 66 67 69 66 52 45 43 43 39 34 43 33
39 40 38 39 37 38 40 40 41 41 41 42 41 39 40 42 44 46 49 52 55 57 60 62 63 64 67 66 70 69 69 71 74 57 45 42 42 40 41 38 40 29 26
44 45 44 44 43 45 45 45 45 46 44 43 42 41 43 47 49 49 51 53 57 60 63 66 68 68 70 72 74 76 73 60 47 45 39 44 43 43 40 43 35 33 30
51 52 53 53 54 52 50 48 47 45 44 45 45 47 50 51 52 54 54 57 60 60 58 57 60 60 59 54 54 49 45 51 55 43 45 46 43 41 46 43 40 38 35
57 56 59 58 58 56 52 49 48 49 50 50 51 55 56 57 57 58 58 61 58 54 53 50 50 45 44 44 52 45 54 55 50 48 46 46 45 48 46 45 43 44 41
64 61 62 62 61 59 56 55 56 55 54 55 59 61 61 61 61 61 59 53 51 49 46 45 47 46 50 55 54 50 57 55 52 50 55 55 50 49 50 49 50 48 47

GFSMA_prec_cthk_084.txt.gz
RH
29 30 31 32 32 32 31 30 29 28 27 27 28 29 31 33 32 31 33 33 35 37 39 40 40 42 43 48 53 48 45 43 45 43 44 46 46 47 49 48 44 38 35
35 35 35 35 36 36 35 34 32 31 30 31 34 34 36 35 36 36 37 38 38 38 38 39 40 42 42 43 42 50 56 50 51 47 44 50 53 51 50 52 52 46 40
41 40 41 42 41 39 37 35 36 36 36 35 37 39 40 42 41 41 41 42 41 39 39 39 40 40 41 45 48 56 54 52 54 45 38 40 49 50 54 58 58 54 47
50 48 49 48 47 44 42 40 40 40 41 41 44 45 45 46 47 48 48 45 43 42 42 40 42 42 45 46 50 55 57 52 55 49 39 44 45 46 51 56 61 59 53
58 58 49 49 50 48 47 45 45 43 47 44 46 50 50 49 50 49 50 50 47 45 45 44 41 43 45 48 49 52 52 48 50 50 41 42 41 43 46 56 64 65 65
66 63 53 56 57 55 53 52 50 47 48 51 52 51 54 52 51 52 52 50 46 43 41 39 38 41 44 47 46 52 49 50 52 48 45 40 39 39 41 46 58 74 77
79 74 69 68 65 66 64 61 56 54 55 60 60 58 55 50 46 49 48 45 45 42 40 39 43 47 51 50 51 50 50 51 47 46 45 44 44 46 46 47 50 57 79
80 86 81 80 79 79 80 72 66 63 61 63 64 68 62 55 47 46 50 48 48 49 51 53 55 56 56 53 51 53 55 56 53 53 50 48 48 48 49 50 52 49 49
86 86 93 93 94 90 88 86 85 74 71 72 72 73 67 60 61 60 58 58 56 59 62 59 57 57 53 51 53 57 61 61 58 54 56 54 51 52 52 53 53 48 48
90 94 96 98 95 98 98 98 97 93 92 91 91 84 70 68 70 66 67 65 64 66 66 64 60 57 58 59 60 58 57 57 60 57 57 59 56 54 54 55 54 50 46
90 95 97 96 93 96 98 98 99 94 97 98 97 95 91 78 74 76 75 76 76 73 68 64 61 56 54 55 57 57 57 58 58 58 63 60 62 60 55 56 53 42 40
93 93 95 94 96 95 95 92 91 95 99 96 93 92 92 91 87 80 79 80 76 72 66 62 58 56 54 53 53 55 60 62 62 63 66 68 68 64 65 57 52 38 35
91 87 89 89 92 96 94 94 95 94 92 91 86 86 88 83 78 77 77 71 68 67 66 64 57 54 55 56 55 59 61 63 66 69 69 69 71 71 70 62 54 40 37
85 89 92 93 95 95 91 89 87 86 86 88 87 87 84 75 71 66 67 66 67 67 65 64 56 51 53 54 53 57 60 64 63 68 68 72 74 73 76 69 58 49 48
75 81 84 89 91 94 92 89 85 86 85 85 89 81 76 74 71 66 64 65 63 62 59 57 56 53 55 56 58 61 66 66 73 74 71 70 76 78 78 75 63 56 55
64 64 67 71 72 80 89 84 83 80 77 74 71 69 68 66 62 58 54 52 50 54 50 48 49 48 49 52 55 58 64 68 69 70 75 77 75 76 74 73 68 54 60
58 57 57 59 63 70 74 76 76 76 75 70 68 69 66 61 53 50 46 42 41 39 40 40 43 45 47 46 50 53 58 62 62 67 73 76 77 77 72 69 65 61 57
52 52 53 54 56 61 66 70 71 66 64 65 61 60 58 52 44 39 37 36 36 36 38 40 40 43 45 48 51 54 58 59 63 64 66 73 72 71 67 64 65 60 47
43 44 47 48 50 53 57 60 63 60 58 54 53 47 45 40 37 35 36 37 37 41 44 45 47 48 50 51 53 56 58 63 65 66 69 70 67 60 60 67 67 57 50
34 35 37 40 44 47 50 52 52 53 50 48 45 43 40 36 34 35 37 38 41 45 46 46 48 51 53 55 57 59 62 64 67 70 69 67 64 65 64 65 60 46 49
35 35 36 37 37 40 43 45 47 47 47 46 45 41 38 38 36 35 36 41 43 44 44 47 50 53 57 59 61 65 67 67 68 69 69 67 67 63 52 46 42 45 43
38 37 38 38 39 40 41 42 41 42 44 43 41 43 40 37 36 38 41 42 43 45 46 47 49 54 58 62 67 69 70 69 69 69 70 66 59 51 45 39 42 37 34
46 45 45 46 47 47 48 48 46 44 44 44 43 41 39 39 40 42 43 45 45 47 49 50 55 60 64 66 69 71 74 75 75 71 53 43 43 48 45 41 39 40 46
55 56 55 55 53 53 53 53 50 47 49 48 44 41 43 41 44 48 49 49 50 50 49 48 52 57 61 60 61 58 56 55 51 45 45 49 49 52 50 49 44 44 41
61 62 62 60 60 59 59 58 57 54 52 49 45 45 46 48 50 53 53 53 56 52 47 44 45 43 42 45 47 48 49 50 51 49 50 47 43 50 46 48 46 47 44
65 70 68 67 66 66 64 63 61 58 56 52 51 49 51 52 56 59 58 59 57 51 45 43 42 41 41 43 45 51 51 50 50 50 49 52 55 51 51 49 50 50 49

GFSMA_prec_cthk_087.txt.gz
RH
29 30 31 31 33 32 34 33 33 32 30 29 28 28 28 29 32 33 33 32 32 34 36 37 38 37 36 47 46 46 46 51 48 46 45 43 44 48 47 46 44 45 43
31 35 35 35 36 36 34 33 34 33 32 31 31 32 33 34 35 37 36 37 36 36 36 36 37 38 38 38 44 50 61 58 56 51 46 39 39 47 49 49 48 50 50
35 38 39 39 35 35 38 38 41 36 35 35 35 36 36 41 40 39 42 42 42 37 37 38 39 41 43 41 43 51 59 58 53 52 52 46 38 41 44 49 49 54 56
42 40 43 44 45 44 41 48 41 39 42 40 40 41 42 43 44 45 46 46 46 48 47 45 44 44 44 44 44 48 52 52 52 52 50 50 38 41 45 46 50 53 59
50 48 47 47 49 50 53 53 46 45 45 45 45 48 51 51 50 49 48 49 50 49 47 46 43 39 40 44 46 48 53 53 54 52 53 51 44 39 41 42 53 57 61
59 59 56 54 52 53 62 55 51 52 51 51 52 52 53 53 54 51 50 51 50 47 46 44 42 44 45 44 48 50 57 56 54 54 53 50 45 43 39 37 39 47 62
70 70 68 66 58 59 72 61 58 56 55 54 58 58 58 57 56 53 50 46 45 46 42 44 45 47 55 55 58 56 56 58 60 59 54 48 48 46 45 42 41 43 46
79 79 79 75 71 75 74 69 70 65 66 62 60 64 65 65 64 54 52 49 45 47 47 47 47 51 56 60 58 58 58 58 61 59 56 53 50 53 51 50 46 43 44
84 84 80 83 82 82 80 79 81 82 77 75 68 73 76 70 69 62 63 58 57 58 59 58 56 60 62 61 59 60 61 64 63 65 61 55 55 55 57 56 53 50 47
85 86 88 85 86 90 91 95 92 99 96 90 88 86 90 89 87 79 71 64 62 62 64 67 68 67 66 63 62 62 63 63 61 62 63 57 58 62 60 63 60 55 51
88 87 94 92 90 89 90 92 98 95 99 96 95 95 96 96 92 88 80 77 74 76 75 75 77 70 64 59 57 58 59 60 61 60 62 61 62 65 65 64 63 60 58
86 84 90 95 94 87 88 95 95 94 91 95 99 98 97 94 92 91 90 85 81 79 75 73 73 68 60 55 51 52 55 55 57 59 61 60 61 68 69 73 70 71 63
85 79 92 95 90 94 87 95 91 94 95 95 97 97 93 90 88 89 83 76 73 69 67 67 68 63 58 54 49 50 52 55 57 63 64 66 67 69 74 72 70 69 68
82 82 89 91 91 94 90 94 94 95 91 91 92 86 88 85 87 82 77 72 68 69 69 65 62 61 53 49 49 47 49 53 55 59 63 63 68 69 72 76 77 77 75
82 84 90 93 90 90 95 93 92 94 90 88 87 86 84 83 78 76 75 70 64 60 58 54 49 47 40 39 40 42 44 47 51 53 56 61 64 65 70 76 75 74 73
77 83 83 86 81 82 84 90 89 91 92 91 87 82 80 78 70 67 63 59 53 49 46 42 39 36 36 35 38 40 41 45 47 50 56 57 60 62 65 66 68 68 70
65 65 67 68 68 68 73 79 84 89 82 78 76 74 70 63 63 60 57 51 45 42 39 37 35 35 36 36 39 41 44 47 50 53 54 57 60 66 66 68 67 69 66
58 56 57 59 60 62 62 65 74 75 72 71 68 65 60 59 60 57 54 45 37 35 34 36 36 38 39 41 43 45 49 52 53 56 59 62 64 65 64 65 60 62 60
47 46 46 48 54 58 62 63 63 65 64 63 60 57 54 53 53 50 44 36 36 36 36 38 39 40 42 43 43 45 48 51 55 57 63 64 66 66 66 63 57 60 62
39 40 40 41 44 49 55 54 56 57 60 59 58 57 53 49 46 45 40 37 35 36 38 38 39 39 43 45 47 50 51 54 57 60 64 66 69 65 64 60 58 63 62
39 39 39 38 39 41 45 50 51 55 59 58 57 53 51 48 45 39 39 36 35 35 36 39 41 41 42 46 47 49 53 56 62 64 66 67 65 65 66 61 52 51 53
46 43 41 40 39 40 45 50 50 50 50 53 52 50 47 45 41 38 37 37 36 37 38 42 41 44 47 51 53 56 57 61 65 66 68 67 67 67 62 55 49 46 36
49 49 48 47 45 46 47 48 50 50 49 48 48 48 47 43 40 39 38 38 37 42 42 44 46 50 50 54 55 57 60 61 65 70 72 69 56 49 45 42 40 41 39
50 52 52 52 51 50 53 53 54 52 51 52 52 51 48 47 45 42 40 42 43 44 46 51 49 49 52 52 55 54 54 55 55 56 52 48 44 39 40 45 48 51 47
48 52 56 58 58 60 61 59 58 58 57 57 56 55 52 49 47 47 46 47 49 50 52 47 45 42 40 41 41 43 45 47 45 44 45 46 44 42 42 45 49 49 48
50 52 56 62 63 66 67 67 64 62 62 63 63 61 56 54 51 52 50 51 52 56 53 46 42 40 36 35 35 40 44 46 48 48 45 45 46 46 46 45 49 51 49

GFSMA_prec_cthk_090.txt.gz
RH
49 34 29 25 24 26 27 28 29 30 31 29 28 29 28 27 30 32 30 30 30 31 32 34 33 32 33 35 44 47 48 56 55 51 49 45 43 41 45 47 46 44 41
39 31 31 26 27 30 31 34 33 33 32 30 31 32 30 31 34 35 32 33 35 35 35 34 34 35 36 36 38 49 58 63 59 56 53 48 47 42 41 43 46 48 49
37 35 36 33 34 34 36 35 34 35 35 34 36 34 33 33 35 37 37 37 38 39 38 38 38 40 41 42 43 45 55 58 59 53 53 53 52 49 40 44 47 52 51
36 36 35 35 36 35 36 38 39 39 39 40 45 38 36 37 40 42 44 45 44 45 44 46 45 44 43 40 40 43 51 54 52 50 51 51 54 51 41 46 49 48 48
40 36 36 37 39 42 42 43 43 41 42 47 52 43 44 44 45 47 50 48 47 48 49 46 44 41 39 40 42 45 45 50 56 56 57 56 53 49 42 38 39 44 56
45 42 43 45 48 49 51 49 48 47 47 55 54 46 48 51 54 52 54 56 55 50 46 42 42 41 44 45 44 45 46 50 58 57 60 59 54 50 47 44 43 41 42
56 53 54 56 54 54 52 52 58 55 55 67 59 56 55 57 58 57 57 55 52 46 41 39 41 42 42 43 44 49 55 57 60 61 63 63 58 52 52 52 50 47 48
77 69 68 66 63 59 60 68 72 67 63 78 65 66 64 67 63 62 63 59 53 48 48 46 45 44 44 49 52 54 58 59 61 59 59 59 57 56 52 53 56 54 52
82 79 78 80 81 75 77 75 79 73 74 78 80 76 75 75 74 74 74 63 58 54 55 57 57 57 56 58 58 60 59 58 61 62 61 59 58 58 55 56 59 61 59
86 86 85 83 86 86 85 83 84 84 89 89 92 91 93 91 86 85 84 82 75 72 70 68 62 62 65 66 65 64 59 59 61 61 62 59 57 58 57 58 61 64 66
89 90 84 83 83 88 90 86 88 85 92 93 94 95 96 97 96 93 93 90 84 80 76 76 73 71 70 68 64 56 52 53 54 56 57 53 53 53 54 56 63 66 67
91 91 91 88 82 80 85 90 88 85 90 89 92 92 99 97 98 96 94 91 90 87 82 79 75 70 65 62 57 52 49 50 50 50 50 50 53 55 58 60 61 63 67
94 91 87 85 82 80 87 85 86 89 89 88 93 95 95 99 97 94 89 90 87 82 77 70 67 68 63 57 53 49 46 45 43 43 47 47 50 52 54 55 56 60 63
93 90 84 88 85 82 85 89 82 91 94 89 94 94 94 94 92 88 87 84 80 73 68 65 65 63 58 51 41 39 37 36 38 40 42 43 46 47 52 53 54 58 60
83 82 84 89 84 82 83 90 93 96 95 91 93 92 93 92 93 91 87 78 73 72 68 62 58 52 44 38 33 32 32 33 36 39 42 44 45 52 53 52 54 55 56
84 84 91 94 91 91 89 91 93 92 92 92 91 92 89 87 87 86 80 74 67 60 54 49 47 43 37 34 31 31 34 36 37 39 41 45 47 53 54 51 54 54 55
81 80 83 89 87 82 79 81 87 88 90 93 92 91 92 85 76 75 68 65 62 57 51 46 42 37 34 34 34 35 36 39 41 42 44 46 47 52 55 56 58 56 56
64 65 63 66 67 66 70 76 75 76 82 93 92 87 85 79 74 69 64 62 57 52 46 38 38 39 37 36 36 38 38 40 42 44 47 50 52 56 60 61 60 59 57
51 52 53 52 53 58 59 61 65 66 73 76 75 73 71 67 63 61 58 57 51 45 37 37 37 36 38 36 37 38 39 41 43 46 45 50 54 57 61 63 62 59 54
41 41 45 47 48 50 53 56 58 67 69 70 69 69 74 68 62 56 52 50 47 44 37 36 38 37 36 38 39 38 41 42 44 45 48 53 56 60 65 64 63 58 56
40 41 42 43 44 46 49 50 52 55 59 65 69 74 77 77 71 58 54 51 46 40 38 39 39 37 38 39 39 41 44 46 46 49 53 54 58 57 61 64 60 57 50
43 45 45 47 46 45 47 49 52 52 54 57 62 67 66 69 66 54 51 49 42 39 38 37 39 39 38 39 42 46 46 50 50 54 53 57 56 59 61 62 60 51 43
46 47 48 51 51 50 50 51 54 56 57 57 55 56 57 55 55 55 50 44 42 41 42 41 41 41 43 43 45 45 50 51 52 53 54 59 61 63 45 49 48 42 40
45 48 49 52 55 56 57 58 57 57 57 57 56 56 56 57 55 52 49 46 43 43 46 45 45 47 49 47 45 46 46 48 48 50 49 46 48 41 36 36 39 39 40
45 47 51 52 55 57 61 63 64 63 61 60 59 58 58 59 58 55 51 48 47 50 48 49 49 50 47 47 44 41 40 40 39 41 42 42 42 40 38 39 40 42 46
41 44 51 56 56 59 64 68 69 68 70 70 68 65 63 62 61 57 55 52 54 55 53 52 51 49 43 39 38 32 31 35 40 41 41 44 46 42 42 43 44 42 44

GFSMA_prec_cthk_093.txt.gz
RH
80 63 51 53 42 35 27 27 28 27 28 29 29 28 28 27 25 26 28 27 27 28 29 30 30 30 30 32 35 45 47 55 56 53 48 44 43 41 40 37 43 45 44
81 73 56 48 41 33 29 27 29 30 31 31 29 30 29 29 31 31 30 31 31 32 32 31 31 32 34 36 37 40 50 53 55 54 50 46 42 41 43 40 40 39 43
86 67 53 43 37 29 28 29 32 33 34 33 33 32 31 32 37 36 34 35 34 34 34 35 36 38 40 40 39 40 46 56 52 50 47 45 45 46 48 46 42 44 44
56 78 54 36 31 30 32 34 35 34 36 36 35 36 36 39 43 43 40 40 41 39 39 40 42 42 41 39 38 42 47 49 52 52 50 51 51 50 49 48 43 44 47
50 57 56 39 39 37 37 37 36 37 38 38 38 39 39 46 51 49 45 47 47 44 43 43 42 39 39 40 41 42 44 46 47 51 53 54 54 56 54 50 46 44 42
51 52 50 44 43 41 40 40 41 42 42 43 43 45 46 52 61 54 51 52 50 50 47 46 41 39 39 41 42 42 43 45 48 53 59 60 63 62 58 54 51 50 48
55 49 47 47 43 43 44 45 48 49 48 49 50 50 55 53 70 59 58 59 57 56 53 48 39 39 40 41 42 44 46 49 54 60 62 62 62 61 56 55 51 53 53
76 58 53 52 49 51 53 56 55 55 55 56 56 63 67 66 69 66 65 65 65 62 56 48 46 46 47 49 50 52 53 55 60 62 63 61 60 57 54 52 50 52 54
90 85 71 59 58 58 61 63 61 64 65 65 73 77 76 74 77 80 77 74 71 72 59 57 61 62 60 55 56 56 57 60 65 62 59 59 60 58 52 52 51 52 52
96 93 91 89 68 68 70 72 76 76 72 75 85 84 82 79 84 88 84 89 87 80 69 72 72 70 66 66 66 64 63 64 62 57 55 58 53 52 50 50 49 52 52
90 88 88 96 92 88 84 82 80 82 90 90 92 94 90 86 92 99 95 92 92 90 83 79 77 76 72 67 66 60 59 56 56 55 52 53 49 44 42 45 47 44 46
99 97 96 92 89 87 85 91 84 82 80 84 90 90 88 88 90 91 95 96 95 94 91 88 88 77 71 70 64 58 54 52 48 46 44 44 42 41 42 41 44 44 46
98 96 91 88 88 89 93 92 84 82 84 83 83 85 85 85 87 95 97 98 96 94 92 90 84 74 68 64 57 53 47 43 38 37 37 37 39 41 40 42 43 44 45
95 93 96 92 86 87 90 91 90 88 87 89 86 89 88 85 86 97 98 95 94 92 86 77 68 64 64 63 55 48 38 33 32 33 34 36 37 39 41 42 45 45 45
90 94 93 94 91 90 92 93 89 86 89 91 92 95 94 88 92 93 92 92 89 89 82 76 72 66 60 56 50 39 33 31 32 33 35 37 40 40 42 43 48 48 46
95 94 92 93 92 94 96 96 94 95 88 90 98 97 96 93 91 91 87 84 86 83 81 74 65 56 52 45 41 34 31 32 34 34 36 39 40 42 43 46 50 51 50
97 95 95 96 96 95 92 90 92 94 95 92 95 93 94 91 93 92 92 96 94 83 76 66 60 55 47 41 36 33 32 32 34 37 36 36 40 42 43 47 48 49 50
79 78 81 84 88 87 89 88 86 82 81 92 94 94 94 97 93 98 96 86 77 68 72 67 59 52 45 39 37 35 35 34 33 36 38 39 43 43 44 48 53 55 54
56 59 62 64 67 68 69 71 70 73 77 77 82 88 97 97 95 91 84 79 76 69 65 62 55 49 40 38 37 36 34 36 35 37 38 40 43 44 46 51 54 56 56
44 46 45 46 48 51 53 54 56 56 66 72 78 81 90 90 84 78 76 77 67 63 60 56 47 44 41 38 38 37 37 36 39 39 41 43 45 46 49 53 55 57 56
38 39 41 42 42 43 47 50 54 54 56 63 69 79 84 89 80 75 81 82 72 65 58 53 47 40 39 38 39 39 39 38 40 44 45 46 49 50 52 51 54 58 55
36 35 36 38 41 45 46 45 47 49 53 55 58 67 75 84 82 80 84 82 84 78 59 53 47 39 38 40 41 40 42 43 45 46 47 48 50 50 52 53 53 55 55
32 34 36 36 40 43 45 49 51 51 53 54 56 59 66 76 78 76 76 77 73 74 54 51 42 38 41 42 44 46 46 46 48 47 46 47 50 51 57 58 48 48 44
28 30 32 35 37 41 45 49 52 55 56 57 60 60 59 59 62 65 67 68 61 56 54 47 42 41 44 45 49 50 49 48 47 48 45 46 48 49 44 41 37 34 35
22 26 30 33 36 42 47 50 53 54 57 63 62 62 64 68 67 64 63 60 58 55 51 49 46 47 50 51 51 52 49 47 42 38 37 35 38 38 39 39 39 39 38
16 18 25 32 39 41 47 52 57 59 59 65 65 68 69 68 67 65 66 64 62 59 56 53 55 55 56 54 49 46 45 39 39 34 32 37 38 39 36 39 42 42 41

GFSMA_prec_cthk_096.txt.gz
RH
86 90 83 81 62 50 45 37 30 27 27 27 28 28 28 27 25 24 26 28 28 27 27 28 28 27 27 28 31 36 42 45 50 51 49 46 44 42 39 40 37 38 41
90 100 97 84 66 52 53 48 36 28 28 29 29 29 29 28 26 28 29 31 32 31 31 31 30 30 30 32 34 35 39 47 53 52 51 47 44 42 41 42 45 42 43
84 93 90 79 59 53 55 55 40 31 30 31 31 30 30 29 29 30 32 33 35 36 34 33 34 36 37 38 37 38 41 50 53 50 48 46 45 44 46 49 49 47 47
77 90 87 81 75 68 60 55 38 33 34 34 33 33 33 32 30 33 35 37 40 41 37 36 37 39 40 39 37 38 41 44 47 47 47 47 50 49 50 52 52 49 45
69 70 89 88 68 60 54 46 38 36 37 37 36 37 36 36 36 36 38 41 46 51 44 39 40 40 39 38 39 41 40 43 47 45 46 48 53 53 56 57 53 50 47
78 62 65 80 81 53 52 43 38 39 38 39 40 39 41 40 41 42 43 49 60 56 48 45 43 43 39 39 41 41 42 43 46 49 52 55 58 57 57 55 52 51 49
83 83 60 63 93 76 51 42 42 42 41 44 45 45 46 47 46 46 53 49 67 61 54 52 49 45 40 42 44 46 48 50 51 53 59 62 60 58 57 55 52 49 48
89 82 71 55 59 66 57 52 48 46 49 52 51 53 54 53 55 57 56 59 68 68 61 58 56 52 49 49 53 54 55 53 52 63 63 63 60 55 58 54 51 48 46
92 84 76 65 65 59 51 51 51 54 51 53 56 62 67 66 63 63 66 71 76 74 77 73 64 57 58 59 64 65 62 60 61 63 65 62 58 55 53 50 47 41 40
97 94 84 73 62 55 53 55 55 59 60 65 72 79 76 72 73 73 78 79 81 82 84 83 78 68 68 69 71 68 66 64 64 63 62 60 60 57 48 42 38 39 38
98 96 93 93 86 72 71 72 68 68 69 74 80 81 88 92 90 92 86 82 83 86 96 90 89 79 78 75 74 73 68 65 60 59 58 56 55 45 41 39 34 37 37
99 97 93 98 99 95 89 93 84 82 87 82 90 89 88 86 90 91 90 89 88 87 89 94 88 85 86 83 79 72 68 63 55 49 49 47 40 37 37 36 36 37 37
98 97 98 98 94 95 94 98 97 93 90 88 88 87 90 81 84 85 85 86 87 90 92 93 92 92 87 83 77 73 62 55 49 41 37 38 35 35 36 37 37 37 37
98 98 99 99 98 98 97 97 95 93 91 88 89 96 92 85 90 87 84 87 89 92 93 95 95 91 86 76 73 68 62 53 47 36 31 30 33 35 37 36 38 38 37
96 98 96 97 98 98 98 97 96 95 93 93 93 94 93 92 92 90 90 95 95 91 95 94 91 85 80 76 71 64 56 51 38 31 30 31 34 35 36 38 39 39 40
97 96 96 97 97 97 98 98 96 95 96 92 92 94 96 96 97 98 97 98 98 92 92 93 92 87 80 74 65 58 51 42 34 31 31 31 35 35 37 37 38 39 41
97 98 95 96 96 94 96 96 96 97 96 97 98 94 93 96 98 96 96 91 94 90 93 91 86 84 79 71 66 59 50 42 34 32 32 33 36 35 37 39 38 39 41
86 87 88 89 90 93 96 96 95 93 93 94 96 98 96 94 95 96 94 94 96 95 92 90 87 80 76 69 69 57 45 38 36 35 34 37 38 36 38 39 40 42 43
57 60 65 68 70 72 80 86 89 89 89 89 90 88 92 98 95 95 96 96 96 97 92 88 81 76 76 70 61 50 40 36 35 35 36 36 37 38 40 41 41 42 44
45 46 48 49 48 51 56 62 68 72 77 79 80 82 84 85 94 96 98 96 96 96 86 81 77 74 69 62 55 43 38 37 36 37 36 37 38 39 41 42 43 44 46
37 37 37 38 41 45 50 52 53 56 58 62 64 69 72 74 79 85 91 98 97 90 81 71 68 63 54 52 48 43 40 37 37 39 39 39 39 42 42 43 44 45 47
30 31 33 33 32 36 40 42 45 47 50 52 56 61 63 65 72 78 86 95 89 85 78 79 73 64 64 57 50 39 39 39 40 42 44 43 43 44 45 46 45 46 49
21 22 26 29 29 34 37 39 41 43 46 48 51 53 58 62 69 73 81 92 96 89 95 90 86 93 84 61 49 42 41 41 45 47 47 45 44 43 46 46 48 48 42
14 14 15 17 22 29 32 36 42 44 47 49 49 52 55 60 64 70 70 79 89 93 89 88 85 82 86 69 48 44 43 48 50 49 49 47 44 41 42 44 46 37 30
12 12 12 13 15 18 25 33 38 43 47 50 56 56 59 60 66 64 69 69 76 82 88 83 84 79 72 55 45 46 49 52 52 52 49 46 39 37 36 36 34 29 27
15 15 15 16 15 15 21 26 33 39 44 50 55 58 62 66 72 72 73 71 68 66 68 62 64 67 58 54 53 55 56 56 55 51 46 40 36 35 34 33 34 33 33

GFSMA_prec_cthk_099.txt.gz
RH
82 88 87 88 79 79 60 59 46 40 29 27 27 27 27 27 26 25 24 25 24 24 25 26 27 28 26 27 29 32 36 41 47 50 49 47 43 41 39 39 39 41 42
78 85 92 92 86 81 71 57 51 50 37 30 29 30 29 29 28 27 25 26 27 27 28 29 28 26 28 29 32 33 36 41 51 51 49 48 45 43 43 42 44 46 46
69 82 85 95 93 96 70 62 57 55 53 41 32 32 32 32 30 29 29 30 30 30 31 29 33 30 33 36 35 35 39 43 48 54 50 47 46 46 46 45 51 51 47
64 74 87 95 98 93 83 64 63 58 56 48 37 34 34 34 33 31 31 32 34 34 35 35 38 37 36 37 37 36 37 39 44 48 45 43 46 46 47 51 53 53 50
72 71 82 85 88 85 83 74 67 61 58 51 42 39 38 36 36 34 34 35 37 39 39 41 41 41 39 37 35 36 39 40 42 46 49 49 48 50 54 54 54 53 51
71 80 76 74 83 84 81 80 78 69 59 52 47 43 41 39 39 38 39 38 41 43 46 47 54 52 45 39 37 38 40 42 46 51 54 53 54 56 58 56 55 52 49
74 80 82 85 79 84 81 80 76 71 63 56 56 49 42 42 41 41 42 43 44 47 51 55 64 68 54 45 40 41 44 46 50 56 59 60 62 61 59 56 54 51 46
80 81 84 87 81 85 90 82 66 68 57 55 52 48 51 47 44 44 48 50 53 52 57 64 66 67 65 56 47 45 50 54 58 59 63 66 65 61 58 55 53 48 42
87 91 87 90 89 86 82 80 75 69 63 58 52 57 58 56 54 57 61 64 57 60 67 73 71 73 74 68 62 59 60 60 61 65 65 65 64 63 59 56 52 42 38
93 95 96 95 95 91 79 66 81 71 64 55 59 63 63 63 64 65 65 67 68 72 79 77 81 83 82 77 73 72 68 67 67 70 71 66 62 61 59 54 44 39 35
88 92 97 97 98 89 84 74 77 74 63 63 65 62 63 64 69 68 70 76 87 81 85 83 85 85 85 88 87 80 73 73 71 72 67 68 68 62 52 43 39 36 34
91 91 95 98 99 95 89 79 75 71 71 70 72 72 77 81 85 84 84 85 90 89 89 89 89 89 88 89 88 84 80 76 75 73 66 62 58 52 41 38 35 35 34
92 96 94 97 98 94 93 86 81 80 81 84 89 87 92 91 90 92 90 89 91 88 86 87 87 90 90 88 90 88 83 81 77 69 60 59 52 42 34 32 32 32 31
94 97 96 93 98 97 97 96 91 93 92 94 92 99 96 95 94 94 91 93 96 90 85 84 87 88 93 93 95 93 86 80 73 66 58 49 41 33 31 32 34 34 33
96 98 98 98 97 98 99 98 96 95 93 92 95 97 95 93 92 91 91 95 99 94 87 86 91 95 95 96 92 84 81 78 75 65 53 42 33 30 32 32 34 31 34
96 96 98 97 98 98 98 99 99 98 96 98 96 92 96 94 93 93 98 98 95 96 94 93 96 96 98 96 88 87 85 78 68 55 48 36 30 31 32 33 34 36 35
97 98 97 96 97 97 98 97 98 97 98 98 98 99 96 96 95 96 96 96 95 99 98 97 98 99 97 94 89 88 84 76 65 54 45 39 33 32 32 32 31 33 35
81 85 90 93 95 96 97 97 95 96 97 98 98 99 98 98 97 95 97 97 94 97 99 97 97 95 95 94 90 90 85 77 68 62 48 34 32 32 33 33 32 36 38
59 61 63 67 70 76 82 88 93 96 98 96 94 95 95 97 96 98 97 96 95 95 93 93 93 92 94 91 87 89 84 78 74 61 44 33 31 33 32 33 34 39 40
53 53 50 49 51 53 55 57 63 73 80 86 91 95 95 94 95 95 96 95 97 98 98 96 99 95 95 91 91 86 80 78 68 55 37 33 34 34 35 36 37 40 41
30 31 34 37 40 41 44 45 47 49 54 60 71 74 79 85 91 92 92 94 99 97 97 98 98 99 97 85 81 83 73 69 60 46 34 33 34 36 37 39 40 42 42
21 20 22 23 26 30 33 36 37 39 41 44 49 54 61 69 75 79 81 87 90 89 95 94 99 97 95 87 83 75 68 59 49 39 35 36 37 40 41 43 43 43 43
13 13 13 14 15 17 20 25 30 33 39 41 42 46 50 53 58 63 72 77 79 83 89 89 97 98 97 91 89 83 77 67 50 42 40 41 41 44 46 44 44 43 43
13 12 12 13 13 14 14 14 17 24 30 38 42 47 48 49 54 56 56 65 70 75 79 91 94 96 95 94 94 98 97 84 70 50 43 43 43 46 46 46 42 42 43
12 13 14 14 14 14 15 15 16 16 20 29 35 42 47 53 57 59 61 62 65 67 74 89 94 99 97 98 93 94 87 81 71 62 48 46 46 46 46 43 40 37 33
11 11 12 13 14 15 16 18 19 28 26 24 27 35 43 48 55 63 66 67 68 71 74 76 76 81 87 94 91 88 82 72 64 58 47 48 49 46 43 39 38 34 31

GFSMA_prec_cthk_102.txt.gz
RH
77 82 85 85 89 89 79 68 58 51 43 41 28 25 25 26 26 26 25 24 25 25 24 24 25 26 25 24 25 27 31 35 40 46 47 47 45 44 43 42 40 43 45
76 75 79 86 90 89 86 80 63 60 52 45 44 33 27 27 28 28 27 26 27 28 27 27 28 28 26 26 27 30 31 36 45 51 50 48 47 45 43 42 41 45 48
67 71 69 74 86 92 92 90 73 65 55 50 49 46 37 30 30 30 29 27 28 30 30 30 31 30 29 31 33 35 39 41 42 46 47 48 47 45 45 44 45 48 52
68 66 64 62 74 85 89 99 86 70 64 58 55 51 47 42 34 32 31 30 31 32 33 34 33 33 36 36 39 40 39 33 35 44 46 47 49 55 52 49 50 53 53
67 67 70 66 73 79 90 94 93 84 75 66 63 56 54 50 42 36 34 32 32 33 35 37 37 39 38 39 44 45 42 40 37 39 45 52 55 55 56 57 55 55 55
69 72 72 72 79 78 77 87 94 85 81 77 71 61 57 56 51 41 38 37 35 35 38 40 41 43 43 42 48 48 47 47 43 44 48 57 63 64 66 64 58 55 54
70 75 77 79 85 81 78 86 92 90 89 81 77 67 62 61 57 45 42 42 41 40 43 45 46 51 50 56 55 54 52 56 53 51 51 59 65 69 68 63 57 55 51
71 74 77 77 82 81 84 82 85 88 87 85 82 76 72 63 61 55 50 50 46 44 50 52 56 55 58 62 61 60 56 57 58 61 56 60 66 70 69 63 59 55 50
75 78 78 83 83 88 91 96 93 91 90 87 80 76 75 67 60 51 49 52 48 56 53 55 58 63 65 66 67 74 68 62 66 68 70 71 71 72 73 65 60 56 46
72 78 78 82 82 94 95 96 95 91 91 82 76 73 70 67 61 57 57 57 61 64 65 67 72 73 75 72 79 81 77 71 74 76 80 77 79 78 77 66 60 52 41
73 77 82 88 94 96 96 95 95 92 92 90 78 77 80 73 65 65 65 69 73 73 75 72 70 73 80 80 86 87 85 83 86 82 81 82 81 83 78 66 54 45 34
70 74 83 86 94 95 96 96 97 96 90 89 90 87 81 76 68 71 75 72 75 76 80 79 79 83 86 86 89 89 88 86 83 82 82 81 83 83 70 63 51 36 31
72 74 79 86 92 94 94 99 99 97 92 89 90 94 84 79 76 81 83 84 86 90 91 89 84 85 88 91 92 90 90 86 85 84 82 83 81 75 68 59 42 31 29
80 80 83 86 95 95 95 96 99 96 94 94 94 91 81 79 87 92 93 95 97 94 90 88 88 88 89 89 90 91 89 88 89 86 83 80 74 71 63 50 36 32 31
84 84 90 92 96 96 98 97 98 96 95 94 94 87 83 88 90 93 93 98 98 96 92 88 88 87 92 93 92 92 95 94 91 86 79 77 74 66 52 42 32 31 31
92 92 92 95 96 97 98 98 98 99 98 96 91 94 94 97 97 96 95 97 97 97 92 93 93 91 90 92 94 97 98 92 90 87 84 81 73 63 49 35 32 31 31
90 90 92 96 97 98 97 98 97 96 98 99 99 96 93 91 92 98 97 97 97 98 97 94 97 92 93 97 96 97 94 94 92 91 86 80 73 60 43 32 33 32 29
74 77 77 79 82 92 94 97 97 96 98 95 97 98 97 96 95 99 97 97 98 98 98 97 95 94 97 97 98 96 96 95 94 92 86 80 69 55 41 34 37 35 31
71 69 68 66 66 69 71 75 83 90 94 96 99 98 95 96 98 97 99 98 97 97 99 98 98 98 99 96 96 96 96 96 96 93 87 81 70 58 47 40 35 32 32
56 53 53 53 54 54 54 54 56 59 64 72 83 89 93 98 99 98 97 98 97 99 97 98 99 98 97 98 98 98 97 94 94 92 87 80 69 57 49 41 33 32 34
24 25 26 26 28 30 30 33 38 41 43 46 50 54 62 76 89 94 96 96 95 97 99 96 98 98 98 99 98 95 97 94 94 90 86 73 62 51 45 43 35 35 35
14 14 13 13 13 14 14 15 17 21 28 32 34 37 43 48 54 62 73 87 89 90 94 98 95 96 99 97 99 99 98 98 95 90 78 63 54 47 43 42 39 38 37
11 10 10 10 11 11 12 12 13 13 14 15 20 27 34 41 46 47 53 62 71 79 85 90 92 96 93 89 95 97 98 96 93 90 78 64 54 45 40 40 39 40 42
8 8 8 9 9 9 10 11 12 13 13 14 14 16 22 29 39 46 49 49 55 62 71 76 82 86 89 97 98 96 97 97 96 91 89 77 68 60 52 47 44 49 45
9 8 8 8 8 8 8 8 8 9 11 12 15 17 19 22 27 38 47 50 54 53 61 65 68 76 83 84 93 96 94 98 98 97 96 81 74 71 65 57 53 44 39
11 11 10 10 11 11 10 9 9 9 9 9 10 19 25 26 27 28 39 48 52 58 63 65 65 66 69 95 85 99 93 99 98 98 90 79 74 72 67 56 45 40 38

GFSMA_prec_cthk_105.txt.gz
RH
75 75 76 80 83 85 86 87 78 65 58 51 46 42 33 29 28 26 25 23 23 23 24 23 23 24 26 25 25 26 30 32 35 41 46 46 45 44 43 43 40 40 41
80 81 81 84 88 94 96 97 93 78 63 58 50 46 44 38 31 29 28 27 25 25 25 25 25 26 28 27 27 30 34 34 42 48 51 50 47 45 44 45 45 45 45
78 78 80 79 79 82 91 97 97 89 79 69 61 54 51 51 47 36 33 30 28 26 28 28 28 29 28 28 30 35 35 44 50 53 55 51 47 47 48 49 49 50 51
80 78 75 69 68 72 74 79 85 95 93 79 69 64 54 52 52 50 41 34 31 29 30 31 32 32 31 32 36 39 39 38 36 39 50 54 60 55 54 53 58 59 56
76 79 78 72 68 66 65 68 70 84 94 93 79 71 62 55 56 56 53 45 37 33 33 34 35 36 36 35 36 37 37 34 36 41 43 50 58 56 54 56 62 61 55
71 68 71 69 68 67 67 68 72 76 88 92 90 81 73 66 62 62 62 53 49 41 34 35 38 38 40 41 41 40 42 43 45 48 51 52 58 60 57 58 63 60 53
72 68 66 68 67 68 70 74 75 79 82 93 91 84 82 80 72 66 64 60 56 50 45 39 42 44 45 47 47 50 52 53 49 49 53 56 60 63 62 63 63 63 57
70 71 70 69 69 67 74 77 72 79 80 83 87 84 87 77 74 75 67 63 61 60 50 46 46 50 51 55 59 60 62 61 54 55 55 58 64 68 70 69 69 67 60
69 69 69 67 69 68 75 74 74 77 81 87 93 94 90 82 83 73 66 64 62 60 60 58 60 62 66 70 69 68 69 71 66 63 61 64 71 75 77 75 74 69 61
62 63 65 68 68 74 76 78 83 80 86 88 92 92 92 92 91 80 70 66 68 64 63 63 63 66 69 73 73 74 81 82 79 72 73 76 81 81 80 82 79 70 59
58 63 68 72 75 75 79 77 82 86 89 94 95 96 93 91 91 88 78 71 65 63 62 65 69 74 80 79 83 81 85 87 81 80 83 82 89 84 84 86 79 69 57
66 70 73 74 75 72 75 81 88 90 96 97 98 96 95 92 87 85 81 72 67 69 73 75 78 79 81 86 83 84 83 87 88 86 88 87 87 91 91 88 81 69 60
68 74 75 75 76 74 75 80 89 93 94 96 96 95 96 95 94 91 83 84 77 72 76 81 85 87 88 90 87 89 91 91 92 90 88 84 81 90 92 85 78 69 57
72 74 72 76 79 77 76 80 89 92 93 93 97 98 97 95 93 96 91 86 87 81 82 82 88 89 93 92 91 93 93 93 94 92 90 85 87 89 85 81 75 66 54
79 81 80 82 84 82 84 90 93 94 95 94 97 99 96 94 96 96 95 95 91 93 89 84 93 94 91 93 93 94 94 94 95 93 89 92 91 88 86 81 74 65 53
76 79 81 82 88 88 90 90 93 93 96 98 95 98 97 96 95 96 96 95 95 92 91 96 93 95 95 93 92 94 97 96 94 96 94 94 91 87 84 81 70 64 52
86 81 80 82 86 87 88 90 92 96 95 97 97 99 99 98 97 97 97 96 95 96 90 95 90 93 96 95 96 98 98 96 94 97 93 90 88 89 83 75 69 64 48
82 74 73 73 79 79 78 85 87 93 94 97 99 97 97 98 98 97 97 96 95 94 98 96 95 96 94 94 96 97 98 99 98 95 93 93 92 89 83 77 70 59 44
71 70 69 67 64 64 66 67 70 74 77 83 92 95 97 98 98 99 99 98 98 96 96 98 98 97 95 97 97 98 99 99 98 97 96 94 93 89 79 72 67 56 48
55 55 55 55 54 52 50 49 49 51 55 57 60 66 75 87 94 98 98 97 97 98 98 97 98 97 98 98 98 98 98 99 97 97 96 95 94 86 83 75 66 58 53
17 16 17 15 16 16 16 18 19 21 24 27 32 37 42 50 58 64 75 90 95 97 98 96 97 98 99 97 97 97 98 98 97 97 96 95 95 89 82 72 60 57 53
7 7 7 7 7 7 8 9 9 10 11 12 14 16 19 25 31 36 46 56 66 78 84 88 92 93 97 97 99 98 98 99 99 99 98 97 94 91 81 68 57 53 50
8 8 8 8 8 7 7 7 7 8 8 9 10 11 12 15 17 22 30 38 43 51 63 68 78 81 88 92 96 98 97 98 97 96 97 97 98 92 81 66 56 52 50
11 11 11 11 10 10 10 9 9 8 7 7 7 7 8 10 12 16 18 23 32 40 48 54 64 64 78 95 96 97 98 97 96 98 97 97 96 96 86 70 61 57 54
14 14 14 13 13 13 12 12 12 12 11 10 8 7 8 8 8 11 19 24 23 30 42 50 52 58 66 71 83 86 92 92 98 98 97 97 97 95 87 76 67 64 62
17 17 17 18 17 18 18 18 17 17 15 14 12 11 9 9 16 18 18 21 23 24 29 42 52 58 59 61 70 77 84 80 90 97 92 96 98 98 90 77 71 68 68

GFSMA_prec_cthk_111.txt.gz
RH
83 82 81 83 78 70 71 73 76 82 90 85 74 71 60 59 55 54 47 43 35 27 25 24 23 21 20 22 24 24 23 24 28 32 35 40 44 44 41 40 42 42 41
86 86 88 87 84 83 80 81 80 79 86 88 89 77 66 64 61 55 53 47 44 39 30 27 25 28 26 24 25 27 25 25 29 30 37 45 49 46 43 42 45 46 47
74 84 90 92 92 90 90 92 90 89 88 92 92 86 79 75 68 61 56 52 49 48 46 38 28 27 28 35 33 38 36 30 39 43 51 50 49 48 46 48 48 49 50
69 80 90 93 93 92 90 90 87 90 92 94 94 96 90 78 73 69 65 62 54 52 51 49 47 36 31 29 29 31 33 32 36 49 51 40 37 41 46 49 50 54 54
66 71 80 93 93 90 89 87 86 84 85 87 86 87 85 79 77 73 65 67 65 60 59 55 53 50 39 36 35 32 31 38 46 47 42 36 34 37 42 47 55 57 56
69 69 74 89 95 93 88 86 84 82 83 87 86 84 82 80 78 76 73 68 69 75 67 58 57 56 51 48 46 42 39 38 43 42 39 35 37 40 45 54 57 56 58
65 63 65 73 87 85 80 80 80 87 85 86 86 87 84 81 77 76 71 70 70 78 74 65 63 60 59 56 53 53 47 47 49 50 47 45 42 45 49 57 62 59 60
67 64 64 62 80 85 81 81 81 83 81 83 82 85 80 74 70 69 74 74 71 71 72 69 68 64 66 65 58 58 56 56 56 60 61 61 54 49 54 60 61 65 69
78 71 68 63 71 85 83 82 79 83 83 84 80 85 82 73 69 66 66 68 71 74 79 76 70 69 67 68 67 66 64 64 62 68 73 69 66 57 63 68 74 73 76
70 71 74 75 72 73 79 82 82 78 83 88 91 91 84 76 72 68 71 69 70 70 74 75 68 68 68 69 68 67 66 71 76 79 74 81 77 78 76 79 79 79 84
81 78 76 76 76 73 75 79 82 79 81 88 89 88 82 76 75 78 76 74 74 76 78 83 82 79 70 71 70 66 68 71 75 82 80 85 85 82 82 88 87 90 93
80 78 67 62 64 71 73 76 81 84 84 84 87 89 86 76 72 78 85 79 81 83 86 89 85 82 77 75 73 72 71 74 74 78 80 87 88 84 87 94 95 96 95
71 67 66 66 70 70 71 71 72 80 86 82 79 83 80 75 78 79 81 82 88 89 94 92 91 85 81 79 75 73 75 77 78 81 88 87 88 91 94 94 97 97 97
80 80 77 74 75 71 75 79 76 73 76 82 84 85 81 78 79 81 86 85 87 88 90 90 95 92 90 85 78 76 76 81 83 87 93 89 91 94 96 96 97 97 99
72 72 72 73 72 74 77 79 80 82 82 86 84 82 80 84 82 87 87 90 88 87 91 91 95 94 95 94 86 81 77 80 83 87 84 84 85 90 94 95 94 96 98
70 70 67 66 63 69 72 71 70 72 78 82 81 82 84 86 90 91 88 90 91 91 92 93 95 97 96 94 93 83 79 83 85 89 86 87 87 90 95 95 95 96 98
79 83 81 74 63 67 71 72 70 70 76 80 84 87 89 89 90 93 94 93 94 99 98 99 96 94 97 96 96 94 91 90 88 88 86 88 91 92 94 95 97 98 99
58 63 72 80 79 82 71 79 81 89 74 75 87 86 87 92 94 94 92 96 97 99 98 98 96 97 98 99 98 97 96 96 92 91 93 91 90 90 95 96 97 98 99
55 55 57 57 64 69 67 63 69 68 68 67 66 68 70 71 76 84 87 93 96 98 99 98 98 98 98 99 98 97 97 96 95 95 94 91 92 94 96 97 98 99 98
48 49 48 45 46 49 49 46 42 40 42 44 47 49 50 51 51 59 63 65 79 85 91 95 98 98 98 98 98 97 96 96 93 94 95 95 95 97 97 98 98 99 99
19 18 18 23 21 21 23 21 21 25 20 18 17 26 26 19 21 25 29 32 36 47 51 63 82 84 86 91 91 90 85 87 91 95 95 96 96 96 97 98 98 99 97
9 8 10 13 10 12 14 13 11 8 8 8 8 7 7 7 8 7 10 13 13 15 20 31 38 44 56 68 77 84 83 81 82 88 89 86 88 93 96 97 98 97 96
11 11 11 12 12 12 12 12 13 13 13 13 13 12 11 12 11 13 13 13 11 14 16 21 25 30 35 42 52 64 78 79 80 84 85 83 86 88 87 94 94 93 94
13 14 15 15 16 16 17 18 19 19 22 23 25 24 25 24 22 25 21 18 15 14 15 13 17 22 25 29 39 49 54 66 73 75 79 79 85 85 90 90 90 93 93
22 26 28 30 32 32 33 32 33 35 35 34 36 35 35 31 28 24 23 23 22 21 18 15 15 18 20 22 25 33 48 55 60 63 74 79 80 86 91 97 95 96 98
40 41 39 38 36 35 36 37 35 34 33 33 34 35 39 40 41 37 34 34 32 29 23 19 18 14 13 12 13 23 36 47 53 55 58 75 79 87 88 95 98 99 99

GFSMA_prec_cthk_114.txt.gz
RH
64 69 74 78 81 78 72 72 74 71 77 79 78 75 72 64 60 59 56 54 47 42 39 33 27 24 22 21 21 22 23 21 22 26 29 32 38 41 41 38 36 37 37
58 66 73 73 79 84 82 77 79 80 82 84 87 85 83 79 75 69 61 59 55 48 45 41 37 31 28 26 22 22 24 23 23 26 28 32 40 45 44 40 41 41 40
61 61 61 68 82 79 85 87 90 91 90 89 87 87 87 85 79 79 73 72 65 56 52 47 47 44 40 34 34 34 35 34 28 30 35 43 46 47 45 44 43 43 43
64 59 57 67 67 81 88 92 96 97 98 98 96 96 93 92 88 81 78 78 73 68 61 55 52 51 49 48 47 40 35 40 45 41 42 49 48 40 37 41 43 44 46
61 60 58 57 67 72 84 92 95 95 94 95 95 94 95 92 91 88 82 76 70 73 68 61 63 60 59 53 52 48 41 37 36 37 42 46 42 40 38 36 40 42 48
67 72 77 76 67 63 79 77 92 95 92 91 92 92 93 90 89 86 81 76 72 69 66 66 62 64 68 59 56 55 50 48 46 45 46 47 44 41 40 41 43 48 53
73 75 73 73 67 69 68 74 81 89 89 91 92 92 92 91 91 90 88 83 75 74 65 65 63 64 66 62 61 61 56 51 53 54 53 56 51 50 48 49 51 57 53
77 71 63 60 66 66 74 66 64 84 85 88 93 93 90 87 89 88 85 81 79 72 67 65 64 66 61 61 62 64 63 62 62 57 57 60 61 67 61 57 60 59 56
81 68 80 76 61 60 59 65 64 67 77 85 91 92 90 84 86 87 84 78 70 68 69 71 72 69 70 71 69 70 68 68 63 63 65 72 74 77 76 71 65 66 70
71 88 97 81 66 66 62 65 69 69 85 89 90 89 89 88 91 91 88 77 71 67 68 69 71 72 68 67 72 71 67 70 69 69 70 73 77 82 84 82 75 75 78
90 84 82 74 77 69 68 70 79 81 82 89 92 92 91 94 92 94 84 76 73 67 75 71 73 73 72 69 69 69 67 71 70 69 70 72 77 81 82 81 81 81 85
88 96 92 87 81 80 77 76 75 78 80 82 87 91 94 95 93 93 89 83 78 69 75 80 77 79 78 79 80 81 83 78 73 73 72 70 80 87 82 80 81 85 94
98 98 99 92 88 78 66 65 66 69 75 78 80 85 87 88 91 91 88 83 84 77 74 73 78 84 83 84 86 89 87 81 76 74 74 75 80 85 86 78 82 87 96
97 96 93 83 78 68 68 69 69 71 74 74 75 79 82 85 92 93 87 84 81 75 76 71 77 79 83 88 89 92 90 84 81 78 76 78 81 84 83 84 84 86 91
93 88 78 77 73 74 73 72 74 76 75 75 79 83 83 89 91 90 91 89 98 94 84 73 80 81 82 83 92 94 96 90 86 84 82 81 82 88 87 87 84 84 86
80 75 72 68 64 66 64 65 67 70 72 77 75 81 88 84 85 86 85 86 88 88 83 90 79 83 86 90 93 94 95 95 95 90 90 85 83 83 86 84 85 87 91
68 69 71 72 76 70 75 72 72 75 78 76 70 75 75 78 82 89 89 91 91 93 90 90 86 86 92 97 98 98 95 97 96 95 92 90 92 90 88 87 87 89 92
64 64 63 56 56 67 73 74 72 70 75 72 80 86 81 78 76 83 84 82 92 95 93 89 91 92 94 97 97 98 98 99 97 97 96 96 94 92 92 90 89 88 90
72 71 70 58 48 45 50 55 61 64 64 55 57 64 74 78 77 72 70 79 75 84 87 87 93 97 97 98 99 98 99 99 98 98 98 98 96 97 96 94 91 93 93
34 35 30 27 31 35 36 38 43 46 48 45 39 40 39 44 44 49 50 48 55 54 61 67 77 88 92 95 98 99 99 98 97 97 98 98 98 97 96 96 96 95 95
19 13 16 22 21 28 27 26 27 24 20 20 20 22 29 27 22 22 28 40 36 27 35 38 46 50 66 82 92 96 96 95 96 97 97 96 97 96 93 96 96 97 98
8 8 9 9 9 10 10 11 11 14 18 19 16 20 14 11 13 14 14 13 15 17 18 21 26 29 31 49 54 65 81 86 79 89 85 83 85 89 93 89 88 94 97
11 12 12 13 14 15 16 17 17 17 16 16 18 18 19 21 22 22 21 19 15 13 15 18 19 19 18 18 23 30 37 47 57 64 76 76 80 83 88 82 84 87 93
16 16 18 21 24 26 29 29 30 28 28 28 29 30 31 30 30 30 27 24 22 22 22 21 21 19 17 14 14 19 22 27 37 46 57 66 73 75 81 82 83 89 87
25 26 29 31 34 36 41 45 44 40 38 37 37 37 37 38 38 37 36 32 33 29 26 24 23 23 21 19 18 17 13 17 23 29 41 50 58 71 74 78 83 85 86
38 42 42 43 45 47 48 48 48 48 46 44 40 36 35 37 42 42 41 40 39 33 32 29 26 25 24 23 23 22 23 24 24 25 32 38 51 59 71 74 78 83 87

GFSMA_prec_cthk_117.txt.gz
RH
58 56 59 58 57 70 76 71 69 68 70 75 79 76 74 67 62 57 61 61 58 52 49 43 40 35 29 26 23 21 21 21 21 21 25 29 32 36 39 39 38 36 37
53 64 68 59 60 65 75 78 77 74 76 78 80 81 82 81 75 69 67 71 69 62 55 49 45 43 40 35 30 26 25 24 22 21 22 25 28 35 42 42 40 40 39
42 51 59 66 67 67 65 68 78 84 82 84 85 89 88 86 85 84 79 73 75 69 65 60 55 51 46 45 44 41 40 37 36 30 25 27 31 38 44 43 43 43 42
46 53 61 70 71 71 60 62 72 82 88 94 94 94 94 92 91 88 88 85 81 78 74 72 66 63 58 54 54 52 50 49 47 52 46 46 46 52 51 40 38 43 44
38 57 61 64 69 68 61 64 70 66 81 93 97 99 99 99 98 98 94 88 86 86 83 74 71 69 63 59 52 60 57 55 51 47 42 42 49 53 50 43 44 44 47
30 44 60 65 68 69 66 63 64 73 73 86 92 95 96 96 98 96 92 91 87 82 78 75 72 68 63 61 55 61 60 58 56 53 49 45 51 56 52 48 48 50 51
40 40 53 64 70 74 79 86 88 75 71 75 90 88 93 91 92 93 92 91 88 83 80 76 72 77 66 61 59 58 62 58 61 58 58 55 52 54 54 52 48 49 55
40 47 49 56 64 78 85 90 89 76 68 69 74 88 88 91 87 90 89 87 86 88 85 84 80 74 69 63 62 59 61 54 59 65 63 64 65 65 59 57 58 57 60
31 51 62 66 63 67 76 84 83 74 75 70 70 73 87 90 85 85 87 87 87 85 82 78 80 74 71 65 68 70 66 68 62 66 68 69 69 65 64 66 75 71 67
36 47 62 85 91 86 75 80 78 72 76 77 75 71 75 82 86 87 90 89 89 88 86 82 76 72 69 69 69 73 72 72 66 66 71 72 73 71 73 74 83 80 73
54 56 61 86 97 95 96 94 93 84 72 70 75 74 78 94 97 97 98 98 94 91 90 83 75 67 70 71 69 72 76 74 70 71 68 72 71 75 76 78 86 86 84
78 79 70 86 90 97 96 97 97 92 87 78 74 77 81 89 95 98 98 92 93 89 89 85 79 73 72 78 75 75 79 78 79 75 74 71 76 77 78 81 89 92 89
86 85 83 86 95 98 98 98 95 94 90 82 73 73 78 84 86 94 95 89 87 84 85 82 81 81 77 74 74 81 82 86 85 83 82 79 81 80 82 80 82 86 88
87 84 86 92 94 98 98 93 88 80 76 74 71 72 75 78 82 83 86 86 84 86 84 81 84 78 77 77 78 78 81 84 89 90 88 87 84 82 85 80 80 83 88
89 94 94 94 94 90 90 84 76 77 74 70 71 75 78 80 81 79 83 83 85 82 82 84 82 87 93 87 83 82 83 82 85 91 93 91 90 88 83 83 82 87 90
86 85 84 83 83 80 71 69 72 70 67 65 70 70 70 75 74 78 80 81 82 89 82 81 82 86 86 82 85 84 87 86 85 96 96 95 93 91 88 89 89 91 89
64 63 62 65 64 66 66 64 67 67 66 66 67 69 72 73 74 76 77 82 84 81 77 78 85 88 84 83 86 93 87 91 93 94 95 95 96 92 92 92 93 95 94
66 68 66 59 55 55 58 56 55 61 69 71 65 61 63 75 80 79 89 81 75 74 75 84 78 78 85 91 89 92 94 97 99 99 98 98 98 96 94 96 94 95 95
31 33 41 47 49 47 53 53 47 41 46 48 54 57 62 55 50 53 63 72 83 88 74 67 74 82 83 84 91 95 93 98 95 97 98 97 98 97 96 95 96 95 96
13 17 23 21 23 27 26 24 23 25 28 28 29 33 39 51 47 43 39 40 45 50 57 62 56 63 61 65 74 86 94 95 96 98 97 98 97 98 98 99 98 98 98
8 8 8 8 8 8 9 11 11 14 20 26 30 36 32 27 26 27 30 39 39 30 26 28 47 39 35 47 56 60 69 91 95 98 98 98 98 98 98 97 96 96 96
14 13 12 12 13 13 13 14 15 14 15 15 16 17 21 27 32 36 39 29 20 22 25 27 22 23 25 19 28 39 40 51 73 86 96 97 98 98 97 96 97 96 96
24 22 21 20 20 19 20 23 25 27 29 30 30 30 31 32 32 32 30 28 27 27 24 22 21 18 17 14 14 13 21 28 30 45 64 74 86 87 87 86 87 94 92
25 30 33 34 32 32 33 34 35 38 40 40 40 41 42 40 37 37 36 34 31 29 30 30 28 26 25 21 20 19 16 13 15 14 20 35 39 45 65 76 78 81 87
21 22 25 30 34 39 44 47 56 55 53 51 50 48 45 40 39 42 47 42 37 34 36 35 35 32 28 26 25 26 22 23 23 18 13 17 17 24 33 44 66 77 82
23 27 32 36 38 38 38 39 42 43 43 44 43 45 44 44 44 47 51 50 47 43 39 39 37 32 29 28 28 30 32 34 34 33 28 32 32 31 28 25 40 59 72

GFSMA_prec_cthk_120.txt.gz
RH
41 44 45 47 52 62 64 62 66 70 66 65 68 73 78 77 71 60 58 62 60 56 55 54 49 42 38 36 31 26 23 21 21 20 21 24 29 33 35 37 38 37 37
38 47 50 49 54 62 62 58 59 71 72 71 70 72 77 83 84 76 68 66 67 63 64 64 59 53 44 41 40 36 31 28 25 24 23 23 26 28 33 39 42 41 41
25 38 49 60 57 57 63 63 63 69 81 77 75 78 82 86 87 85 83 79 76 75 75 70 66 63 57 51 46 46 45 41 39 40 35 28 27 27 31 38 42 43 44
17 25 38 54 68 66 64 67 74 74 78 76 73 78 87 89 94 90 90 91 91 85 81 76 72 72 69 62 57 53 50 50 51 50 51 52 49 49 47 49 50 46 45
20 22 26 38 58 69 67 70 75 79 75 71 68 76 83 89 96 96 96 96 94 94 93 83 83 80 78 71 69 64 60 62 63 56 53 52 49 49 52 59 58 50 49
22 28 30 29 41 58 70 73 74 79 79 75 68 74 72 85 93 96 98 98 97 94 92 93 88 88 79 72 72 68 65 62 61 68 57 55 56 51 49 55 56 50 49
29 28 33 33 33 42 58 74 79 80 77 80 71 70 70 73 75 92 95 94 95 96 95 90 89 87 82 78 79 74 63 57 57 59 60 58 57 58 56 60 55 55 52
33 31 30 37 38 41 50 60 72 82 85 89 86 82 76 69 72 90 91 94 94 92 95 95 92 89 87 84 83 82 68 65 62 58 58 57 58 61 65 64 67 66 60
43 38 31 31 42 47 52 61 68 76 87 93 89 86 83 75 74 76 84 86 89 90 89 93 95 94 93 90 88 83 80 68 61 62 58 60 59 60 65 70 76 76 68
56 53 46 33 37 50 56 63 72 78 85 90 91 89 87 86 78 72 72 80 87 87 88 90 92 93 89 87 84 80 80 80 76 75 67 64 65 64 66 70 77 77 72
76 73 57 49 41 49 57 72 81 86 86 82 86 84 85 86 84 90 80 80 93 92 91 88 92 91 92 87 81 75 75 75 74 79 76 69 68 70 70 72 76 81 80
87 92 86 72 60 51 57 65 97 98 99 89 91 91 91 87 86 88 84 79 82 92 95 94 95 92 91 91 86 80 78 77 75 74 76 72 73 70 70 70 78 80 82
90 91 87 86 79 69 57 58 75 98 98 98 97 98 95 95 91 87 84 77 76 86 94 94 95 94 93 92 88 87 80 75 76 78 80 80 79 78 77 79 80 84 85
95 93 95 94 88 80 70 75 88 97 98 97 99 96 91 86 81 79 76 74 72 75 83 86 91 89 90 92 89 86 81 80 78 76 79 79 83 83 82 85 87 87 89
81 88 92 95 95 92 89 90 92 96 96 95 89 87 82 79 76 76 75 75 75 73 73 81 84 90 90 90 88 89 90 83 81 79 77 78 81 85 86 88 90 93 90
76 77 78 74 86 85 84 88 89 89 86 82 77 74 70 67 67 66 73 72 75 71 73 72 77 77 82 86 88 92 89 85 86 83 79 78 79 86 88 89 88 92 90
52 58 63 66 62 61 64 69 75 75 67 67 68 66 64 61 68 69 70 70 71 70 71 69 71 78 75 84 85 91 92 85 86 85 83 80 81 87 89 92 91 91 94
30 27 25 30 37 50 58 57 55 53 51 46 47 51 56 59 59 54 49 56 63 74 78 78 82 80 76 74 83 84 84 93 89 85 80 84 88 89 91 96 95 95 97
10 14 13 14 21 27 29 29 26 30 36 38 37 36 38 43 47 54 61 59 52 53 52 54 65 75 79 77 66 75 78 74 83 85 84 93 93 95 96 97 97 96 94
15 13 11 10 10 10 14 14 14 19 19 23 26 32 32 34 34 35 32 34 49 50 47 42 40 39 44 58 63 58 70 64 71 82 94 93 95 94 98 98 97 98 97
24 25 24 22 18 16 14 14 13 13 13 12 13 14 15 16 20 28 33 44 39 39 39 35 34 44 40 32 36 57 49 52 56 62 77 90 92 94 97 98 99 99 98
17 18 19 21 24 27 27 25 22 21 21 22 23 25 26 29 31 31 31 29 29 34 37 39 36 30 26 39 38 24 39 47 38 51 47 62 87 95 98 98 99 98 98
16 16 16 17 19 21 23 28 38 42 42 39 36 37 39 41 43 42 41 39 37 36 36 36 31 36 36 26 25 32 25 24 25 17 36 42 43 70 90 96 98 98 98
18 19 19 20 23 27 30 33 39 40 41 43 47 47 46 46 45 46 49 51 52 49 43 41 39 36 36 34 34 31 28 28 26 19 14 27 31 33 48 70 85 96 97
19 21 24 27 31 36 39 41 43 40 39 37 37 38 39 40 42 46 48 47 46 44 46 49 46 43 42 36 31 32 29 30 28 26 18 30 23 30 28 34 48 60 81
25 26 28 30 33 37 38 40 43 44 45 44 45 47 47 46 45 45 46 47 44 41 46 43 41 42 44 42 37 35 33 33 33 33 28 27 26 25 25 25 26 32 38

GFSMA_prec_cthk_123.txt.gz
RH
22 29 33 38 49 49 50 52 60 65 66 68 68 65 64 67 74 74 64 60 58 58 57 60 53 50 48 43 40 36 31 27 25 23 22 22 24 28 32 33 34 35 36
14 21 27 32 36 45 57 53 56 65 69 68 67 70 69 71 74 80 81 73 68 65 65 62 65 59 57 54 48 44 41 35 30 28 26 25 25 29 32 35 38 40 39
17 16 17 23 30 40 52 58 60 65 67 70 71 77 77 75 75 78 84 88 84 78 72 71 72 71 69 63 60 53 48 44 42 36 33 35 31 27 29 32 37 43 45
20 19 19 18 22 32 46 55 66 69 71 75 76 79 85 83 80 79 84 89 92 86 83 82 80 78 80 76 68 67 64 56 50 49 46 46 48 50 45 41 44 48 52
24 24 23 22 23 26 34 49 62 78 72 78 81 83 85 85 84 81 82 91 93 96 93 91 92 88 85 82 82 76 72 69 64 60 63 62 55 53 52 52 58 60 63
27 26 25 26 29 33 31 37 49 69 78 80 84 89 89 85 79 76 77 85 81 92 97 96 97 96 95 92 88 87 81 76 71 66 66 71 69 58 55 53 52 57 63
27 27 29 29 27 29 37 36 42 55 69 78 90 90 90 92 85 78 75 74 71 87 94 98 99 98 96 92 94 94 83 80 80 74 69 64 66 67 60 55 54 54 60
36 33 33 34 38 32 29 41 43 49 56 69 81 92 91 87 83 79 67 67 67 77 84 91 97 97 98 96 95 93 91 87 86 84 74 68 64 66 60 60 59 59 62
47 48 51 51 45 48 38 38 49 52 55 60 75 88 92 88 86 80 73 70 70 71 76 80 91 94 95 96 97 96 94 93 94 91 81 75 73 70 59 57 58 62 65
56 62 64 72 67 55 53 45 47 53 54 58 68 74 85 85 86 84 83 80 79 76 74 82 87 97 99 97 97 97 96 96 97 94 87 80 74 71 70 61 62 62 68
67 70 70 85 85 74 61 53 46 52 51 64 68 86 82 80 93 94 92 86 85 85 86 87 85 91 95 96 98 96 95 94 94 93 89 85 79 87 82 75 68 71 68
72 80 81 82 90 90 84 65 53 55 57 59 69 75 80 80 86 98 90 90 90 89 91 89 87 94 92 91 95 91 90 92 93 90 86 84 81 83 86 83 78 75 72
76 84 93 95 95 95 90 87 69 58 55 61 74 89 96 96 98 97 94 93 89 88 86 92 93 84 90 94 93 92 92 91 90 85 86 83 81 78 80 82 80 78 76
66 68 75 90 97 97 96 87 84 72 61 57 75 85 97 97 98 97 98 98 89 86 86 86 87 82 81 88 91 91 93 94 95 91 90 85 81 79 78 81 85 84 80
54 60 66 68 71 84 95 95 81 71 69 65 79 82 95 97 98 98 93 92 87 80 79 81 83 82 82 85 83 87 89 92 92 95 93 89 86 82 80 79 78 81 82
29 30 32 39 46 63 66 70 84 84 80 83 89 90 95 93 91 88 82 80 76 75 79 76 75 75 76 74 76 73 81 84 88 92 90 90 91 89 84 81 78 80 83
11 13 15 17 15 20 32 52 62 60 61 72 77 78 77 75 76 73 73 70 72 72 69 68 68 68 68 71 73 72 72 71 74 79 88 89 92 88 85 83 82 82 83
20 18 16 14 11 10 9 16 30 34 33 35 46 54 51 44 42 47 49 53 50 52 51 48 49 49 56 63 66 75 73 70 75 79 79 88 88 89 89 87 89 88 87
19 19 20 22 23 22 18 13 11 12 17 23 25 24 26 30 34 33 32 32 36 42 49 51 47 43 38 36 42 52 63 67 70 73 75 82 91 91 89 91 91 90 88
15 15 15 16 16 17 19 20 22 21 16 12 11 12 13 15 20 25 33 34 35 36 35 35 32 34 42 44 41 39 38 47 63 66 68 71 77 92 93 95 90 89 90
17 17 17 16 16 17 17 17 18 21 25 30 27 21 20 21 22 24 25 23 23 22 26 29 35 39 37 40 36 34 38 42 29 38 53 63 64 67 82 91 90 92 97
18 17 16 16 16 15 15 16 18 22 23 27 32 41 45 41 37 34 36 38 39 36 32 30 30 30 33 35 41 44 36 35 38 35 37 44 44 51 58 76 90 98 99
19 16 16 17 17 19 22 25 28 29 31 34 38 38 37 38 42 48 48 46 46 45 47 49 47 42 38 36 36 35 35 39 34 28 37 32 44 45 52 61 64 90 98
18 18 21 23 23 24 25 28 31 32 33 34 36 38 39 40 40 40 42 41 45 47 49 50 47 46 44 46 46 40 36 35 35 30 26 36 28 34 34 35 49 63 79
22 25 26 24 22 24 26 29 31 34 37 38 38 40 41 43 44 45 47 44 43 42 43 44 46 48 49 49 49 49 45 39 33 30 31 37 34 26 22 16 24 39 57
28 27 25 24 26 25 27 32 32 33 36 36 38 42 45 46 49 51 49 48 46 44 44 43 45 46 43 42 44 48 45 45 44 43 31 35 30 30 33 28 16 22 35